GFSCGP_con_3kmhel_000.txt.gz
Helicity
45 -45 -96 -85 -50 -34 3 -11 9 31 32 8 55 50 2 -9 46 64 55 29 6 -16 7 9 10 20 29 31 35 27 24 20 11 7 7 12 2 -10 -21 -20 -11 -4 -1 6
86 -28 -115 -75 -14 -42 20 -23 -6 22 42 14 13 46 21 14 66 69 88 74 35 -11 -22 1 10 15 29 44 39 32 13 16 18 -2 -7 -28 -27 -18 8 -4 -4 2 11 20
136 83 99 10 -57 -65 -39 -11 -38 14 8 6 35 31 29 7 19 47 52 77 41 29 49 37 24 25 35 52 45 31 19 7 2 -14 -19 -33 -37 -21 -14 -10 -15 -9 -10 -4
116 85 77 108 -8 -28 -46 -31 34 33 44 20 29 13 18 15 39 64 90 91 76 87 95 32 34 45 55 55 36 32 1 -19 -20 -17 -32 -19 -37 -33 -30 -45 -60 -82 -66 -49
159 130 152 120 26 2 -73 2 27 43 43 43 71 43 41 66 -4 28 97 126 120 113 95 115 92 75 51 46 42 18 -16 -36 -43 -30 -61 -46 -54 -54 -71 -66 -76 -90 -48 -18
85 103 143 123 111 102 44 43 63 40 48 -9 -7 70 18 32 -3 7 37 83 109 115 110 90 79 67 40 28 27 -8 -18 -45 -59 -65 -54 -64 -68 -69 -66 -47 -40 -40 -11 14
114 130 162 143 104 95 83 79 86 94 83 23 65 -11 3 32 35 1 2 64 56 99 125 113 82 73 39 33 13 -3 -14 -38 -58 -74 -75 -72 -65 -64 -66 -61 -34 -37 -8 12
137 170 140 173 119 125 74 61 61 60 76 72 21 24 -29 27 19 11 16 5 62 46 113 138 112 99 72 50 15 2 -8 -29 -29 -61 -87 -92 -82 -82 -64 -50 -45 -9 2 25
95 79 55 75 122 115 102 112 39 27 43 43 35 94 -7 23 21 3 6 23 39 47 44 121 127 110 109 60 25 16 -10 -2 12 -28 -77 -89 -84 -58 -43 -35 -5 13 19 44
51 112 47 38 62 77 86 111 102 71 58 47 39 34 39 2 7 4 33 41 23 55 48 71 117 155 156 100 36 25 17 20 21 12 -24 -52 -39 -36 -24 -5 44 48 58 40
5 75 47 47 121 123 129 121 115 74 82 57 49 30 16 30 34 40 31 19 10 53 86 53 70 124 180 118 56 40 31 23 28 34 28 11 20 32 24 35 47 48 115 119
11 48 99 67 28 37 52 97 98 172 122 79 38 14 45 35 12 -8 8 26 31 44 83 73 54 67 155 136 94 48 40 27 30 68 83 65 78 91 102 94 66 117 84 162
15 31 64 67 38 62 61 65 68 88 82 106 98 66 32 23 40 60 22 19 33 45 56 71 74 68 43 110 114 57 31 41 43 52 83 98 128 183 215 234 211 326 220 217
108 20 53 71 68 68 61 91 73 72 134 127 77 61 44 40 18 23 19 13 18 22 46 69 42 25 40 84 120 83 40 35 44 70 93 122 153 198 319 321 367 366 462 480
149 103 43 30 41 36 42 53 58 99 83 91 98 72 73 58 31 20 19 28 38 61 45 68 47 95 53 59 70 49 35 69 57 70 96 129 193 298 325 364 440 524 589 765
121 136 92 56 28 21 39 36 49 59 70 87 79 64 55 69 34 21 16 11 52 64 58 76 64 64 43 55 56 61 44 50 70 99 98 123 243 281 338 287 339 523 753 828
156 99 96 53 21 23 31 32 36 54 38 50 91 95 70 51 32 30 14 43 38 38 65 79 92 56 61 74 78 91 79 67 79 76 83 129 232 236 237 161 243 395 558 581
219 152 129 87 113 73 54 37 37 40 53 49 56 55 28 70 69 75 61 88 24 38 56 71 122 119 141 126 79 88 111 82 70 57 54 88 134 117 124 128 119 212 290 387
95 155 113 136 92 83 116 74 36 33 41 38 53 40 83 86 47 72 110 72 56 54 79 95 174 167 132 115 129 113 96 73 46 38 31 89 91 65 85 104 83 100 158 226
98 120 177 129 122 82 119 169 231 187 109 53 33 87 67 80 95 98 101 60 66 63 62 83 119 148 163 212 180 179 156 116 90 70 99 95 21 32 40 56 96 101 77 147
145 116 123 154 159 130 194 121 12 52 102 49 110 54 59 75 140 147 124 163 142 152 149 169 176 223 298 295 252 235 202 172 123 85 63 -25 -56 -4 22 63 142 76 105 96
138 142 175 183 206 116 181 111 68 138 89 83 102 89 113 194 165 173 210 225 225 268 219 252 346 370 364 276 224 241 223 160 63 20 30 23 6 42 37 138 190 130 75 58
97 90 139 126 117 171 103 97 39 88 36 78 119 129 133 319 344 401 415 396 415 398 372 345 350 393 355 318 269 262 155 70 39 84 73 84 114 88 108 135 145 124 83 61
121 102 112 119 181 162 119 254 312 233 181 222 255 180 208 370 481 480 426 447 438 408 358 299 252 242 248 253 252 182 39 35 55 93 142 159 116 120 108 102 103 82 84 82
222 189 89 168 171 202 254 319 297 185 209 251 269 265 299 308 311 327 359 315 298 311 269 187 180 176 144 126 112 71 79 93 134 153 141 114 150 124 123 164 164 90 146 108
291 261 132 80 246 371 384 317 127 101 153 124 135 128 177 193 267 333 349 235 192 185 145 109 83 59 43 49 55 60 82 101 129 132 151 184 170 141 119 103 105 175 178 140

GFSCGP_con_3kmhel_006.txt.gz
Helicity
-1 47 12 -3 -48 -24 18 -1 23 5 32 6 116 242 -139 -125 -10 18 53 18 54 24 26 46 42 59 57 111 136 124 83 60 123 140 82 39 6 25 2 -5 -27 39 97 53
10 17 -31 -31 -22 -27 1 15 -4 25 84 5 25 165 169 -84 -2 32 41 48 12 30 33 25 79 35 93 110 164 158 140 107 113 120 91 63 31 -34 -8 -31 170 108 31 53
3 24 -31 -22 -8 4 -30 -14 -1 14 75 48 13 7 100 9 53 39 42 47 44 53 59 130 78 66 84 154 193 197 163 143 159 116 108 2 -28 -29 20 4 95 81 99 89
5 -41 30 -41 -2 -9 -13 -22 15 37 141 -19 36 -59 22 -2 72 80 85 21 64 118 92 102 263 220 92 155 198 200 208 174 165 93 118 85 75 39 60 60 47 88 88 61
8 -13 -62 36 -34 -22 -17 -16 -6 21 31 133 50 -14 29 33 68 151 89 70 39 80 102 123 292 346 214 152 232 237 226 179 165 116 117 95 73 32 -11 -36 34 167 48 -4
-22 -9 -18 -49 27 -32 -3 3 26 18 19 -1 55 122 18 52 132 18 121 71 41 57 119 155 230 314 321 180 266 236 227 193 152 143 103 82 97 0 7 24 111 52 9 37
-2 -31 -36 -12 -48 33 -32 19 55 50 53 31 7 191 70 -1 70 7 167 133 91 63 136 204 269 343 354 276 292 336 259 224 167 149 116 83 82 -5 -29 -18 37 12 13 49
40 33 -15 -19 -31 -36 19 -36 92 102 82 31 17 36 99 156 64 157 81 128 124 152 137 212 269 353 332 315 246 330 375 276 202 158 134 89 88 20 -3 -2 7 28 21 0
58 52 -2 7 8 -39 14 23 -11 3 26 43 24 64 25 38 180 237 42 58 39 206 110 129 287 348 342 300 282 305 354 323 225 163 148 102 92 57 20 9 -11 31 18 93
-26 20 33 38 -8 10 -65 31 47 30 68 61 37 26 70 54 93 137 81 31 58 47 159 121 228 319 349 326 296 269 281 305 233 158 146 108 84 70 23 22 34 84 75 81
36 5 11 31 110 10 53 -14 -36 60 44 70 66 17 42 75 109 138 86 29 38 29 123 78 187 266 310 294 272 258 230 238 205 145 120 118 102 86 54 49 116 126 129 237
52 53 43 -30 56 63 15 68 -12 50 89 102 35 35 8 22 125 114 83 71 42 24 108 136 147 251 327 303 237 250 203 198 201 178 140 123 115 108 107 121 181 226 241 286
41 101 77 30 8 39 83 28 52 24 41 68 120 72 -37 20 177 61 52 2 39 63 109 166 144 207 295 321 248 232 225 192 187 183 165 162 119 125 147 169 221 283 331 396
115 79 106 94 78 23 60 69 33 9 77 78 34 79 30 35 73 41 68 57 39 67 146 122 63 146 268 392 406 279 246 184 164 174 166 154 157 180 204 216 213 273 356 415
96 124 68 69 15 7 21 43 47 57 36 60 91 -7 52 33 20 164 171 74 64 65 118 103 96 116 217 399 547 456 270 236 167 181 165 151 166 183 191 203 227 274 339 398
66 144 141 69 25 10 18 19 46 50 65 45 29 41 53 40 36 47 138 103 110 123 80 84 117 91 165 305 487 557 339 313 190 181 207 168 160 192 213 218 242 274 304 331
90 120 147 170 32 26 41 29 32 39 53 54 44 57 38 44 52 61 125 83 95 93 63 48 68 108 117 228 428 551 368 336 263 214 261 211 212 254 272 268 284 325 337 334
95 118 112 125 47 83 75 39 30 31 42 42 56 62 64 21 15 -5 8 29 40 110 141 103 51 135 138 126 270 403 375 328 314 306 282 251 286 356 325 295 319 351 336 296
69 136 116 104 58 114 52 34 65 96 89 62 40 44 38 56 57 14 -9 -22 20 61 35 183 127 86 222 135 221 316 269 262 356 288 325 291 318 459 396 394 384 310 263 182
137 184 123 100 142 110 57 82 138 220 181 128 137 172 172 183 90 98 57 24 28 20 39 76 115 69 275 217 245 324 245 235 256 282 344 412 502 519 461 373 300 207 114 59
200 198 204 194 145 110 54 226 183 172 146 119 152 144 103 131 115 131 68 157 142 108 106 132 43 166 195 244 291 276 236 223 210 307 348 430 442 408 312 226 169 105 92 136
190 272 357 122 131 139 68 8 -6 151 98 109 103 112 139 107 28 36 51 92 83 97 171 141 181 250 277 309 388 342 311 268 295 355 353 389 325 275 199 118 96 142 190 268
193 176 149 153 127 8 70 142 102 154 104 147 126 121 77 56 53 121 132 136 127 81 116 156 236 334 413 436 458 473 365 315 337 308 290 289 212 153 201 244 194 185 195 184
70 20 23 51 42 97 101 118 179 173 254 297 295 268 380 218 95 95 94 88 94 120 226 326 340 352 452 529 550 411 313 259 272 318 274 235 176 156 166 186 167 149 157 178
10 45 122 19 197 263 377 334 230 305 286 286 345 447 400 525 567 568 506 476 460 468 473 485 500 465 467 500 420 318 304 285 298 257 221 191 195 179 206 320 225 181 212 141
2 13 173 276 227 284 292 273 279 328 259 212 244 289 233 272 261 419 625 672 523 442 421 413 427 434 288 286 221 180 169 158 168 149 119 125 185 203 274 293 286 370 224 197

GFSCGP_con_3kmhel_009.txt.gz
Helicity
-53 33 -21 18 -65 -77 -74 -30 -4 37 21 191 205 219 84 150 170 125 358 264 268 129 66 128 136 102 107 178 219 224 185 182 165 115 126 66 33 0 2 8 53 75 67 75
-37 -7 -71 70 72 -36 -78 -42 -54 -69 65 102 302 232 67 206 130 130 255 330 293 251 106 141 153 153 158 199 238 230 203 225 230 188 128 71 50 -15 -21 -11 -3 70 81 68
14 27 -38 -51 -14 27 -72 -101 -34 -17 27 103 224 163 92 -5 81 39 -17 257 285 305 282 206 176 186 196 229 267 266 242 199 259 226 164 85 64 4 4 -6 -1 49 110 91
-1 6 -7 -36 -38 -35 -13 -54 56 74 36 -1 176 32 99 18 85 49 6 144 263 315 309 336 374 281 284 289 288 286 273 232 222 266 223 173 121 65 -25 24 102 87 85 92
20 20 -9 -59 -13 -84 -49 36 10 91 59 207 60 -7 82 181 317 152 -80 129 228 260 335 376 475 514 460 441 375 354 309 257 225 215 209 162 114 63 1 15 101 102 100 111
-48 -20 -59 -81 -86 8 -12 46 25 32 20 42 122 37 84 146 267 28 -32 120 232 229 284 361 452 476 465 515 502 437 358 277 260 211 210 165 112 45 16 2 63 89 137 78
-38 -59 -87 -41 -80 -72 3 1 22 64 73 52 53 121 136 93 34 193 284 131 183 209 302 319 360 432 452 483 544 553 421 325 290 218 164 162 106 11 20 -1 59 130 120 71
60 -13 -47 -83 -55 -93 -2 -5 51 95 96 73 62 89 -41 198 174 147 250 111 229 156 255 322 374 451 487 475 490 517 490 358 282 239 152 123 114 26 -17 28 65 145 111 89
136 59 30 8 -88 -17 -119 21 -64 68 79 67 72 59 8 -1 125 148 306 300 286 152 194 171 351 432 550 519 485 505 492 399 290 270 179 121 99 60 18 -17 38 87 74 87
63 121 70 -3 36 -20 29 27 100 -12 43 68 41 81 53 26 211 245 290 183 196 153 116 87 329 383 552 586 539 467 500 474 338 252 220 144 107 76 27 12 4 85 98 154
88 36 4 26 84 74 26 2 -8 114 27 67 111 29 -60 5 128 314 292 126 152 155 75 112 258 339 531 540 504 463 468 432 352 271 237 143 87 74 55 25 34 104 132 228
194 129 110 -7 -14 90 114 175 87 72 111 127 92 2 -6 -4 -36 216 323 159 31 154 104 144 283 334 478 490 477 464 470 431 377 297 238 159 86 73 75 61 54 105 198 253
193 213 163 98 -16 -40 81 132 196 65 137 52 154 -41 -135 -45 -35 -2 141 50 35 63 182 261 255 337 415 417 441 463 474 421 360 299 238 160 78 73 102 102 89 137 195 286
162 184 200 186 124 11 103 135 132 189 113 19 -101 29 58 -14 51 68 150 109 67 96 109 316 291 293 309 394 448 456 487 422 354 288 228 163 106 111 138 141 149 190 255 329
137 112 100 111 166 58 18 68 174 163 176 167 65 44 18 0 61 80 72 101 105 92 107 242 186 274 265 343 417 480 516 463 335 304 251 164 124 108 113 126 149 195 298 370
77 221 214 214 171 87 54 39 29 175 155 155 100 42 97 31 44 52 92 212 162 62 123 163 272 170 248 332 415 505 564 526 367 294 263 175 112 113 108 157 174 228 241 341
181 169 203 278 210 152 74 3 34 63 155 169 164 104 106 50 -39 25 58 188 280 114 107 122 106 185 277 319 381 474 551 625 453 282 289 223 148 139 164 214 207 235 263 329
296 261 284 227 220 194 152 46 57 63 84 152 217 181 178 119 35 0 32 60 162 151 20 95 114 124 162 237 363 428 532 584 533 338 273 292 210 163 223 278 276 293 334 363
165 174 258 280 246 163 131 197 90 60 82 47 103 211 191 180 66 67 43 61 123 111 29 54 69 153 214 236 255 399 499 602 566 438 311 342 316 255 269 337 303 378 417 434
78 126 87 223 274 215 146 64 107 140 191 222 185 207 176 198 192 117 226 169 76 71 108 129 77 86 171 308 313 372 420 517 563 476 358 364 380 328 408 468 477 502 405 263
120 61 155 210 219 219 162 116 74 153 215 227 249 230 237 175 129 145 167 64 68 121 118 110 204 176 88 225 332 344 369 383 501 510 450 451 465 524 631 651 547 433 298 274
170 286 205 177 285 247 290 171 168 244 305 192 275 239 179 180 178 127 108 94 104 118 134 166 162 274 253 281 416 396 322 366 570 521 490 530 638 684 665 522 326 280 246 268
208 84 89 404 366 69 139 132 124 220 251 312 186 230 107 224 278 343 170 97 98 103 89 141 252 424 499 442 394 477 494 551 645 643 575 623 611 525 501 355 347 277 261 261
161 152 58 282 241 169 91 49 120 235 283 217 128 140 188 186 232 357 485 453 268 192 300 352 376 378 429 515 537 519 541 610 764 804 618 521 450 406 343 264 199 209 212 185
137 130 69 128 136 276 213 422 149 123 132 157 187 171 146 186 275 300 402 461 431 467 445 463 478 478 441 464 499 509 587 669 743 663 523 454 387 324 312 295 259 229 229 155
80 109 83 63 141 113 254 300 179 183 152 152 199 233 251 202 267 320 418 474 489 493 550 596 537 536 483 515 556 583 517 455 443 428 379 272 248 250 273 311 381 413 253 227

GFSCGP_con_3kmhel_012.txt.gz
Helicity
-44 45 -31 -72 99 9 -2 -135 -76 -37 -26 44 183 260 299 397 272 306 403 298 203 109 201 124 99 92 195 237 231 221 196 102 84 104 93 60 49 6 19 58 51 71 70 70
-44 -19 44 101 122 17 -55 -118 -111 -126 -31 -11 143 267 249 374 333 406 364 359 298 131 7 125 159 195 271 295 263 241 224 174 150 110 82 52 42 4 -33 10 -3 34 43 52
49 74 -84 3 53 49 -92 -135 -140 -98 -26 -33 182 315 183 230 282 184 238 365 312 220 203 104 129 234 261 298 315 330 294 232 205 177 134 50 6 -20 -12 -12 -7 13 14 55
-27 -15 31 -20 -32 3 -133 -123 -48 -26 10 110 7 89 150 32 196 185 197 317 395 280 272 257 242 236 294 301 318 337 335 301 274 274 207 143 123 83 20 6 -6 16 26 107
91 86 18 46 -11 -73 -93 -3 -50 -2 23 68 9 51 84 113 92 60 194 258 345 382 337 336 401 386 379 351 335 345 388 367 325 266 238 213 160 105 43 17 -14 3 49 96
0 36 40 21 -7 -1 -51 13 31 39 53 94 57 53 99 155 64 31 90 235 265 341 339 305 423 458 443 412 370 362 377 361 354 315 257 254 200 130 66 54 27 22 39 47
79 -27 13 82 34 -31 -10 -11 18 15 45 -11 -1 86 -19 31 184 187 105 174 249 263 371 312 345 361 392 471 458 417 391 352 328 333 296 266 229 141 76 49 48 53 43 31
133 22 -41 -15 -58 7 -26 11 2 119 99 25 52 68 53 44 139 222 189 225 209 218 247 390 341 424 424 459 526 527 470 380 345 273 249 226 204 115 42 42 58 51 65 104
152 98 84 80 -27 53 -160 7 -14 -75 58 113 58 92 17 50 94 128 206 213 163 231 203 285 343 425 428 494 531 591 546 434 397 288 217 196 151 99 50 43 41 21 37 79
200 106 70 49 59 27 57 21 74 144 -90 4 43 83 68 71 -1 85 120 236 171 237 220 212 290 372 404 508 559 604 582 536 434 334 247 216 156 114 69 40 51 28 26 72
147 211 81 104 99 53 28 -37 118 98 74 -97 -122 -114 20 24 -25 35 216 310 233 327 259 189 259 334 405 480 589 575 539 471 356 297 217 202 140 123 100 28 20 40 31 65
91 137 136 90 58 54 12 47 123 153 154 99 -14 24 98 33 56 15 88 257 296 342 360 233 262 281 334 462 532 545 515 448 396 308 217 172 140 135 115 50 1 9 78 92
399 72 183 181 115 55 70 57 13 228 270 70 34 -27 38 -24 39 -7 13 147 303 288 217 151 259 328 347 385 503 508 478 467 373 300 233 153 146 132 99 88 45 24 47 128
133 143 227 122 126 141 154 123 78 51 190 130 20 266 106 40 25 -98 -53 54 196 255 129 122 248 304 324 327 488 461 392 438 386 315 253 175 149 154 102 83 71 51 68 129
80 212 175 201 152 109 147 153 155 119 103 204 34 228 182 35 -31 58 117 50 134 102 99 106 313 368 330 255 378 365 392 431 371 318 293 233 148 168 145 94 83 84 78 145
38 156 225 107 255 107 115 119 114 156 107 141 201 207 257 127 57 -52 46 90 21 103 168 232 246 322 318 233 339 343 371 394 386 311 253 262 180 179 153 120 107 117 164 194
11 119 265 163 383 204 137 70 89 122 153 148 175 218 218 201 99 29 16 53 51 93 212 163 204 262 193 241 312 324 370 415 399 327 256 217 205 200 181 158 165 156 200 287
173 235 214 239 430 336 322 86 132 154 115 95 153 118 212 195 70 144 97 66 49 82 106 237 177 166 241 307 304 333 362 414 425 364 286 229 201 203 219 205 195 222 232 282
95 236 193 269 428 370 300 220 275 138 110 100 57 144 113 182 204 150 93 133 54 80 73 129 236 242 182 265 268 316 333 363 394 392 368 299 222 229 247 248 242 260 266 284
105 73 148 219 522 534 295 250 255 244 288 310 173 167 185 285 209 217 189 157 98 96 115 105 78 186 160 147 201 379 332 360 363 364 396 405 359 279 289 268 290 302 310 296
202 243 185 222 361 412 400 361 155 254 193 230 244 277 270 245 245 287 252 201 169 146 95 83 155 139 150 180 219 247 309 324 311 329 359 454 466 370 306 341 370 366 322 260
323 310 270 243 280 389 391 354 209 179 222 194 252 261 274 279 267 242 243 178 203 183 154 110 80 106 140 203 321 306 337 286 287 312 397 440 499 496 450 462 502 329 283 253
185 248 322 213 60 395 278 237 329 298 285 302 207 195 203 211 276 269 302 314 301 286 228 213 134 118 128 177 261 304 254 314 388 431 415 434 499 575 556 567 451 358 344 346
113 264 277 52 77 235 326 139 271 203 246 226 212 240 218 181 202 248 273 300 289 292 321 309 283 211 101 173 264 277 415 492 524 498 509 580 600 635 575 509 441 425 427 370
155 217 308 101 90 333 178 202 199 279 243 291 292 226 219 169 193 134 175 242 248 273 264 210 185 293 347 241 449 485 468 538 623 615 552 580 623 624 673 718 529 414 385 309
204 153 182 101 249 22 130 228 288 360 362 261 250 269 284 210 100 102 176 217 162 109 82 121 154 196 300 325 299 507 497 528 551 561 576 570 655 657 649 528 461 492 366 123

GFSCGP_con_3kmhel_015.txt.gz
Helicity
117 92 60 91 66 53 33 10 -164 -166 48 57 -18 116 301 261 178 257 376 301 165 88 64 31 34 48 43 24 73 109 87 73 59 22 13 27 80 50 49 43 45 45 41 35
158 129 43 142 128 50 58 33 -111 -81 -97 19 -2 -26 288 305 233 311 374 311 229 40 59 16 26 34 76 117 109 136 145 128 117 89 69 57 64 31 52 35 20 31 31 54
126 164 93 62 108 36 19 -51 -105 -56 -29 -1 23 40 71 171 34 117 222 303 218 156 161 17 58 77 81 122 146 177 225 191 148 113 84 66 19 -7 25 39 44 55 23 13
-41 -29 91 57 -10 -0 -162 -5 -39 -72 -107 -9 46 3 78 157 29 109 142 201 330 243 218 154 62 119 172 177 194 191 227 231 190 177 140 143 117 97 33 41 50 64 35 4
126 110 51 48 24 133 -95 2 -22 -60 -64 -2 39 115 69 214 66 17 104 160 249 367 349 323 291 265 225 219 207 220 254 266 252 244 201 165 145 117 76 39 27 34 15 4
62 75 56 12 112 -9 68 30 18 -44 -14 -2 -121 116 -143 -63 135 155 198 204 206 324 340 286 362 333 304 299 283 248 291 290 291 275 236 227 202 195 120 61 31 10 4 -14
153 -25 101 127 101 54 111 -2 59 28 70 -53 -69 80 -81 -55 12 278 395 387 353 252 335 319 259 311 337 362 362 343 328 287 300 302 263 260 223 225 181 107 61 37 8 -37
232 136 105 168 125 112 76 41 233 247 220 25 22 42 -98 -62 -36 131 260 332 328 315 297 358 300 324 373 483 471 438 403 343 346 353 287 261 254 245 184 137 87 37 12 -17
147 134 97 150 184 140 149 137 -11 140 202 213 126 85 -2 63 6 65 47 121 196 310 300 257 336 327 356 399 538 540 505 419 411 407 380 297 254 239 209 145 97 46 -1 -57
185 120 120 115 148 162 126 148 195 282 14 36 112 93 42 90 3 -5 76 161 149 269 269 274 230 306 289 390 498 598 563 514 489 461 414 378 291 241 227 150 78 59 -10 -48
109 146 50 125 183 163 218 46 162 148 199 -16 -54 -58 64 118 106 87 36 93 139 170 180 231 218 277 323 322 429 501 472 490 394 388 357 336 274 214 224 141 92 70 8 -31
300 187 81 95 118 96 146 178 249 266 169 201 -38 -45 24 107 65 70 56 50 54 17 230 189 181 258 319 298 354 503 513 453 425 414 359 350 302 234 195 124 81 73 31 26
480 359 201 179 89 101 144 203 194 170 193 -64 56 -1 -117 113 32 76 94 77 57 84 138 189 185 162 292 338 381 470 501 423 391 401 340 291 265 259 208 119 85 68 47 36
227 319 343 209 140 144 180 164 142 181 220 31 -70 -19 99 -19 -19 8 25 35 47 160 233 238 257 191 251 298 348 382 435 403 382 361 328 277 255 256 227 125 92 64 78 80
10 237 272 222 227 144 122 192 79 150 149 225 33 172 -33 115 97 29 -2 23 -47 30 168 297 204 243 228 293 332 316 331 386 351 343 289 263 232 214 190 111 94 85 90 94
-30 121 141 79 141 81 105 117 141 89 163 184 118 206 173 8 147 179 93 67 53 46 68 132 105 119 299 289 418 373 348 364 344 286 277 302 263 215 197 132 98 114 134 140
-75 38 110 -48 130 248 75 51 107 126 155 209 192 192 194 104 93 133 74 -8 -7 66 62 73 -7 29 278 249 417 318 289 377 348 295 267 270 274 229 208 175 139 122 154 207
-171 -42 -13 -42 104 251 139 108 33 61 143 205 247 158 202 196 84 102 152 104 -27 36 42 54 31 79 170 277 282 336 253 311 340 289 271 286 304 249 257 215 167 152 196 226
23 -84 29 40 117 178 188 111 212 159 144 141 184 195 124 126 173 79 84 111 85 88 80 115 90 131 149 263 265 255 271 288 311 281 269 292 292 273 280 277 225 171 200 233
6 48 64 88 145 215 196 354 422 342 147 276 186 154 141 153 181 47 36 25 44 68 77 50 80 134 233 111 250 245 296 303 298 299 289 329 329 302 304 311 280 246 210 207
105 227 157 176 233 290 233 325 303 301 219 207 221 183 207 162 162 144 145 128 167 142 146 142 126 109 145 240 298 241 268 218 255 298 344 345 351 366 366 341 336 346 296 275
98 148 178 230 257 332 195 296 347 295 394 295 352 326 290 298 289 303 354 352 390 380 318 242 230 251 206 146 151 200 268 239 240 285 260 290 353 389 412 403 393 356 319 246
133 174 164 213 263 175 59 351 392 270 137 316 318 296 275 314 386 364 330 290 293 283 243 164 65 60 172 245 193 128 141 199 244 293 319 393 400 416 453 507 444 371 316 233
39 127 147 193 129 166 76 315 474 369 230 262 309 291 338 302 324 325 303 291 251 194 162 104 59 35 -11 -89 -4 161 133 103 107 175 322 427 451 425 548 571 543 449 388 315
36 56 81 168 177 110 121 247 500 311 259 297 353 388 362 296 294 240 253 263 211 161 122 127 133 122 99 18 -18 -15 27 136 127 235 288 375 474 604 584 643 482 419 494 379
10 34 53 80 155 47 275 298 251 179 301 262 263 338 358 265 225 200 233 182 141 137 93 67 64 64 67 78 72 29 20 -45 91 116 401 476 601 762 780 936 906 881 638 329

GFSCGP_con_3kmhel_018.txt.gz
Helicity
148 140 150 100 103 108 41 -1 -29 -50 31 41 -22 -20 109 260 270 237 325 320 145 40 44 -4 7 15 30 1 14 12 7 -7 -10 -11 -22 -35 -8 -23 -22 -20 -7 9 20 45
213 162 108 73 96 110 90 29 -32 -13 15 33 9 -14 47 243 313 355 328 339 190 1 8 14 23 5 29 34 22 20 41 38 34 28 9 0 13 3 32 7 -10 9 29 44
233 120 109 45 82 73 44 -70 -70 -3 52 93 59 31 -20 86 193 119 85 169 125 27 52 -1 28 50 31 28 18 31 66 64 73 57 26 1 16 6 -8 -6 5 15 30 47
156 124 78 130 44 78 -35 89 42 -29 28 32 63 -54 -2 -106 73 81 78 131 185 66 33 27 26 -2 34 53 48 32 31 65 63 108 98 98 75 72 69 81 78 55 48 44
222 199 209 88 135 179 60 110 70 53 30 8 60 9 -87 29 -4 8 35 150 192 192 120 139 127 139 96 50 71 72 102 103 96 142 156 145 123 78 50 84 70 55 58 49
187 124 120 119 121 135 184 138 105 87 42 -15 -170 -68 -155 -67 19 62 51 68 183 213 179 145 173 113 80 61 15 44 91 114 160 173 174 182 144 129 85 71 88 71 53 22
148 69 120 134 128 121 130 98 67 81 128 -23 -32 -24 -89 -80 20 102 139 200 253 281 268 197 155 180 164 158 172 158 117 105 146 200 215 229 215 208 148 117 107 110 62 -5
221 155 55 166 148 170 132 178 183 147 170 36 67 -141 -69 -176 -1 -12 99 200 236 308 310 299 276 260 254 270 260 215 231 209 184 209 231 249 272 240 164 120 124 105 88 30
146 162 151 219 189 194 227 136 146 223 211 127 185 -23 -64 -3 -23 68 55 88 103 223 298 295 310 290 329 322 356 401 317 250 292 279 258 265 289 285 216 152 147 132 92 21
197 125 145 66 210 195 185 253 276 284 -29 -15 233 130 146 127 70 -16 45 43 92 191 229 264 299 315 320 340 370 405 376 377 367 355 300 312 346 328 264 208 170 142 107 41
275 209 179 189 218 136 271 242 246 167 257 135 60 62 130 133 108 33 -51 14 53 114 256 307 255 292 350 318 305 355 388 379 373 360 354 319 313 304 292 231 178 154 126 64
265 215 186 199 196 118 152 224 351 291 231 255 19 -6 -2 -47 -14 166 59 61 7 53 137 250 270 328 348 291 300 308 347 378 424 455 449 394 353 355 352 283 179 160 127 70
477 387 310 254 169 156 156 141 251 258 246 128 145 59 -81 -20 53 90 58 34 102 55 31 134 129 304 388 373 263 289 348 329 355 396 387 374 356 334 335 286 196 174 137 88
364 392 352 301 276 307 256 219 200 182 195 -17 -25 -14 97 64 27 21 46 145 79 50 34 32 119 250 283 304 362 350 329 316 351 338 350 329 346 365 366 327 242 183 149 131
222 389 390 326 411 317 277 246 174 208 146 152 12 -13 -31 -7 -21 -27 0 31 10 17 91 18 97 188 265 253 254 295 299 345 377 403 370 320 310 301 284 271 237 187 144 145
66 232 210 257 305 327 184 214 226 205 185 153 11 18 145 18 146 105 -5 10 42 45 55 22 56 174 276 287 263 277 353 371 408 396 365 317 307 308 280 266 250 202 144 117
42 51 136 71 174 278 146 89 149 151 182 182 5 54 118 61 98 108 36 70 58 25 119 74 53 141 206 219 272 282 251 331 350 358 376 327 281 281 263 252 240 223 192 185
6 33 32 60 85 57 150 192 158 121 70 178 144 112 134 130 58 121 176 157 115 91 108 76 119 108 142 168 197 211 216 261 349 323 323 335 318 296 283 271 242 212 227 216
-42 1 83 109 78 160 388 301 228 75 150 115 121 162 156 165 138 82 81 89 68 66 92 126 76 83 111 121 180 317 343 362 382 308 308 355 338 336 322 309 261 220 226 223
7 -3 100 69 71 -40 -10 174 131 61 -58 141 204 159 166 221 195 104 38 84 60 73 54 28 43 61 88 136 166 265 341 417 347 298 286 341 357 346 310 302 268 265 246 239
65 64 4 113 194 166 203 217 83 137 95 273 234 139 65 227 194 163 148 170 156 165 138 104 112 74 99 97 163 188 215 203 251 266 200 261 330 327 300 331 322 316 321 286
105 29 41 166 198 132 199 175 193 177 149 188 176 102 75 159 316 230 187 201 205 229 260 230 223 199 173 141 93 147 151 157 153 152 178 182 222 210 180 281 428 447 336 309
171 116 145 89 135 155 75 34 24 9 89 210 235 212 216 248 333 328 321 293 275 266 252 246 247 267 270 202 141 159 142 126 154 99 173 197 216 264 290 283 338 410 352 350
52 22 33 121 92 56 37 76 132 21 96 240 292 226 318 305 381 467 450 412 297 273 260 264 280 262 268 247 184 131 123 95 56 84 104 181 231 274 281 358 318 333 389 365
19 39 6 33 -3 55 44 -21 41 97 219 158 166 273 297 312 353 340 370 372 334 276 223 145 116 108 116 114 115 128 152 122 77 53 56 124 202 251 288 352 360 408 344 334
96 72 39 -29 -10 -5 39 -27 99 145 234 182 208 316 301 242 302 322 370 362 332 318 323 286 233 167 111 26 -6 -8 -39 -51 -16 46 57 117 170 256 303 465 561 670 344 408

GFSCGP_con_3kmhel_021.txt.gz
Helicity
144 192 216 72 61 39 75 -3 -7 -10 -1 -6 -22 23 21 71 82 141 216 173 108 130 71 23 -5 -15 -21 -18 -27 -21 -11 -12 -26 -20 -10 -5 -6 -13 -9 0 -3 -10 -8 5
230 234 152 70 55 29 10 -7 -12 -5 18 28 4 -5 10 32 128 170 224 237 118 46 61 32 -18 -15 -16 -20 -21 -12 -2 -8 -3 -19 -10 0 0 4 -4 -6 -5 -7 -3 -1
245 111 161 110 4 -14 -73 -103 -55 16 26 16 33 -54 13 20 6 77 143 116 69 30 82 47 28 -12 -1 -15 -17 -10 0 -3 2 2 -23 -28 -2 7 -17 -15 -11 -7 0 -5
91 160 56 138 53 14 -18 0 27 -6 33 -2 34 11 8 7 -27 26 108 69 76 10 40 42 59 5 3 4 -11 -11 -17 -17 -9 22 4 41 23 33 30 40 31 14 5 -2
249 178 182 64 148 96 19 47 37 37 16 41 -17 -15 -59 44 -82 -40 38 75 99 27 23 88 88 65 54 -27 -21 -25 -18 -17 9 26 36 37 30 12 -1 14 30 33 27 10
141 156 98 141 45 96 93 78 88 108 66 -63 -58 -20 -52 -163 -50 -34 -18 37 66 76 88 23 61 41 41 13 -42 -45 -23 -28 -12 22 37 58 55 44 12 14 8 12 27 32
79 147 106 77 75 25 52 39 61 35 32 -27 18 -79 -56 -19 17 -32 -25 42 38 79 96 97 58 78 75 95 97 32 -7 -9 27 38 39 66 75 103 111 87 42 32 26 37
174 147 111 108 73 151 62 60 196 150 40 24 138 3 16 -102 -7 -20 -9 -5 22 21 107 96 122 141 148 137 114 126 111 55 57 72 80 87 90 80 93 85 82 58 27 16
132 133 118 159 164 98 153 72 40 169 161 117 29 -39 -34 52 13 37 11 14 64 30 67 160 218 172 169 164 199 185 179 141 138 114 119 122 120 121 108 112 115 79 55 1
222 178 125 53 103 60 114 164 211 144 -17 -1 12 41 77 76 96 53 31 16 43 58 40 85 131 187 247 219 236 269 237 204 210 196 183 146 134 117 121 125 134 108 97 53
270 229 212 141 206 213 215 136 160 114 211 14 20 21 16 5 33 84 29 -4 -7 46 48 65 108 142 199 189 171 213 259 278 246 216 198 197 183 164 142 138 139 130 123 96
404 271 237 137 144 84 109 171 175 238 178 69 62 10 44 -70 1 34 5 26 33 36 55 45 65 76 134 191 230 221 235 246 288 307 250 232 224 202 192 189 175 166 165 129
404 340 224 250 193 164 120 90 109 96 125 64 37 16 27 56 57 32 54 51 69 41 14 41 34 53 114 175 228 206 222 208 233 243 270 224 193 204 222 221 196 170 158 140
478 398 332 203 225 319 311 246 125 107 145 39 -64 -18 95 101 14 18 25 74 90 80 108 71 75 100 119 197 280 250 179 176 173 181 240 251 264 260 253 251 193 189 188 168
421 435 453 377 404 349 355 349 355 256 142 23 -17 -40 -48 -7 33 74 77 33 81 133 63 46 43 63 80 140 275 258 170 177 180 192 215 239 249 234 231 236 213 206 184 185
283 369 389 389 418 392 319 291 310 246 205 195 39 -3 103 73 3 39 38 1 -18 60 106 119 114 54 45 83 193 204 168 158 189 230 236 235 215 235 259 218 191 170 172 168
248 292 291 284 337 335 178 216 234 208 218 199 18 50 62 27 7 23 60 52 42 27 18 42 85 109 79 79 177 154 167 164 198 221 197 189 213 220 244 255 238 210 195 184
105 155 205 247 286 208 210 220 222 209 137 89 16 5 12 14 0 4 34 55 77 138 125 99 97 102 121 89 107 115 161 210 174 173 218 242 277 256 246 260 241 228 216 197
-40 33 127 197 194 293 329 202 257 262 203 242 173 72 2 17 -8 17 23 40 67 54 90 54 37 64 78 78 117 146 176 225 225 194 233 281 323 308 278 266 254 262 254 208
-4 30 108 114 192 169 101 154 131 111 116 153 231 142 111 31 52 17 30 33 57 29 67 48 33 54 80 78 40 122 137 161 200 216 223 194 246 274 260 269 229 225 258 284
82 57 5 60 145 163 253 161 114 133 172 163 132 158 123 85 51 71 10 50 71 50 40 64 88 69 82 79 53 46 68 118 118 123 128 167 223 234 207 235 235 217 195 174
114 69 -28 43 86 46 231 292 241 206 135 145 128 43 72 57 54 6 -3 5 61 63 98 119 147 163 126 107 56 66 72 62 68 86 90 139 162 155 115 163 193 205 217 175
122 125 181 156 45 139 196 345 245 128 134 47 18 3 -38 31 3 20 76 105 128 109 151 181 181 207 222 186 129 142 117 123 103 111 100 89 102 142 127 142 172 196 207 230
63 80 124 152 174 180 191 202 98 41 75 73 66 37 23 -36 9 84 173 223 216 225 264 280 273 336 364 326 259 209 163 127 80 56 72 70 82 121 113 96 137 213 231 220
57 90 96 90 81 103 82 166 53 38 52 78 -62 36 42 28 151 229 283 319 335 392 386 394 326 317 335 343 317 261 225 174 125 100 78 48 36 60 84 123 182 205 214 300
63 67 54 44 74 120 70 128 89 43 73 58 130 99 204 253 260 324 429 475 481 470 427 415 393 374 317 270 241 224 198 160 119 91 74 67 53 56 60 91 175 324 357 245

GFSCGP_con_3kmhel_024.txt.gz
Helicity
99 110 145 104 17 71 62 46 37 31 39 57 2 13 21 30 48 31 62 95 88 87 60 47 16 -5 -13 -21 -29 -24 -24 -24 -27 -17 -15 -8 -1 -5 -5 -3 -3 -10 -7 -6
128 161 53 39 54 96 89 51 28 45 49 77 44 36 20 19 14 16 45 57 112 21 25 52 27 -6 -13 -18 -23 -28 -23 -24 -21 -17 -12 -10 -9 -9 -6 -6 -6 -1 -8 -8
151 24 62 54 35 21 6 -20 39 79 53 50 69 25 15 28 26 16 4 47 38 53 32 76 69 18 -0 -5 -12 -18 -19 -20 -21 -19 -31 -19 -20 3 -11 -12 -2 4 -3 -2
15 50 31 43 38 29 -33 -25 55 61 75 90 40 52 -24 -7 36 -14 15 45 54 35 34 -1 83 82 33 30 -7 -20 -21 -24 -27 -10 -19 6 5 11 -1 4 8 4 4 4
98 23 71 67 83 35 22 60 33 51 74 76 85 59 12 45 -80 -29 17 39 98 11 42 10 33 129 71 18 -4 -24 -33 -32 -27 -12 -5 16 -0 -9 -16 -13 -4 6 18 8
7 35 47 15 21 1 32 62 71 62 57 9 13 7 31 -30 -74 28 17 19 25 16 38 31 5 26 87 25 -0 -25 -19 -15 -4 21 12 8 5 -3 -11 16 18 14 19 36
62 40 50 69 15 21 17 27 67 65 -20 -19 -21 33 -24 40 -17 20 38 18 3 23 -23 34 37 36 39 52 20 -11 -13 -4 10 20 19 12 9 10 8 28 22 33 27 26
125 86 85 68 13 75 41 21 119 107 50 -7 -9 11 -8 -28 13 80 8 23 37 13 2 -18 46 78 72 75 111 109 71 44 36 29 40 37 42 26 15 23 12 37 25 34
88 65 76 99 87 54 82 3 -32 118 121 85 -1 -13 6 63 27 34 20 39 30 32 -27 -2 3 51 85 74 101 129 166 130 92 72 59 62 69 54 34 30 54 24 33 22
171 105 89 79 41 65 91 19 58 21 -11 -2 12 10 29 26 56 17 9 -2 25 40 21 18 -18 32 74 79 100 120 130 188 204 159 115 78 92 92 72 88 59 54 41 40
309 217 99 91 112 128 102 102 32 43 -7 -19 14 5 2 15 39 -5 5 -0 5 15 37 33 45 -8 14 6 25 84 93 104 117 127 170 164 135 104 79 71 93 89 63 70
254 253 254 90 75 40 63 104 102 142 54 -28 59 35 59 -19 -27 -2 7 16 34 31 35 24 13 23 37 22 28 50 95 115 126 135 159 180 175 172 131 124 108 111 105 92
300 241 209 130 83 57 76 84 69 49 73 -1 -3 56 37 78 35 49 76 75 73 109 70 64 40 34 26 31 38 21 41 44 48 84 94 84 99 110 134 154 96 85 98 118
384 342 158 157 84 101 110 102 79 77 99 90 3 45 59 47 40 56 93 87 84 56 80 62 21 6 14 25 66 75 51 35 48 62 56 94 129 160 152 165 163 136 136 125
439 246 332 269 243 294 135 82 97 103 80 66 64 38 77 52 64 71 73 151 196 139 95 99 106 76 78 58 65 92 98 146 68 70 52 78 100 127 139 159 161 127 135 149
417 342 312 337 298 312 371 316 316 164 87 82 71 84 57 36 93 41 40 62 61 120 253 202 118 75 103 62 42 47 112 139 136 56 62 85 66 94 118 146 166 126 123 154
435 430 270 243 215 304 267 237 198 179 217 194 73 81 57 48 23 23 58 66 37 34 40 155 113 80 83 93 96 73 65 84 110 58 81 82 113 98 118 126 155 154 154 156
288 344 362 396 213 246 146 119 74 105 132 105 102 124 101 57 9 -0 7 34 56 87 102 105 135 95 84 86 90 81 55 91 91 114 96 76 87 135 128 142 156 167 167 182
29 210 313 363 241 421 229 228 211 173 147 150 100 130 73 36 -8 -8 -3 5 16 46 82 109 124 88 96 107 100 74 76 74 94 111 123 123 87 103 109 137 168 178 167 175
20 45 209 256 323 233 212 42 216 270 254 164 188 173 165 142 26 -12 -9 -7 15 29 36 74 96 82 84 95 93 90 73 84 85 104 83 83 105 134 166 178 167 190 193 173
48 20 94 206 324 269 162 144 184 150 237 244 170 204 160 116 96 70 75 62 35 27 38 8 29 85 54 59 59 80 63 53 84 73 75 103 128 123 141 169 182 190 180 137
42 39 14 94 200 222 149 288 263 225 279 185 151 172 208 184 68 13 26 27 9 -3 25 27 21 62 81 85 64 71 82 63 66 79 85 99 104 98 92 122 137 152 151 158
151 164 170 102 105 121 138 235 179 208 247 256 233 154 92 84 87 98 42 18 46 -8 1 13 34 62 96 99 116 104 108 95 75 41 45 55 61 61 71 120 120 114 149 134
66 94 148 209 195 204 211 254 238 201 208 141 134 218 198 179 82 29 -39 11 30 4 36 57 62 77 136 194 206 192 167 135 92 70 74 90 79 110 109 113 97 109 137 156
64 76 73 88 85 132 132 195 150 214 271 236 228 182 106 83 71 10 -4 23 78 76 113 161 142 151 196 231 269 269 262 235 188 152 124 96 73 69 69 62 69 80 88 88
6 4 34 69 36 22 60 113 150 183 221 240 204 102 -8 47 113 107 96 106 142 186 243 278 308 290 302 306 326 342 310 306 276 194 143 133 104 75 58 53 60 134 134 218

GFSCGP_con_3kmhel_027.txt.gz
Helicity
49 66 43 38 -26 44 34 13 -2 10 8 52 -5 -11 22 59 35 24 76 53 86 82 79 92 43 19 3 26 15 -7 -24 -23 -26 -21 -16 -11 -7 -1 -6 -12 -0 28 14 17
86 60 29 17 26 42 39 26 5 5 36 44 20 -15 4 37 49 6 51 45 59 63 101 76 75 23 16 18 17 6 -19 -14 -10 -14 1 -7 -16 3 -4 -0 24 9 8 6
65 17 -2 13 1 10 -31 -25 -14 13 21 22 40 13 -17 13 58 22 -1 39 32 74 135 137 127 48 26 38 37 50 9 -7 -11 -16 16 54 7 14 1 -13 -1 7 4 3
-2 -9 34 2 12 6 -5 -14 18 31 25 53 50 47 -23 -10 42 52 15 35 33 54 68 123 109 114 77 82 78 66 73 2 -5 -19 -21 2 7 3 -7 -4 6 20 16 7
40 6 51 20 18 4 5 19 27 33 33 37 19 44 16 52 5 50 20 21 34 37 49 102 125 101 107 72 76 55 77 22 -10 7 -2 7 -9 -10 -4 1 -0 16 56 15
7 31 26 23 10 14 12 39 21 21 31 25 6 20 -15 6 16 37 56 18 32 51 61 59 95 72 64 68 54 51 61 28 -5 30 7 12 13 -15 -2 17 19 30 25 59
46 17 29 35 37 19 44 13 30 -18 -26 -7 10 -22 -58 -25 10 19 35 32 24 45 29 64 72 77 72 94 90 91 100 62 55 44 28 39 22 -8 27 37 5 30 38 31
104 87 21 58 34 53 46 -5 27 79 29 -32 -21 9 -44 -19 41 34 55 16 45 52 39 48 79 91 94 114 167 87 112 63 49 55 61 62 74 19 7 30 30 32 40 49
98 36 34 77 38 15 91 -22 -36 1 42 12 34 27 -0 23 34 32 43 30 10 86 41 46 67 85 102 105 159 171 155 158 127 127 116 82 76 36 25 30 45 43 32 12
55 36 33 -18 39 33 58 32 50 52 54 -4 24 20 87 36 45 33 19 34 -19 20 64 57 37 70 96 87 137 171 162 198 175 138 136 125 99 71 54 63 66 69 45 43
74 58 42 67 116 104 59 61 43 31 22 20 29 6 -11 69 28 22 30 -0 -24 1 72 43 42 47 72 60 53 101 121 149 149 158 175 141 126 117 97 98 109 81 93 90
27 85 131 75 59 27 35 46 62 80 -35 -0 49 49 106 58 49 40 -16 11 -20 -4 56 41 47 25 46 51 62 81 85 97 145 135 150 178 181 159 158 127 127 139 111 105
177 143 192 83 60 51 29 43 38 32 31 26 38 42 46 70 58 24 -12 10 15 19 42 33 38 49 29 52 63 68 99 79 65 80 88 106 135 163 194 201 166 157 135 117
342 259 192 158 126 101 61 44 26 37 84 52 43 30 76 26 66 52 27 52 42 48 109 77 44 41 47 47 79 73 48 56 44 59 36 70 101 129 155 191 203 193 179 139
276 288 176 121 72 47 62 51 40 57 45 53 33 26 56 41 40 22 39 70 96 69 111 94 101 89 79 81 88 99 25 33 59 129 120 93 93 38 60 118 176 173 160 170
314 318 271 267 80 86 219 50 27 47 45 36 42 46 43 47 38 16 21 26 45 78 70 53 72 89 90 83 85 77 80 29 54 114 194 172 119 120 96 79 141 180 154 184
519 355 209 227 142 81 227 178 66 43 41 42 63 45 64 73 86 99 65 59 109 100 51 50 62 80 71 102 111 77 84 61 39 85 180 193 149 120 124 101 108 178 171 157
515 566 408 243 264 196 144 64 85 126 102 77 90 94 97 113 103 48 82 60 54 54 55 61 74 57 54 45 32 58 68 111 82 98 163 208 155 166 174 133 138 178 162 163
155 489 387 359 206 127 85 68 19 87 166 93 144 129 142 90 97 74 57 65 53 65 83 81 74 44 58 92 101 110 90 91 114 105 154 199 182 180 177 153 142 181 194 172
96 112 451 354 493 190 73 146 146 101 172 33 50 41 40 47 81 33 130 172 108 42 53 54 32 65 116 92 74 82 104 111 119 128 124 198 194 157 160 123 130 141 137 134
52 192 236 365 469 209 110 156 76 171 253 279 124 118 83 149 150 111 155 163 113 96 76 148 103 149 139 137 129 120 102 111 109 81 91 155 158 182 153 134 127 127 126 111
-26 65 199 216 308 437 92 55 128 178 262 402 322 297 358 342 262 141 99 83 88 53 11 41 88 50 59 75 106 92 96 93 124 128 108 130 131 131 120 134 152 142 137 129
153 134 94 79 127 87 102 174 96 96 253 320 377 338 243 211 200 139 37 46 56 72 75 54 82 67 17 83 101 97 99 105 119 116 111 108 120 109 99 131 152 157 157 124
158 147 130 195 164 167 179 154 131 130 161 194 162 175 163 160 149 163 149 81 33 30 68 49 58 84 59 80 77 131 140 135 125 106 93 94 104 117 118 128 131 130 125 127
94 119 83 162 102 159 183 182 131 184 115 169 188 108 147 133 116 80 108 123 89 16 9 69 66 88 79 113 176 189 192 200 140 125 114 102 87 97 99 92 97 102 91 82
29 68 91 87 55 60 87 102 68 184 170 71 67 135 193 193 164 183 130 42 24 72 97 114 135 84 94 137 207 204 177 232 246 179 132 115 99 81 79 89 77 53 47 94

GFSCGP_con_3kmhel_030.txt.gz
Helicity
27 32 42 12 -41 35 -2 14 -3 -4 -5 34 11 58 78 111 168 38 100 111 106 98 71 146 41 46 96 176 191 133 86 48 107 -5 -6 -7 -8 -9 -20 -21 21 89 32 32
57 13 25 -13 26 55 21 24 -10 -5 -12 26 14 1 46 185 280 -75 230 -20 113 81 120 136 108 91 72 210 225 156 87 72 125 108 26 -24 -26 -14 0 -26 -2 85 34 23
63 31 -15 -9 -5 -7 -18 -32 -9 -6 -1 13 43 41 -18 89 68 71 113 111 91 139 192 171 227 137 126 225 249 207 118 120 128 96 29 -39 -15 -25 22 -8 -1 68 59 33
49 -37 29 2 -10 -12 -19 -38 4 -1 2 25 27 54 70 -1 26 59 71 108 70 137 142 164 192 134 229 211 259 236 161 151 115 73 41 43 5 3 18 21 15 68 58 25
44 21 -36 28 -15 -4 -25 -2 9 27 38 40 28 62 42 37 -19 72 18 144 38 126 176 245 222 168 179 198 261 272 201 152 108 54 30 38 21 -5 -14 15 5 54 94 46
6 45 17 12 17 -12 -5 5 9 12 31 4 28 31 90 4 24 3 67 30 106 122 130 275 238 161 84 178 237 234 215 132 109 56 -5 1 44 -11 -3 -7 11 48 109 69
50 15 24 13 17 18 19 7 49 33 -8 -53 -38 -56 31 -5 134 15 26 51 50 117 112 226 258 196 151 166 270 240 253 172 112 79 42 33 23 0 -29 17 -13 78 87 136
109 87 -17 42 -13 45 13 -17 87 29 12 -23 -31 -10 -69 8 46 90 46 103 88 57 109 177 286 256 210 147 275 278 251 203 133 85 44 17 29 22 -39 -33 48 12 75 85
109 65 44 19 31 14 67 -46 -37 19 -10 16 2 35 -7 -3 26 44 42 74 91 74 68 146 244 254 255 188 238 287 265 202 141 109 76 42 78 68 23 4 -16 36 9 43
81 54 21 35 15 32 48 79 51 50 42 6 -7 70 197 -10 8 17 31 40 67 87 83 141 209 257 275 257 228 242 250 227 204 155 122 105 112 136 76 40 8 17 59 2
58 52 30 6 46 73 76 59 45 37 52 33 16 -1 80 125 59 58 49 3 32 51 128 105 186 197 241 241 196 198 200 194 149 136 140 131 109 108 104 63 55 41 29 48
34 66 61 38 48 43 41 48 61 87 31 41 10 57 116 71 113 48 70 82 27 35 125 113 150 190 212 251 200 179 157 138 148 137 112 112 119 118 113 107 94 97 78 59
215 96 118 105 46 92 32 43 41 48 42 56 77 38 90 170 65 34 26 27 42 34 63 104 141 116 161 203 201 196 181 153 112 95 88 83 94 104 106 118 122 127 132 114
165 171 101 226 102 96 101 37 44 34 79 53 61 64 97 124 103 58 49 61 66 47 39 140 108 136 122 176 217 205 194 141 128 124 93 76 73 77 78 96 115 137 167 174
216 208 182 50 51 25 81 47 23 55 43 49 10 31 82 65 100 81 78 91 37 55 101 162 74 182 136 186 228 189 183 198 144 130 159 140 115 94 96 98 90 102 129 169
391 299 234 197 86 90 117 41 32 35 16 26 31 11 130 105 81 90 129 131 180 223 118 111 138 131 149 125 176 197 184 193 202 181 210 224 205 152 127 116 125 133 143 127
460 382 429 358 192 127 125 99 47 32 51 28 19 4 169 102 75 133 96 114 100 126 145 175 117 64 62 110 143 146 158 138 148 170 203 213 262 276 253 170 148 155 157 140
513 526 572 305 269 340 69 56 117 51 47 36 41 28 24 58 77 136 123 106 103 136 128 90 86 122 154 59 85 164 157 142 102 95 107 181 259 349 367 276 182 143 176 195
137 492 516 385 294 156 65 79 93 137 62 33 43 48 119 173 139 181 154 142 122 81 79 78 67 64 32 65 42 115 96 147 140 75 50 116 244 322 402 364 290 184 152 179
139 167 366 413 381 309 82 49 76 27 141 182 222 186 141 122 172 143 256 314 219 176 140 131 161 123 68 100 67 98 109 145 115 101 113 166 181 259 327 386 321 240 173 145
48 254 321 361 434 163 384 274 125 186 208 262 246 148 148 167 278 280 270 291 271 185 140 125 170 260 134 159 202 219 159 159 120 150 153 164 180 200 261 296 281 237 190 146
-40 -4 282 318 325 292 216 129 226 213 263 379 390 344 298 309 254 259 215 216 209 156 106 89 88 138 163 109 132 170 140 136 152 145 167 173 139 178 196 227 243 206 171 142
117 120 72 208 261 85 84 126 80 135 185 301 411 486 478 353 327 304 145 175 207 136 96 117 140 141 141 63 144 146 145 138 127 157 189 172 141 164 144 168 187 186 172 161
95 200 196 168 222 93 77 76 74 77 121 197 260 374 397 429 437 395 169 239 287 244 88 105 179 161 162 139 133 104 149 151 146 179 167 143 138 134 125 143 138 133 144 155
107 167 210 241 178 183 158 149 109 124 137 180 144 262 277 341 409 313 176 178 252 178 122 109 113 114 126 131 158 165 174 211 162 217 180 148 118 111 90 93 114 110 81 98
131 156 203 201 134 146 179 126 65 80 85 109 116 182 203 209 187 256 134 113 171 192 121 106 80 89 114 149 147 156 128 164 188 120 131 107 89 91 80 79 74 69 132 189

GFSCGP_con_3kmhel_033.txt.gz
Helicity
48 120 3 36 36 108 103 103 61 44 13 43 17 -50 274 373 561 367 85 -21 77 67 66 96 93 132 230 265 256 232 218 118 50 20 23 -13 -33 -38 -46 -30 40 82 59 30
133 17 16 60 86 124 99 63 46 29 8 -11 43 -18 425 484 662 410 36 -107 -62 106 64 165 110 161 235 296 315 246 286 194 107 56 15 5 -36 -34 -27 -35 30 87 70 46
147 112 50 41 46 68 96 67 21 -29 8 6 17 107 288 207 360 82 220 -77 -113 225 150 208 185 208 271 320 328 285 275 252 178 118 40 -18 -43 -36 -26 -18 31 64 83 63
89 17 75 -7 16 30 24 57 17 -22 -36 -5 30 177 156 229 119 207 142 100 150 248 151 272 256 188 352 363 352 318 259 260 195 169 81 27 14 -16 1 27 8 92 88 83
94 131 -49 69 -9 3 15 42 87 68 52 12 33 33 175 208 209 208 113 90 211 -30 55 302 298 270 325 398 329 286 282 235 209 168 109 44 5 -27 -10 27 46 73 81 88
48 102 38 -46 35 13 23 29 43 68 57 53 22 20 111 156 225 188 157 231 202 166 339 150 352 270 294 379 380 279 227 212 199 183 124 53 19 -8 -23 -5 35 63 88 71
97 27 59 70 1 17 3 56 78 106 40 32 -25 56 53 86 97 128 376 275 316 97 111 152 254 305 268 374 378 364 283 216 202 153 124 83 39 24 7 -1 7 53 104 97
141 102 18 54 53 55 3 -54 151 161 167 80 66 -47 -115 -16 -2 49 213 265 224 142 148 198 335 375 287 381 411 401 306 259 239 181 115 99 18 -3 11 -20 -10 31 114 134
139 48 78 14 72 16 80 59 30 88 109 142 141 -42 33 -19 -32 -42 88 126 171 148 267 261 249 384 319 305 417 447 354 265 228 185 107 66 65 21 31 12 -35 -5 66 130
42 78 70 45 18 52 51 175 88 58 93 78 44 36 60 18 -51 11 69 170 214 285 271 279 271 274 332 315 379 429 418 300 238 172 114 65 105 101 40 17 -23 -23 21 77
149 -47 72 35 68 -7 116 139 115 75 47 33 43 -2 124 158 70 95 75 18 187 270 290 314 267 209 308 296 363 382 394 314 216 169 129 79 47 75 91 56 21 -12 -1 21
387 -42 -25 86 51 44 54 67 126 130 38 -26 -125 -103 -32 6 176 18 -14 3 107 178 320 363 259 166 263 259 349 345 358 363 269 186 107 48 33 46 99 104 53 38 3 43
495 179 46 39 8 77 16 98 81 162 117 -3 -49 -108 4 15 120 54 -21 -35 71 187 311 350 258 175 261 236 339 297 289 292 274 186 116 79 51 52 61 92 100 42 56 23
576 282 186 44 55 90 71 105 90 112 132 5 -51 -13 37 170 135 117 77 130 68 159 338 311 245 184 226 238 297 277 247 229 208 185 156 123 96 81 83 74 71 79 61 76
591 415 305 -6 72 108 84 103 104 97 99 89 -13 50 27 84 165 166 135 164 134 188 161 280 209 220 210 230 227 277 259 220 193 170 147 149 146 139 117 112 93 94 93 80
909 601 498 -35 -19 -26 137 98 130 80 59 41 56 35 141 104 221 296 302 310 279 272 238 291 260 267 246 225 245 266 299 246 218 202 196 164 158 145 148 135 134 120 106 105
1062 529 544 62 -36 37 -4 141 121 64 87 32 83 5 142 224 271 280 329 311 359 358 356 314 252 219 301 177 207 242 270 309 251 243 223 205 186 182 180 161 149 142 122 117
1126 843 463 184 100 169 35 3 185 76 103 61 11 67 177 218 370 429 302 241 281 352 344 370 297 177 244 210 129 236 271 306 291 292 283 242 270 266 243 244 229 172 139 136
572 648 476 389 273 175 115 84 115 160 297 303 51 60 305 440 620 651 534 484 380 284 274 269 241 212 215 119 120 101 197 281 312 231 271 296 342 326 318 329 341 307 235 168
373 466 493 409 449 321 229 313 241 145 413 524 491 528 404 418 609 511 445 485 501 386 291 272 260 191 190 128 117 148 156 138 168 192 230 279 295 314 362 394 407 422 380 302
449 454 546 519 470 363 397 217 41 208 257 419 656 763 667 659 420 371 398 512 460 409 341 265 279 240 221 168 129 205 139 118 146 179 203 217 244 275 316 352 391 432 414 349
137 377 444 240 566 419 416 231 268 270 237 330 576 725 686 614 516 392 424 482 541 530 297 238 192 201 199 118 90 143 206 207 149 138 167 159 197 214 276 318 314 342 356 320
201 61 265 355 83 -61 165 420 255 110 138 373 420 592 479 554 636 575 407 410 540 597 507 377 224 239 115 182 116 132 157 190 162 164 106 189 230 233 236 224 283 304 307 278
137 123 161 186 29 185 34 70 170 141 77 180 328 327 354 387 455 506 579 321 355 441 458 322 263 255 145 171 176 144 162 157 143 92 80 192 226 204 197 208 226 247 256 229
75 75 142 155 80 103 88 102 122 162 89 14 97 234 218 255 330 380 342 270 233 309 248 210 284 306 82 88 143 154 134 150 142 109 110 166 212 190 186 175 175 172 209 166
-7 6 -45 44 180 7 147 95 150 140 133 47 108 138 161 121 167 301 311 85 144 230 260 296 252 168 68 15 2 53 72 102 130 113 122 166 177 164 150 111 233 412 310 295

GFSCGP_con_3kmhel_036.txt.gz
Helicity
155 222 143 31 105 124 146 158 98 8 13 -9 13 281 334 258 165 213 120 3 204 111 28 20 -20 -31 -53 32 106 141 138 97 75 71 59 -5 -26 -29 5 9 18 10 16 39
252 156 45 151 147 170 143 168 100 23 22 12 53 181 332 266 239 339 246 77 156 65 160 75 19 3 29 90 129 180 204 175 103 76 61 21 -7 -50 -42 5 1 33 9 32
168 190 80 108 134 168 163 146 107 48 -1 15 29 88 224 144 281 319 64 51 222 163 217 204 121 106 79 177 221 245 237 210 138 67 26 42 -5 -32 -77 -35 -1 26 19 35
124 7 122 93 96 133 138 108 56 48 22 64 33 101 176 279 311 128 0 59 321 128 188 219 226 177 196 241 280 297 263 213 162 103 29 8 7 3 -51 -50 -6 22 43 32
130 100 57 87 87 108 59 93 69 28 37 -34 -22 76 128 322 287 232 45 5 148 200 163 182 307 353 393 356 330 335 314 237 205 151 85 52 17 -4 -42 -65 -33 6 43 48
83 145 92 -23 24 55 81 90 107 46 24 51 -27 33 32 299 196 201 55 21 93 49 42 139 225 298 377 430 412 347 327 273 231 184 112 84 51 -5 -23 -50 -25 20 45 54
63 74 88 99 55 19 38 157 150 74 59 88 -63 -6 39 87 237 76 231 132 16 40 73 163 185 213 267 379 413 378 326 279 237 194 144 101 73 29 16 -8 -6 22 60 67
121 76 73 95 111 52 64 92 185 132 151 54 -61 69 48 -42 167 161 226 307 185 100 56 132 209 293 342 385 386 390 301 256 236 193 157 122 74 24 4 -10 -1 23 49 64
160 79 41 35 47 84 57 66 76 101 135 32 28 -16 -28 24 69 112 239 188 150 100 29 42 211 247 316 376 409 393 360 244 241 186 143 104 78 41 28 10 -8 3 44 46
211 181 51 209 43 38 68 66 132 132 94 131 46 -40 -34 -5 -88 20 65 206 167 112 44 54 170 247 276 348 433 418 391 293 237 182 139 121 103 86 55 12 -1 -3 5 37
449 271 149 -10 112 28 131 112 98 123 88 71 11 -48 34 -29 -62 -65 64 90 162 184 139 118 134 158 265 270 336 372 366 285 198 176 133 106 96 79 61 44 17 8 -6 12
495 294 138 122 98 108 71 105 129 111 148 117 8 20 13 83 81 36 104 64 118 144 108 105 205 94 192 212 263 320 323 306 214 201 142 107 71 44 39 46 28 15 4 -14
310 312 273 74 -42 52 65 80 95 173 174 101 19 -52 -92 -100 26 69 149 229 62 40 71 150 275 125 163 185 212 291 288 278 247 159 110 80 63 53 40 50 49 20 12 -2
137 297 285 328 223 211 44 62 91 122 154 114 13 -100 -106 -57 168 107 65 54 251 90 320 277 249 132 121 195 178 282 273 233 241 190 139 111 94 86 75 55 51 39 16 10
235 449 286 375 377 340 290 62 21 139 109 101 8 -64 -142 33 54 81 48 127 141 98 253 277 256 153 88 196 129 226 187 222 256 215 178 152 136 123 101 75 68 63 58 39
267 482 321 210 220 177 216 128 132 23 104 120 60 46 -41 0 30 133 137 171 161 172 187 239 245 217 109 172 150 217 169 172 236 227 211 176 145 146 146 122 95 90 88 93
413 536 327 332 364 158 177 194 136 61 87 98 111 68 45 144 319 386 318 222 200 225 172 175 219 211 139 162 199 188 196 175 166 159 156 155 155 142 152 156 134 122 123 111
563 800 467 328 441 254 139 242 369 266 343 327 267 111 79 210 429 654 655 554 496 425 323 219 180 179 196 151 130 121 181 152 181 151 123 110 108 102 96 96 114 99 91 107
201 791 644 386 387 305 332 368 522 419 368 438 476 17 207 469 724 830 850 781 633 481 476 454 309 174 121 149 139 158 165 184 160 177 181 202 196 160 129 127 128 127 106 83
271 705 643 580 416 329 388 502 418 180 509 749 734 514 397 402 732 682 689 748 793 595 487 420 411 396 364 293 198 184 180 188 164 196 213 270 332 260 219 196 195 203 202 197
630 1110 596 604 448 349 546 359 202 401 420 685 908 816 744 705 692 714 615 687 650 585 563 454 418 404 370 301 220 221 195 95 119 217 247 289 327 319 297 318 305 286 281 262
511 837 707 706 496 417 459 421 600 503 158 539 762 758 823 846 847 844 779 721 663 649 610 489 348 356 342 310 278 263 231 162 113 162 233 290 312 313 296 310 319 294 282 264
147 218 624 537 453 284 241 632 552 338 405 402 551 586 448 638 791 768 864 776 671 604 544 476 392 332 326 291 250 271 313 285 198 115 118 166 217 243 262 256 257 252 244 233
47 53 257 522 376 275 169 406 474 310 526 392 351 453 364 431 595 641 630 700 650 494 411 358 357 352 352 272 223 178 192 214 216 212 145 105 121 158 216 223 227 214 220 213
-5 -26 110 230 103 130 66 144 317 377 326 388 213 247 284 280 380 434 528 528 554 491 412 313 256 210 219 222 200 111 98 120 161 180 162 118 112 157 257 383 311 214 202 204
-85 -33 -64 66 18 10 82 34 72 334 282 276 302 200 290 292 362 352 339 350 376 433 351 276 231 182 183 167 164 140 96 80 115 160 143 97 92 115 212 286 305 406 335 257

GFSCGP_con_3kmhel_039.txt.gz
Helicity
199 271 146 63 106 177 175 151 60 31 17 71 25 86 209 259 248 138 165 104 81 57 6 -7 25 23 17 -7 -4 -31 -24 -26 -36 -45 -46 -26 16 -1 12 -16 1 4 18 29
298 194 57 98 143 131 163 182 126 -10 32 74 65 56 190 313 340 266 258 124 -3 -12 -18 -34 -24 5 8 8 4 -8 8 -3 1 5 -5 -2 3 41 5 -1 -10 14 19 31
247 180 113 137 110 133 95 126 117 32 67 56 31 56 89 198 196 187 40 69 16 -20 18 -3 -22 -9 7 -11 23 17 29 31 50 48 55 56 34 27 17 23 16 1 13 29
144 78 122 198 118 146 76 114 101 79 7 64 71 42 102 154 139 112 39 30 115 55 -26 13 35 5 25 33 12 72 74 84 87 92 90 51 24 7 -22 10 13 -4 3 25
126 72 111 94 115 151 91 123 141 97 11 18 37 147 103 109 53 96 104 44 89 118 66 69 72 171 62 82 52 56 117 107 103 143 115 63 32 4 -6 -8 -17 -9 -7 10
153 107 105 57 72 89 115 104 96 99 53 -31 -14 147 160 114 34 76 125 128 121 108 145 103 90 124 165 164 168 99 130 146 132 145 124 75 43 20 9 -31 -19 -19 -21 -10
105 63 133 95 96 95 119 169 174 138 124 -17 3 89 86 12 113 232 260 198 220 137 110 139 99 116 132 206 223 189 163 153 159 152 143 96 78 60 38 7 -11 -10 -17 -19
103 125 78 135 115 125 116 157 275 284 230 68 3 53 181 -92 -40 154 241 189 129 84 31 146 149 193 196 235 272 263 227 162 185 181 164 122 90 62 26 23 3 -5 0 16
110 85 292 64 117 122 128 126 123 158 232 155 75 65 143 136 44 36 146 124 88 82 27 35 131 201 261 268 319 323 261 231 220 217 174 131 108 72 28 12 20 9 3 3
148 -82 158 161 52 82 110 143 146 157 163 151 151 104 33 152 82 47 59 40 74 72 17 16 49 103 210 282 338 365 339 327 322 238 192 150 120 98 51 18 12 16 0 9
211 20 252 174 145 53 165 192 174 126 139 116 85 -17 -8 84 90 29 36 76 125 184 142 29 74 119 139 257 287 321 328 346 298 267 197 147 103 75 52 22 7 7 17 16
203 182 46 247 219 299 60 148 153 156 135 132 32 -95 107 18 90 115 -7 48 107 166 177 113 98 183 120 177 242 282 297 325 327 286 243 161 118 84 44 38 27 25 20 25
67 260 132 134 95 228 112 118 118 111 176 97 61 -97 -9 64 128 55 81 -9 33 59 91 122 126 197 99 151 240 245 260 286 313 282 195 136 95 87 41 37 44 43 41 18
-113 225 207 233 312 385 368 335 125 88 146 101 38 -41 85 30 104 171 140 61 -21 89 42 74 158 231 153 132 167 237 226 224 238 264 185 134 89 74 84 65 44 52 61 54
-16 265 220 153 302 464 484 361 347 150 84 96 29 43 19 -3 -151 -100 -146 40 14 68 148 35 159 269 208 128 140 193 196 172 184 212 165 117 162 116 74 55 55 73 73 65
16 197 217 102 195 305 268 295 240 184 82 58 -1 60 -48 -9 -52 -111 65 127 77 112 122 151 126 247 239 160 145 192 214 199 236 187 160 157 176 89 87 78 77 87 100 87
56 277 245 331 239 218 232 298 343 199 294 156 16 -21 44 51 -2 -72 159 83 39 -5 52 91 194 192 207 166 144 160 225 212 191 103 97 124 123 128 127 114 91 93 97 103
85 319 465 403 447 212 169 347 505 368 425 279 155 78 61 45 64 159 229 158 92 10 -3 55 148 157 154 146 100 160 189 200 192 164 115 99 103 116 117 117 110 89 83 89
41 294 588 486 492 259 346 551 580 556 427 555 467 357 161 117 233 317 539 468 252 204 228 190 112 132 202 178 141 203 149 163 220 176 155 149 137 126 118 108 104 104 102 84
94 273 486 606 526 370 392 635 667 232 417 705 565 455 371 182 221 349 677 666 608 427 349 275 186 212 196 198 144 159 156 140 99 106 152 157 170 153 129 120 90 69 49 47
190 419 587 660 605 395 462 648 499 416 425 802 661 502 590 455 428 455 606 623 704 657 583 491 342 261 180 141 45 24 104 79 78 136 167 190 161 187 162 168 176 185 175 155
235 546 573 559 534 483 416 467 277 522 601 543 745 652 486 572 620 663 679 659 724 774 725 641 559 486 379 287 231 275 237 181 143 157 161 183 199 181 218 220 189 217 228 204
336 461 610 529 428 453 373 512 513 483 600 634 781 579 454 493 625 725 672 693 631 655 686 608 557 548 552 465 355 365 330 249 160 149 145 177 206 236 225 239 236 267 217 210
50 111 360 672 444 360 427 413 495 487 597 646 759 612 365 360 424 570 615 562 635 586 540 442 395 395 421 411 361 304 299 280 235 198 146 118 156 192 198 208 199 202 173 172
20 23 199 528 344 283 217 390 432 547 564 635 660 587 452 258 260 324 469 545 506 578 529 456 382 322 284 263 263 267 251 235 254 263 261 215 151 141 210 281 245 192 171 166
108 15 105 281 146 202 225 275 246 331 734 618 487 536 452 283 259 302 348 494 460 443 498 482 416 336 269 209 169 157 146 146 159 173 175 173 151 157 197 231 249 341 280 252

GFSCGP_con_3kmhel_042.txt.gz
Helicity
224 266 145 20 133 156 173 107 114 108 109 106 64 83 32 96 68 84 140 190 163 180 77 1 -32 -30 -12 -21 -32 -35 -34 -17 -13 12 8 -2 -8 -17 -9 -30 -23 -16 13 22
312 188 78 102 91 111 131 141 114 99 90 93 72 40 68 134 177 225 247 196 133 94 120 30 6 -32 -12 3 -9 -27 -26 -21 -18 8 26 28 7 5 3 -36 -26 -14 22 18
250 152 134 117 123 93 68 81 97 88 133 115 72 62 62 49 106 134 116 125 124 146 153 112 6 12 1 -2 -5 -10 -17 5 -21 16 66 66 64 42 20 14 -6 -4 23 34
159 92 131 154 123 148 80 76 47 66 104 136 144 21 86 109 81 98 121 126 104 119 102 89 59 5 3 0 8 -1 8 35 -6 -4 -7 -7 26 16 13 24 12 -5 7 26
197 77 147 140 96 134 71 67 61 57 63 49 156 146 22 59 72 24 75 101 97 121 129 110 73 69 24 18 -2 11 15 -3 4 8 14 9 1 -15 18 22 13 2 -1 6
82 86 109 159 60 104 91 93 108 95 92 14 25 129 64 80 -46 -14 52 82 84 105 130 126 55 12 12 -1 25 12 12 -17 32 36 25 23 30 33 35 34 20 27 20 5
98 49 82 116 159 107 107 129 153 154 140 -33 17 73 91 55 31 25 50 64 100 148 126 80 104 52 35 32 -4 8 -9 -8 -4 19 33 45 75 76 66 60 62 58 38 23
-56 26 40 145 79 166 139 155 294 240 179 36 14 77 93 -59 64 3 73 101 166 189 152 124 105 118 69 97 62 33 25 2 90 59 52 74 88 81 66 54 52 48 63 30
-14 -47 119 167 114 52 174 168 167 151 115 31 90 95 150 -2 45 13 29 146 129 160 209 178 124 130 107 105 150 112 62 40 146 124 138 89 86 99 64 57 33 29 27 6
20 -117 21 69 142 103 75 98 193 222 138 47 104 185 92 126 41 50 39 128 133 200 219 209 238 137 136 148 151 163 141 132 181 218 191 186 169 125 85 64 35 17 6 -18
-26 14 -46 134 156 136 135 168 164 212 213 104 56 91 139 76 75 54 1 61 98 175 200 203 137 179 183 116 163 196 183 173 211 218 219 187 191 169 168 80 49 34 1 -4
-23 -37 -78 27 181 245 257 161 181 194 178 136 57 38 69 92 60 77 -3 45 71 170 206 180 99 145 260 263 240 243 222 194 192 228 247 223 216 224 177 128 61 33 25 17
-69 -74 -58 -26 29 69 153 97 151 173 143 97 124 65 90 4 138 69 53 11 63 94 165 183 124 151 181 253 277 284 240 212 220 234 237 213 211 221 199 147 114 70 28 13
-6 -46 78 143 312 337 310 298 142 151 155 81 85 22 52 53 47 103 95 46 -2 47 134 190 179 139 184 234 306 325 287 255 244 247 240 225 199 209 224 211 198 80 45 17
-23 45 66 147 295 304 419 332 346 170 165 93 84 11 35 67 18 54 75 189 173 106 122 183 205 218 147 221 299 310 279 283 262 253 240 186 221 224 226 203 142 113 57 40
3 44 61 38 171 219 349 394 315 241 139 150 61 -5 -10 -14 29 64 39 38 92 83 95 150 221 248 210 230 288 337 309 296 283 253 220 227 223 228 193 182 141 114 62 57
57 32 -9 -50 87 180 271 304 270 257 319 239 35 -18 75 -9 17 73 81 30 28 -19 10 61 198 234 229 252 287 277 330 338 283 250 187 192 206 187 164 151 157 52 59 91
85 128 17 159 219 304 183 248 371 286 448 447 191 137 96 -8 -49 -8 40 -5 42 32 45 102 169 213 200 220 210 225 283 340 279 202 155 144 154 139 134 137 106 90 35 63
70 114 81 246 271 247 293 296 442 509 439 547 443 295 237 113 100 47 136 66 92 84 96 128 50 110 219 212 223 251 232 276 263 184 153 136 146 120 122 113 90 88 86 95
132 56 132 313 461 334 342 424 410 452 415 585 648 433 324 176 82 95 190 92 110 138 143 34 39 118 178 186 247 273 210 204 189 160 152 153 162 154 150 135 126 129 126 102
100 119 241 569 530 284 454 443 426 342 367 512 664 626 402 256 219 270 246 170 138 168 221 197 174 169 210 223 235 197 175 94 141 141 128 142 160 160 149 136 132 134 123 107
107 213 317 370 414 399 463 405 328 350 432 425 648 746 550 417 485 487 451 346 342 332 384 351 310 301 257 190 206 184 97 126 143 137 155 126 146 150 145 133 144 141 148 147
153 195 286 428 344 507 324 444 489 585 537 540 631 776 615 470 509 540 609 560 535 605 605 527 440 346 346 304 236 226 143 80 112 118 71 115 119 138 152 162 146 148 149 145
135 124 308 517 523 452 404 470 533 534 605 576 586 662 669 551 456 528 551 589 603 601 603 583 521 526 481 407 334 246 188 134 123 131 115 131 139 161 172 181 169 135 148 151
155 187 238 568 440 373 459 506 465 527 411 553 557 622 720 678 441 425 488 557 512 532 558 511 491 452 440 385 335 301 270 229 205 172 145 139 160 169 236 271 244 190 198 186
94 131 160 381 336 249 420 456 460 479 487 441 462 577 654 704 644 478 470 528 515 430 438 469 455 407 390 332 286 260 239 211 178 160 153 137 126 127 154 188 229 282 210 204

GFSCGP_con_3kmhel_045.txt.gz
Helicity
236 198 92 60 100 94 164 94 101 91 85 59 14 64 40 27 36 33 62 115 91 91 56 6 1 -14 -32 -38 -31 -25 -11 -8 5 0 12 13 1 -4 -1 0 -5 -7 -2 8
239 128 72 83 67 66 88 137 129 139 161 103 49 46 31 29 43 65 95 101 137 63 47 14 -5 -7 -29 -31 -27 -25 -17 -6 7 17 42 50 12 -5 -1 -1 -21 -13 1 4
174 165 53 87 68 63 46 64 107 174 197 127 90 41 43 12 23 1 8 28 50 80 129 58 10 -5 -18 -26 -32 -19 -14 4 21 26 39 55 38 32 7 6 -8 -16 3 7
141 102 85 71 71 55 53 38 68 126 196 150 93 28 25 17 -10 18 16 38 55 61 64 85 65 27 2 -14 -19 -11 0 9 25 50 19 16 22 17 6 3 0 -13 3 18
125 90 87 87 102 65 48 21 33 70 120 164 196 114 43 -5 -16 -41 -17 44 47 64 75 117 130 67 8 4 -1 3 24 23 10 13 25 8 4 -8 4 5 -3 -3 -3 11
129 172 171 90 50 38 107 58 60 67 72 81 47 116 -7 -28 -71 -4 31 24 45 72 74 68 83 62 19 22 9 19 44 18 10 -32 -2 -2 -13 -29 -10 6 0 3 9 10
145 113 99 79 62 55 67 146 153 141 129 35 43 76 26 32 4 9 1 49 64 89 87 77 91 75 64 35 24 31 57 -1 -16 -30 -15 -26 -23 -12 -3 1 1 16 24 24
116 90 138 223 109 81 74 90 241 210 165 82 61 51 -13 -5 52 20 -2 17 33 48 72 85 101 124 85 79 75 61 32 3 -13 -22 -49 -18 -25 -29 -18 -10 -3 12 24 35
109 80 155 202 233 283 99 55 83 219 147 93 109 49 120 75 29 -8 20 27 19 33 54 100 136 107 131 65 69 50 53 30 13 -23 30 -19 -23 -23 -40 -4 4 11 25 17
56 45 75 138 123 97 165 92 114 178 129 55 57 -3 -17 10 41 21 19 22 29 45 54 57 118 177 136 87 87 77 62 32 20 15 47 26 8 1 5 -3 14 26 35 9
5 -9 -21 72 137 135 93 158 118 95 113 83 70 79 36 -20 2 30 13 19 25 41 69 89 102 157 215 87 117 107 82 70 67 50 60 57 27 5 35 3 30 35 51 7
30 -14 -73 -9 75 146 219 234 136 144 114 84 152 76 31 -23 -27 9 14 21 11 34 57 155 124 95 102 150 202 105 144 116 125 114 108 110 106 98 89 103 74 71 75 54
-11 4 -113 -127 -118 48 83 116 134 165 75 50 74 88 103 37 29 32 63 19 27 34 29 56 72 69 108 164 193 191 179 68 96 151 118 105 108 94 94 103 99 95 87 53
38 55 -40 -50 110 232 332 219 271 267 98 81 55 59 62 80 89 66 89 79 64 -3 38 45 58 99 105 157 181 197 192 136 126 116 106 131 135 130 105 113 115 102 101 64
59 35 6 46 87 172 328 382 329 324 290 100 71 54 30 26 25 75 93 99 59 44 33 7 58 146 171 121 159 191 210 210 166 177 157 151 144 136 125 124 123 110 104 69
132 96 126 127 152 110 168 303 259 282 263 243 215 133 95 74 80 -7 -17 25 93 74 101 57 41 111 165 186 192 192 235 232 232 203 165 168 169 161 139 134 133 121 99 88
123 81 37 83 153 147 94 201 234 284 144 173 116 148 159 113 68 78 60 54 102 119 117 121 93 88 152 177 207 215 218 256 220 197 174 172 170 158 139 134 134 115 93 75
95 69 43 -43 142 94 29 56 178 212 228 318 195 101 117 101 42 37 56 75 84 90 125 122 87 63 104 138 119 146 140 248 222 181 170 162 157 143 128 120 113 103 76 68
-33 81 44 78 116 167 53 205 167 127 330 465 366 139 138 93 33 25 33 76 80 78 73 111 106 50 82 153 199 186 161 215 201 176 167 172 155 113 102 92 84 73 63 52
-18 -50 36 9 155 144 213 267 288 352 274 460 418 425 293 147 77 79 142 154 104 95 76 91 114 90 85 137 185 179 136 195 156 164 168 148 116 99 91 88 80 83 76 45
49 42 57 59 82 47 203 292 279 353 299 407 457 552 406 279 182 166 120 116 78 85 166 180 97 183 205 213 213 166 112 102 73 98 117 126 100 87 79 80 73 55 42 35
28 26 122 152 67 197 383 261 256 290 360 411 469 628 545 438 380 316 245 207 206 195 216 219 217 162 87 122 146 142 125 116 88 111 123 121 110 76 54 60 53 49 47 25
11 13 23 -1 34 249 389 441 368 382 441 563 551 612 674 553 575 484 413 405 389 410 304 232 178 185 194 157 148 140 149 131 104 70 108 96 72 44 52 37 27 25 34 35
117 114 95 168 149 235 484 495 475 484 495 545 509 542 594 721 614 541 556 536 490 490 549 373 264 280 265 247 190 148 176 111 107 103 88 76 49 43 32 35 40 41 41 49
151 199 184 258 312 252 401 533 555 519 437 410 513 501 554 643 731 584 581 638 528 514 580 532 509 456 429 364 320 274 295 153 106 114 116 88 88 74 66 64 94 82 72 73
48 141 161 270 238 206 352 533 479 418 431 364 361 462 553 529 608 641 557 589 579 521 550 556 534 447 385 344 313 319 339 313 256 188 154 139 128 114 127 164 194 261 249 190

GFSCGP_con_3kmhel_051.txt.gz
Helicity
48 70 48 16 -1 5 69 11 12 21 21 15 10 52 -6 44 31 65 43 36 35 53 43 28 -13 4 8 16 10 18 38 49 26 -7 4 8 3 13 1 -7 -4 -6 3 6
92 53 34 19 17 28 56 69 45 19 33 50 57 26 70 62 51 72 46 43 25 28 50 44 -2 7 11 24 11 23 58 61 -7 25 21 15 11 -7 9 3 -12 5 4 -2
45 47 43 38 46 60 54 44 40 33 68 45 27 89 38 78 76 70 46 57 40 37 72 54 30 21 18 34 15 26 66 67 23 17 39 35 20 27 4 -6 -15 -4 -0 -2
44 17 53 44 58 64 62 26 83 50 66 87 59 62 35 61 30 87 54 70 58 37 41 65 52 26 42 47 23 50 63 80 48 30 -6 15 8 -10 -7 1 -4 -17 -7 -4
52 52 45 92 53 76 66 29 34 80 96 79 85 60 56 28 150 61 55 54 68 48 55 97 72 85 77 74 60 50 71 81 78 35 32 58 10 -4 -18 3 75 11 -22 -8
100 60 50 41 35 49 36 55 69 90 89 104 86 68 56 68 63 53 72 76 60 62 58 79 87 72 49 81 93 91 97 85 97 67 -7 63 10 2 -4 -5 -7 -21 -13 -7
41 87 35 52 79 33 70 123 147 148 149 99 54 106 65 44 98 8 93 77 82 79 54 60 97 81 99 108 117 141 158 97 106 96 26 78 73 -21 44 28 -4 -16 -6 4
46 85 31 36 72 49 52 88 151 143 143 82 67 88 78 35 32 218 71 109 80 88 77 83 86 84 116 124 169 161 194 136 105 123 97 73 103 57 -11 13 10 -4 -6 -11
66 46 149 206 77 86 58 69 44 62 37 46 53 42 37 34 38 52 3 99 50 82 67 86 86 90 101 84 172 174 213 192 155 107 137 135 117 -17 14 -10 -16 16 3 18
154 218 79 46 132 94 191 91 71 87 173 155 49 38 71 57 51 49 39 37 77 54 62 65 81 92 98 90 101 145 147 197 187 166 160 154 126 94 41 78 52 -23 22 22
205 169 103 78 72 60 44 114 134 81 79 108 107 65 57 42 44 45 48 47 46 39 70 50 81 95 81 75 63 95 125 137 124 138 160 146 136 95 91 97 56 14 29 45
83 204 147 97 24 32 55 86 41 148 172 95 68 70 31 47 47 25 50 37 33 34 46 70 54 70 88 71 71 73 84 94 113 118 159 149 169 143 105 37 57 87 13 39
96 135 154 153 115 115 170 152 141 97 63 89 89 80 -7 69 98 110 49 35 38 34 33 75 45 74 73 86 82 72 65 71 73 90 114 138 120 143 119 99 71 67 77 65
169 213 190 186 114 220 150 28 80 83 98 109 79 88 21 60 59 45 43 47 21 32 43 83 56 67 60 68 119 120 81 45 61 82 64 106 131 134 124 128 97 86 80 72
83 122 150 176 225 175 290 318 190 225 197 154 102 81 119 98 113 63 8 23 50 46 37 54 57 91 127 105 180 201 66 73 63 130 92 121 140 140 154 130 117 97 84 77
22 98 166 241 109 178 214 211 240 274 251 252 205 196 118 100 150 96 146 37 19 88 135 110 85 65 75 121 159 192 121 56 58 164 154 154 162 142 150 159 150 121 99 78
34 48 69 118 66 61 186 218 171 188 180 177 179 154 136 156 138 88 92 24 44 29 40 71 89 49 47 73 117 89 151 74 93 130 190 166 197 157 152 171 181 153 128 111
42 47 55 73 89 185 73 53 55 100 85 60 121 114 102 89 121 65 71 112 145 165 159 140 107 77 100 79 65 59 70 102 47 119 196 183 215 181 179 167 178 180 175 139
17 60 120 87 90 76 70 72 77 114 210 176 212 218 86 83 103 194 73 44 70 89 109 74 75 94 162 157 100 102 70 112 44 109 145 227 215 226 204 198 174 177 178 163
-15 13 141 99 79 81 53 48 193 59 4 101 133 76 105 83 95 184 33 99 62 60 85 108 87 69 83 123 138 95 90 96 91 55 120 179 207 211 228 237 220 200 186 180
-42 39 -16 -14 23 64 69 69 31 25 30 188 239 66 32 98 85 58 85 108 69 52 48 73 90 67 66 88 88 94 91 98 116 102 134 138 152 150 180 193 231 228 205 175
-7 -0 16 -35 -55 -2 190 96 31 85 51 45 633 69 97 103 94 147 104 82 46 69 43 42 114 81 76 79 97 92 97 144 164 131 127 109 99 62 88 125 172 163 149 144
8 -13 -23 -24 -29 128 99 8 3 43 105 301 348 279 213 182 221 181 221 102 45 38 70 88 217 173 83 66 96 117 98 189 222 191 165 118 127 73 106 130 156 163 146 118
24 3 3 -40 -3 -28 -43 -1 7 61 176 60 422 486 245 151 172 224 275 196 183 192 206 245 266 244 277 279 76 94 170 240 247 207 157 127 163 106 106 107 112 120 139 114
36 41 73 67 41 127 35 -2 47 127 86 121 391 614 494 291 288 366 383 410 465 491 516 594 472 417 496 535 607 393 177 202 191 171 164 167 114 103 101 126 101 95 216 146
23 16 62 92 42 4 45 34 83 121 277 228 292 408 540 515 470 391 448 492 623 731 627 741 662 566 612 678 686 761 706 246 184 154 182 131 83 153 133 219 294 437 231 161

GFSCGP_con_3kmhel_057.txt.gz
Helicity
96 102 52 24 17 -10 55 93 36 8 6 136 278 317 277 109 110 76 -41 34 64 -41 -135 -81 37 211 290 251 178 151 79 6 12 -68 -72 -13 -30 -33 -43 2 18 25 29 14
111 60 33 33 29 35 65 121 109 59 47 52 415 304 164 199 217 160 -49 -31 153 17 -59 -55 43 237 314 251 175 176 136 64 28 -44 -65 -20 -28 -11 -18 -17 -2 0 61 18
86 74 -17 7 35 73 94 106 119 97 90 -37 329 417 323 129 113 217 147 166 107 165 37 -46 68 190 292 272 178 168 161 102 55 -39 -55 32 -13 -33 -40 -20 -5 -16 61 23
66 64 62 105 55 43 91 80 92 115 92 26 70 76 112 192 220 315 402 301 115 27 114 75 42 174 276 285 235 189 178 107 70 -18 -88 -46 -25 -21 -14 26 -8 11 20 11
68 56 86 82 67 2 50 64 58 93 59 97 25 52 57 252 242 250 492 146 5 8 219 181 147 131 278 309 238 206 192 106 49 6 -54 -59 -40 -8 0 9 6 8 -8 33
126 43 22 77 60 27 -8 69 104 49 65 63 60 98 44 214 202 305 364 77 -25 -95 51 265 192 128 269 322 267 223 207 124 70 6 -54 -63 -39 -25 -13 -1 16 23 35 13
162 127 87 64 77 49 61 103 151 104 122 44 32 85 105 1 176 417 377 99 23 -46 20 313 278 181 215 309 290 240 239 170 102 16 -34 -72 -52 -46 -21 -18 22 37 18 4
205 199 113 81 135 141 91 84 174 127 87 28 57 67 56 48 232 365 387 178 69 21 226 211 360 263 231 322 332 256 220 198 146 100 0 -56 -60 -58 -41 27 26 44 23 15
158 188 46 138 48 97 104 156 77 111 86 98 84 59 84 10 135 215 250 159 45 239 314 343 244 320 286 293 348 325 244 202 188 135 95 12 51 -82 -73 -36 21 -5 61 20
172 143 101 129 118 75 51 95 174 137 108 121 119 96 31 25 -56 284 359 227 299 489 284 328 353 141 125 242 293 283 248 205 185 139 94 98 54 40 7 -40 -18 23 -1 51
67 34 46 124 182 116 121 142 109 119 163 87 72 31 -67 28 -21 190 371 330 393 422 370 174 114 15 187 95 187 272 324 238 158 139 105 85 76 85 88 32 -33 52 27 73
197 118 55 65 89 160 200 96 93 160 171 183 155 19 -107 -146 -21 24 186 243 315 485 375 236 48 32 22 85 173 235 278 347 240 173 140 115 122 120 50 104 38 -7 50 74
213 136 126 64 -14 18 135 99 55 107 137 187 198 60 -53 30 132 236 354 307 126 271 446 351 -60 -73 -48 43 132 146 230 310 290 209 158 133 114 108 78 57 109 68 35 -17
208 167 115 106 284 250 166 232 188 136 116 138 142 95 29 -55 -29 134 108 252 263 191 274 96 4 -98 -216 163 342 34 156 254 282 234 189 158 119 109 99 106 84 129 83 77
176 109 122 110 104 194 287 303 279 267 242 172 209 197 -36 -58 -49 -52 21 -17 -8 139 91 54 68 -70 -109 -12 236 181 137 243 248 232 219 195 153 115 104 105 110 83 126 73
169 88 62 90 60 78 108 281 360 355 239 259 224 239 -62 -61 -40 -26 -2 -32 -26 83 140 133 236 54 74 63 71 145 199 173 227 239 230 200 181 152 124 116 116 114 113 144
131 104 86 36 99 151 102 57 221 299 360 208 209 73 -75 -102 -42 -17 -104 -100 29 123 191 223 283 3 116 294 81 66 106 30 277 226 232 209 186 173 164 152 138 124 105 122
39 66 34 6 23 75 82 77 155 203 226 272 223 154 -150 -151 -34 14 -27 -147 -109 75 307 76 174 37 44 148 128 24 91 152 211 286 273 255 213 200 204 191 158 130 125 123
-2 -9 107 51 28 29 28 63 169 206 8 106 99 88 -54 -165 -94 -64 -31 -4 -90 63 134 180 5 69 15 -44 73 83 170 133 136 44 295 328 279 210 205 197 192 186 179 151
82 80 84 115 83 56 52 -12 91 37 58 104 -29 84 169 -88 -259 -248 -21 -85 -34 29 110 9 -61 -30 87 -16 -24 -7 236 -14 -72 59 181 349 317 271 251 236 210 194 175 154
-14 -42 -44 -12 53 51 109 127 89 61 28 167 117 4 153 31 -110 -215 -178 -138 -114 59 58 -116 -154 -43 197 57 23 13 1 -109 -74 -112 14 367 355 319 284 249 236 219 205 186
2 -43 -35 -1 -47 -3 159 133 137 125 4 52 101 85 56 19 -12 -127 -299 -189 -90 23 67 -159 -120 7 102 21 17 37 116 87 33 79 158 238 361 292 287 305 285 235 228 205
36 -14 -27 -1 21 -4 -7 -33 26 20 -9 -56 -15 -13 -13 -17 -13 -126 -260 -224 -40 -9 -39 -20 -213 -175 -32 -42 22 102 107 48 102 100 141 222 306 311 267 296 282 277 246 209
114 122 1 12 -18 -62 -49 4 24 -17 -52 -42 -76 -71 -89 -83 -75 -145 -170 -107 -35 -86 -28 57 81 -7 -104 -25 8 58 83 63 97 123 100 192 238 309 281 285 278 287 253 213
85 96 125 118 42 14 -44 5 -24 -9 -8 57 53 -22 22 2 -14 -90 -61 52 30 66 20 37 78 52 -58 -52 19 35 16 81 82 69 78 123 226 308 304 332 339 290 252 262
92 92 100 103 88 -41 -8 -11 -15 -11 18 80 202 57 45 43 93 111 85 95 135 119 79 102 109 71 46 -14 -5 30 39 75 88 91 82 102 208 286 314 358 447 569 435 263

GFSCGP_con_3kmhel_060.txt.gz
Helicity
140 147 89 50 43 5 26 33 43 84 119 20 208 332 180 201 128 188 78 127 79 2 -166 -151 -70 110 172 188 198 151 62 17 33 -9 -33 -3 9 -5 -14 -22 3 5 -1 -7
206 89 50 60 46 36 34 54 94 138 87 22 197 310 257 207 118 83 65 53 -90 -37 -144 -181 -3 133 119 188 199 168 47 11 49 -2 -44 26 -3 -9 -22 -21 -6 11 2 2
109 76 66 50 55 76 77 73 120 155 134 19 94 123 111 147 54 56 124 142 5 -50 -50 -136 73 199 193 255 257 175 103 48 46 -15 -36 58 -31 -15 -24 -47 -22 0 4 5
73 100 106 135 105 54 96 62 149 162 111 111 43 61 130 180 111 62 71 11 48 -76 -89 -57 160 238 225 151 257 232 191 111 26 -6 -20 -56 -54 -51 -29 -13 -28 3 4 9
105 126 134 98 106 139 136 78 146 83 31 13 64 104 67 236 125 102 98 10 86 -64 -25 52 206 280 301 258 285 293 247 139 21 4 -26 -35 -63 -61 -30 -24 -30 -6 -11 9
38 21 119 135 63 80 88 185 81 47 41 86 3 86 69 157 256 172 103 -27 43 103 29 73 244 334 294 270 319 315 264 142 40 -12 -44 -30 -44 -34 -40 -10 -20 -19 -14 13
69 39 36 51 122 80 55 181 192 100 137 74 36 138 70 25 174 377 384 134 34 190 85 73 154 342 328 367 353 302 260 170 78 6 -39 -60 -46 -55 -28 -2 4 -7 -21 10
119 167 102 153 114 105 63 122 165 128 80 54 3 66 64 29 82 317 448 263 155 262 91 28 160 292 429 395 407 356 273 212 135 61 -18 -34 -60 -80 -51 -14 9 21 27 44
172 165 141 105 163 103 159 170 73 98 103 131 141 154 131 91 75 160 213 224 235 228 120 62 154 270 394 441 434 420 339 257 205 126 27 -24 -36 -68 -94 -22 -18 26 10 11
97 143 90 167 204 202 115 80 167 148 85 107 135 122 137 -126 91 111 131 188 69 206 156 186 223 226 323 436 462 446 435 316 260 197 158 27 -24 -28 -65 -58 -40 -28 -32 -6
108 79 109 82 205 444 313 259 126 117 124 81 92 108 -96 -170 -65 -18 146 185 173 203 172 267 258 225 334 331 382 406 379 361 277 220 222 130 23 -22 -33 -66 -55 -41 -51 -25
117 57 4 62 40 119 137 262 358 218 210 228 184 205 116 -24 -48 54 80 77 173 185 146 205 239 372 436 312 262 307 331 304 285 291 257 175 145 48 -22 -62 -69 -67 -43 19
142 47 58 20 50 96 189 190 305 271 261 165 181 257 42 33 37 20 89 119 161 183 178 214 228 289 208 142 384 268 266 303 302 334 296 237 137 112 -2 -25 -56 -47 -53 59
131 78 44 21 -13 80 147 269 253 244 345 364 212 201 90 89 59 35 38 311 145 205 251 268 147 1 17 57 19 137 195 281 297 308 314 274 224 148 102 70 16 -23 -25 -43
31 29 31 22 -3 -13 3 172 239 250 291 333 352 307 117 -14 87 82 20 90 89 325 148 256 111 53 -162 -34 0 26 118 177 258 273 260 192 241 249 201 156 116 54 15 -17
95 74 49 36 54 16 -38 -44 56 167 197 243 359 308 144 -15 -47 54 86 -18 78 183 498 352 278 103 -306 -157 -31 -11 84 58 233 242 234 249 179 270 235 212 181 164 74 40
79 75 79 50 81 41 10 -53 -112 -69 -80 46 216 252 23 81 43 53 90 110 14 116 272 413 388 303 -6 -47 44 49 69 79 219 185 153 209 261 182 219 230 196 153 124 109
98 120 127 33 54 9 47 65 84 4 -117 -23 24 138 -94 11 94 -31 60 110 120 68 166 244 251 341 302 13 31 87 88 144 83 246 163 167 223 252 217 235 195 164 147 131
89 74 103 85 63 27 13 -3 46 69 94 82 100 184 17 33 148 40 83 39 115 138 54 163 174 183 376 173 359 4 7 -25 49 203 297 190 205 275 339 233 205 188 168 146
133 128 97 103 123 35 40 92 105 100 30 150 169 185 68 -183 -57 -33 111 95 43 165 151 59 149 126 45 127 293 209 95 37 27 94 218 180 163 132 265 267 249 207 190 144
90 120 109 53 50 78 163 123 79 13 32 49 51 92 68 -180 -120 -34 -26 21 -19 25 125 86 -17 7 -19 -2 100 167 179 178 130 25 55 162 57 45 143 250 277 261 215 177
29 58 56 83 83 100 36 25 36 35 -52 -29 -35 -37 -2 -24 -25 -30 -116 -147 -102 -49 26 1 -137 -56 -31 -23 8 93 139 206 220 305 81 83 6 -30 56 193 257 261 259 218
40 78 74 37 33 67 -4 -51 -1 1 -33 -37 -30 -66 -92 -76 -26 25 -23 -145 -224 -146 -88 -108 -84 -163 -26 -52 -84 -16 43 46 59 123 214 104 -11 -34 110 205 222 325 291 259
57 104 93 88 47 41 -2 37 14 -3 -4 24 22 -7 -27 -33 -98 -44 -55 -61 -181 -212 -114 -136 -98 -116 -51 -38 -57 -80 -30 33 98 -108 14 -39 -9 49 163 286 318 376 359 317
99 112 99 118 37 61 54 -29 -18 4 7 7 25 31 64 103 -14 22 7 -5 -64 -130 -49 -93 -53 -94 -29 -107 -119 -132 -33 2 29 58 37 29 23 91 139 223 324 351 295 297
144 119 123 84 108 111 99 78 -68 -48 3 -9 -25 7 71 122 96 92 64 28 37 17 -30 -14 -18 -4 35 64 58 -127 -123 -36 0 24 32 59 52 90 119 149 282 445 378 220

GFSCGP_con_3kmhel_063.txt.gz
Helicity
197 192 82 49 41 26 68 56 61 85 66 35 72 118 200 138 34 130 131 133 127 117 131 114 97 80 123 139 139 93 65 -21 6 35 55 -15 -27 -22 -21 1 12 -3 -1 13
248 100 59 71 57 43 31 24 32 150 153 78 70 70 119 215 150 102 107 94 130 34 32 126 92 44 107 138 185 143 75 21 20 41 32 17 -30 -8 -14 -7 -6 -2 -3 10
165 104 73 63 74 68 48 -29 81 140 159 188 118 -1 55 96 136 93 56 81 82 41 1 67 153 79 86 106 144 176 130 81 35 50 45 143 70 59 30 -4 -13 -2 3 19
91 64 103 87 55 56 77 -15 108 149 175 226 81 98 42 42 72 66 109 91 89 43 -17 15 132 144 93 170 100 159 138 126 44 68 51 13 36 -5 14 -12 -7 -11 -4 7
122 99 82 97 64 108 19 95 123 153 144 162 119 119 85 66 -10 67 150 61 -6 22 18 104 185 152 145 156 132 148 66 91 49 25 44 20 2 -1 -4 -18 -5 -6 -8 5
65 63 128 86 100 115 166 155 130 197 164 183 126 113 99 50 136 136 85 1 -14 -72 -81 -23 159 128 127 224 232 235 139 117 55 34 22 42 10 -15 -33 -27 -17 -12 -8 -18
92 53 60 102 115 81 136 266 228 180 217 164 83 136 52 53 59 156 231 141 169 51 -60 -35 187 162 160 258 267 271 205 167 104 71 11 41 20 -9 -35 -52 -27 -8 -14 -4
135 176 99 110 102 122 103 156 209 183 176 219 146 147 117 154 103 113 123 227 179 128 19 34 249 214 224 259 299 358 273 179 127 95 21 14 5 -12 -23 -43 -28 -5 9 15
149 191 162 122 137 134 118 140 91 180 237 263 190 175 87 225 191 124 110 90 74 136 50 94 186 242 262 248 287 355 370 265 188 117 45 5 6 -21 -18 -17 -20 -25 -6 10
112 192 145 159 137 214 177 166 193 214 182 184 238 232 244 302 273 221 93 117 78 72 82 98 89 232 274 270 290 332 385 364 296 206 102 13 15 4 -15 -11 -16 -17 -8 10
93 100 162 103 178 273 283 261 247 183 179 156 190 186 103 146 145 186 162 116 95 107 132 128 100 142 259 272 269 290 319 311 287 242 197 163 147 88 110 -31 -30 -27 -17 -23
110 26 95 100 108 15 124 287 255 261 327 278 203 249 212 183 119 82 84 77 93 119 124 151 153 232 181 196 219 234 268 305 298 298 255 195 182 170 159 -9 -30 -44 -37 -27
30 51 92 64 109 143 200 307 288 246 317 359 317 284 303 266 214 77 -43 167 162 206 224 235 345 325 250 160 130 181 236 218 249 297 276 237 167 181 149 141 148 64 -17 -39
67 41 -17 37 66 61 117 144 152 278 397 468 427 505 402 355 182 190 64 70 174 270 256 255 496 445 297 191 60 44 89 136 202 232 249 226 223 175 154 161 160 170 138 17
64 23 10 -9 30 38 4 31 62 149 224 351 409 431 345 348 294 216 110 174 131 256 306 391 351 440 304 186 95 45 79 196 180 151 149 199 195 194 167 139 147 189 184 147
81 27 40 72 50 69 68 20 -28 -41 44 189 266 282 244 235 224 183 170 200 219 182 235 325 451 423 394 105 43 96 40 120 80 92 110 154 203 200 187 185 163 139 154 165
83 70 81 81 72 8 50 116 75 16 -10 100 195 130 197 278 329 259 251 222 202 248 277 284 404 429 460 175 -38 79 80 64 130 118 137 185 215 230 232 220 207 171 146 145
79 96 102 82 119 115 135 134 87 52 128 123 62 109 133 180 243 142 120 145 204 218 211 225 267 433 456 231 189 114 110 90 56 121 128 133 175 220 232 215 223 205 180 172
79 110 133 113 108 103 77 112 111 80 120 175 138 72 46 234 153 87 80 70 114 156 205 195 122 209 324 280 210 209 230 157 144 87 60 62 161 229 243 245 222 204 192 168
106 110 112 119 100 38 122 109 136 39 50 125 171 136 16 -62 159 102 62 83 156 145 120 165 169 102 203 223 190 238 328 217 181 119 40 57 116 169 235 242 217 212 205 192
110 120 119 108 109 107 137 100 68 112 96 86 50 61 41 -3 -29 118 135 131 66 122 139 110 101 93 66 53 62 171 178 257 133 12 -18 42 48 144 147 185 210 194 203 184
54 52 37 69 107 91 100 28 56 90 33 26 30 5 -25 -4 -39 -7 101 51 96 41 88 104 19 42 45 35 18 81 206 182 146 122 39 72 101 85 123 109 92 126 185 200
-9 27 25 56 33 64 51 -2 -20 2 32 40 29 -2 -34 -5 -37 -74 63 23 -16 16 -11 29 15 16 -9 -26 -18 -20 70 35 31 111 125 165 94 102 89 63 67 102 165 219
35 65 46 52 25 64 50 51 15 0 13 40 55 40 15 33 36 19 62 20 -40 -36 -28 2 19 17 62 11 -78 -23 -43 -38 -29 63 93 91 83 148 116 116 72 65 139 220
53 96 54 66 24 11 9 62 50 19 8 -2 39 51 43 18 51 92 97 48 3 -33 12 26 22 21 62 62 49 -1 -131 -80 -81 -69 48 83 19 58 177 111 78 80 132 209
142 133 130 80 58 98 67 67 51 53 20 12 10 61 63 32 33 49 83 73 87 73 134 131 87 34 52 79 63 35 -9 -91 -178 -117 -18 37 73 69 201 117 72 189 189 179

GFSCGP_con_3kmhel_066.txt.gz
Helicity
214 195 68 65 74 68 105 115 135 121 122 91 117 145 124 27 35 44 62 144 175 104 40 7 -8 2 12 29 21 12 5 -8 0 3 -23 -20 -9 -23 -21 -9 7 24 20 11
233 81 65 82 89 56 38 57 88 123 81 66 51 76 34 75 60 73 111 137 153 152 78 17 19 14 42 64 74 60 48 30 -12 3 20 24 3 -7 -12 -5 -11 9 6 4
133 75 91 111 91 65 57 26 63 131 174 94 46 18 -17 41 30 32 55 99 146 214 195 88 36 81 62 37 77 124 108 70 30 6 30 85 105 65 23 14 -6 13 1 -3
97 113 136 97 74 69 82 8 60 162 210 147 78 68 46 51 28 8 43 137 176 177 191 173 92 73 80 60 51 114 144 138 49 28 38 46 21 18 -5 10 -15 12 9 1
133 113 108 118 62 45 41 38 81 134 187 197 145 46 77 58 6 16 11 108 150 106 158 171 134 101 51 26 63 83 133 130 75 52 75 76 41 25 9 -1 -2 -5 4 -3
102 122 84 45 58 57 40 93 156 174 170 154 147 64 114 75 124 70 103 65 125 84 80 94 116 101 57 64 61 137 146 131 105 74 54 91 70 20 28 13 12 -6 4 4
143 115 154 115 116 109 122 160 219 212 235 165 156 116 56 128 90 95 101 127 109 115 107 134 99 75 51 35 57 121 147 122 126 80 31 39 62 51 28 18 13 -10 -7 6
141 179 132 127 119 96 101 140 182 200 199 228 211 149 100 113 147 95 65 92 85 86 92 99 133 72 86 111 97 127 164 117 147 100 26 8 37 42 35 4 4 -7 -16 6
179 200 194 146 120 120 124 144 124 209 204 210 243 242 152 260 249 245 197 56 70 66 136 164 152 142 125 149 140 143 172 158 143 154 55 14 28 36 45 27 8 4 -15 -16
140 230 199 212 183 150 130 145 176 228 214 267 307 325 314 326 318 320 261 190 62 89 67 123 139 183 140 161 186 179 183 221 187 179 151 48 39 38 31 19 -4 -3 -4 -28
105 150 245 170 278 263 229 240 226 167 179 193 245 288 288 328 300 301 203 177 76 67 79 105 139 89 149 151 156 183 199 195 210 145 182 112 59 40 26 28 19 -23 -6 -20
102 83 169 174 120 202 203 247 192 180 197 236 217 225 181 205 231 163 198 108 187 196 205 137 158 180 124 142 167 167 171 177 208 219 208 173 118 100 28 16 35 34 -9 -2
54 105 124 162 206 165 235 300 244 219 242 279 265 271 310 333 285 242 153 209 229 260 357 359 262 204 106 96 84 93 134 128 156 187 184 192 178 144 96 66 95 30 23 -16
59 70 74 98 123 127 188 253 275 267 300 313 358 417 426 429 342 331 270 237 261 284 314 400 531 459 302 177 140 62 73 114 116 122 149 163 186 172 126 133 128 97 78 15
87 67 77 106 97 89 90 114 209 273 242 278 332 396 362 372 327 302 273 259 305 350 370 361 454 467 441 372 215 125 51 42 112 159 178 170 170 168 163 137 144 137 112 82
107 46 43 45 124 125 122 122 90 145 195 229 250 300 305 213 233 269 259 255 265 290 308 336 373 461 457 463 414 276 124 55 49 127 166 150 159 175 168 157 149 157 137 118
77 79 90 41 78 40 113 210 205 171 167 161 170 195 213 217 250 254 231 167 206 246 268 311 323 327 455 462 478 428 286 114 76 96 103 200 181 142 138 148 152 144 156 155
79 89 102 81 104 89 111 190 151 112 138 203 182 211 197 186 196 194 70 93 109 158 222 260 240 291 340 415 337 301 293 227 98 121 72 126 220 142 135 126 144 147 150 167
78 94 104 98 135 176 154 182 149 143 117 106 102 206 241 205 114 75 56 63 65 82 110 161 173 174 236 340 352 301 289 257 281 154 70 56 99 143 134 138 152 156 161 163
91 98 82 100 106 107 114 131 112 70 86 184 124 96 106 170 136 100 111 85 81 54 67 110 149 138 115 157 246 302 361 317 302 241 122 71 65 106 138 145 150 159 178 154
68 83 80 73 69 60 61 75 47 103 80 89 57 78 75 37 43 123 130 119 63 49 69 44 53 71 119 91 78 158 341 289 178 169 174 163 102 91 86 113 145 148 184 172
30 48 51 60 43 34 23 60 88 60 11 2 16 59 51 15 -5 -5 49 56 65 62 9 36 -13 7 28 55 36 31 161 151 83 43 89 132 141 116 76 93 132 166 203 215
17 20 18 24 0 26 17 0 5 10 24 43 42 72 45 19 3 -1 4 32 25 40 19 -18 6 -12 -13 13 -8 4 -5 32 79 95 64 53 108 110 59 66 82 103 155 168
24 57 41 42 26 22 34 44 42 28 16 4 9 3 19 20 15 45 43 48 22 46 -5 -11 -62 24 27 0 28 -4 -13 0 13 51 43 12 68 87 30 42 64 85 152 171
47 81 66 27 -18 8 44 89 69 52 50 32 9 33 9 -11 6 30 68 64 52 50 35 27 58 6 49 87 64 49 -5 -37 -7 -38 -21 -15 -9 20 41 32 47 89 105 136
114 103 120 37 16 62 58 64 68 63 67 46 33 72 51 14 10 13 41 62 60 23 16 -3 28 74 44 107 93 78 66 7 -27 -67 -41 -64 -54 -12 28 49 38 32 70 79

GFSCGP_con_3kmhel_069.txt.gz
Helicity
149 138 57 58 104 157 169 161 154 139 114 81 79 105 58 8 8 25 13 4 9 14 3 -25 -45 -22 -27 -44 -11 -7 -6 -7 13 7 -5 0 6 5 4 8 5 7 11 9
157 25 65 81 96 103 120 141 152 155 113 80 87 112 60 3 61 23 59 36 20 -15 -3 -21 -40 -30 -22 -25 3 9 -8 2 14 26 15 12 18 10 10 5 4 1 -1 3
89 68 65 84 103 73 66 70 105 142 124 78 53 62 67 21 24 8 14 42 39 33 38 1 -33 -29 -36 -39 -18 29 32 34 25 10 6 11 15 14 9 3 6 -4 -8 -1
79 78 85 95 80 77 70 44 70 102 108 85 98 64 60 16 17 6 3 47 66 64 20 31 1 -31 -39 -35 27 61 55 51 38 18 15 8 12 20 12 0 -2 -8 -10 -8
111 96 80 86 68 61 80 61 92 123 135 118 62 60 64 52 22 6 -8 -9 119 102 70 52 45 5 -22 -52 -22 55 69 64 54 48 30 13 17 22 28 8 -18 -11 -10 -15
111 88 78 54 63 39 58 103 136 149 170 102 71 80 59 87 144 106 43 6 27 91 128 79 36 7 -10 -32 -33 34 55 93 65 52 66 33 16 15 28 5 -9 -12 -8 -15
154 122 119 110 91 82 85 110 181 167 153 102 124 63 95 122 113 138 143 41 64 86 98 118 90 17 -38 -30 -44 17 32 60 70 60 71 70 31 17 27 15 0 -3 -2 -12
135 153 165 164 140 117 73 97 182 198 166 102 127 56 73 126 85 91 103 65 8 21 81 102 97 97 22 -21 -8 16 35 57 56 38 87 70 43 23 17 21 18 8 -5 -16
130 181 164 183 167 155 114 136 149 175 198 114 131 139 112 248 229 207 186 134 50 1 11 43 109 96 76 29 10 29 38 40 59 66 56 52 34 40 19 16 14 3 3 -2
139 174 194 211 172 161 150 153 149 201 197 151 191 219 203 284 294 278 241 225 115 33 18 14 53 47 80 49 50 36 37 59 73 86 72 50 30 23 34 14 18 12 6 5
113 182 187 172 206 237 180 180 190 202 242 177 210 235 270 271 231 197 235 244 201 165 75 52 45 40 50 51 27 53 56 47 48 75 92 76 50 16 30 24 17 10 5 12
119 132 201 203 188 280 215 189 201 163 178 234 233 221 217 202 159 162 196 239 250 236 234 241 152 50 26 32 42 30 41 58 66 81 122 95 104 49 22 38 15 4 8 16
109 138 171 172 152 162 225 265 226 172 220 217 180 170 178 153 192 195 209 255 304 319 340 314 353 335 240 85 25 18 12 9 33 74 90 92 56 68 41 38 47 25 6 5
55 104 154 166 161 168 180 230 246 251 214 196 281 211 283 227 179 197 177 179 249 309 351 405 477 409 376 275 240 139 71 30 12 8 52 74 108 87 58 41 45 51 50 25
80 93 91 124 127 125 133 160 192 216 221 283 219 267 339 304 245 216 194 207 232 309 398 390 419 471 440 464 395 270 182 113 69 35 29 33 64 114 124 103 74 55 53 61
141 59 88 106 133 136 142 163 138 135 170 198 230 244 307 311 275 281 277 268 278 296 302 306 382 390 417 416 433 347 307 249 168 80 59 54 50 59 76 98 121 95 75 65
88 81 83 71 119 120 117 161 202 160 174 212 170 236 279 262 319 315 285 240 244 238 249 252 256 283 376 396 355 325 287 273 228 94 46 57 65 59 84 85 90 83 81 73
79 100 112 60 77 80 104 124 158 192 183 192 166 200 221 232 243 252 129 132 172 170 166 185 200 258 217 271 325 349 296 287 275 146 41 38 43 27 63 105 102 102 83 76
97 98 109 85 72 84 72 131 144 139 119 147 182 207 176 197 188 87 79 153 165 154 109 86 98 133 187 223 192 225 328 316 169 267 120 92 49 40 73 146 120 92 74 69
93 89 97 92 88 55 94 110 107 97 77 100 95 104 133 158 166 135 161 224 178 133 117 73 56 36 49 79 105 172 233 265 269 197 256 117 96 70 69 131 164 121 91 76
67 84 75 84 108 94 82 99 68 118 122 81 81 79 91 91 70 109 90 99 82 75 97 100 51 -3 -22 -8 18 57 97 154 222 292 228 234 162 72 61 87 114 105 89 90
34 50 58 76 78 63 58 81 83 93 34 9 9 26 30 42 53 61 47 26 24 44 51 51 55 63 -9 -28 -8 13 30 90 98 213 245 217 188 144 73 69 70 104 95 107
12 12 22 3 15 27 30 43 49 19 19 16 11 10 16 33 62 76 70 65 57 47 51 53 63 45 86 5 -17 6 11 3 80 75 93 112 82 59 85 81 72 76 70 141
13 35 20 22 17 8 24 24 31 24 20 10 -9 -12 -7 1 24 37 33 36 50 73 75 86 68 69 63 101 69 32 5 -13 12 84 45 54 40 57 42 52 75 88 95 102
59 75 43 27 16 45 25 47 42 35 35 10 -12 -16 -13 -12 6 20 38 12 17 15 35 77 85 73 67 61 120 100 60 27 4 36 53 13 37 17 72 40 42 66 62 89
131 98 91 32 42 71 60 51 38 42 33 12 -7 -17 -11 -25 -12 -6 7 -6 -31 -9 -8 36 65 71 67 65 60 118 107 76 49 17 33 33 6 17 32 49 32 9 22 20

GFSCGP_con_3kmhel_072.txt.gz
Helicity
74 85 26 19 16 133 60 45 36 116 58 36 47 43 23 1 -6 22 16 -11 18 18 -4 -13 -3 -21 31 35 29 18 10 20 6 2 -11 -21 10 10 11 -1 4 -0 3 9
100 21 42 43 82 117 94 84 72 106 92 76 43 36 39 -12 5 1 27 7 17 12 26 -12 -13 -9 34 41 16 16 -10 13 -20 -9 -15 -3 29 16 16 -0 3 2 -1 6
44 55 94 75 47 57 38 51 72 61 90 73 41 27 28 8 3 36 5 10 3 39 64 13 8 -6 17 24 4 1 -13 -1 -28 -8 -4 14 22 24 12 1 -8 -5 -3 -4
66 89 59 53 43 33 56 88 137 118 82 50 54 40 45 21 16 41 15 -0 7 31 32 72 39 18 19 12 -12 -4 4 13 -4 -0 -7 8 14 27 12 2 -1 6 -10 -8
64 54 58 54 45 36 70 64 64 93 77 112 49 119 79 38 -11 34 29 -9 -8 28 8 41 45 28 30 3 -22 -5 -1 20 18 -5 19 -1 31 23 24 10 30 -1 -16 -6
53 41 58 78 74 55 95 77 95 95 57 61 42 71 105 106 106 68 26 12 -15 36 45 -0 24 32 14 17 -30 -26 -10 20 17 29 37 26 16 27 20 2 22 -6 -5 -16
87 71 66 30 75 64 58 82 123 106 102 65 39 103 130 114 121 110 94 49 8 14 37 28 27 14 3 3 -18 -26 -12 18 21 15 54 52 26 3 10 15 4 -4 1 -13
103 141 58 128 64 97 70 38 99 119 92 86 108 81 92 119 118 134 141 82 16 30 33 42 35 28 12 4 -1 -5 -0 13 21 33 61 54 27 15 14 9 17 7 4 -5
50 128 131 182 165 175 68 95 48 97 126 50 74 153 121 145 117 122 153 147 90 37 1 13 30 15 33 13 24 32 12 14 24 15 40 42 24 21 12 21 16 16 16 13
90 112 132 114 122 124 191 58 119 128 98 95 95 35 137 160 181 184 186 278 188 68 48 32 -7 11 1 17 38 39 45 34 25 25 22 34 26 19 25 29 21 27 23 9
125 118 73 102 155 121 110 153 133 45 73 56 119 152 154 202 200 177 200 235 292 392 311 224 171 16 13 10 25 35 34 28 28 27 36 28 30 27 28 38 21 14 15 14
140 111 61 145 103 160 217 189 127 111 103 131 119 163 148 202 219 208 217 231 244 290 353 417 416 368 189 51 42 49 46 31 28 32 36 36 39 33 28 33 42 20 15 10
146 114 86 61 64 100 121 136 163 185 157 45 111 97 108 181 194 188 220 232 232 237 291 350 436 479 503 400 349 169 57 57 32 25 27 31 44 47 33 31 27 41 20 9
118 108 151 130 141 123 97 139 156 162 105 72 100 59 96 167 184 194 142 196 221 227 241 272 350 410 396 451 435 528 379 258 140 50 22 25 32 41 33 35 37 31 37 25
95 92 113 129 110 137 131 133 174 190 212 202 116 122 127 145 184 198 183 166 192 257 268 265 287 300 347 383 411 360 354 308 252 239 90 28 44 49 47 32 41 33 35 36
108 76 86 106 128 138 130 90 106 124 130 201 150 208 163 213 201 242 247 234 235 241 238 262 268 267 311 311 306 274 272 294 317 189 116 174 83 69 72 58 42 54 42 42
128 74 69 81 95 100 68 69 112 135 175 201 107 205 227 213 242 251 244 208 232 249 264 269 229 230 241 249 267 264 253 227 238 241 200 84 114 108 83 85 77 60 57 57
86 100 123 135 90 92 166 156 193 188 185 221 236 249 239 230 228 184 159 176 199 214 214 204 200 200 161 177 172 199 225 218 226 287 285 248 97 89 127 101 83 69 75 84
109 75 83 84 55 99 53 72 102 81 100 193 178 187 186 200 189 70 74 142 173 161 121 98 108 130 153 163 134 140 108 152 206 218 274 231 283 153 96 60 53 70 91 99
81 106 117 93 113 78 179 97 119 119 89 109 144 162 197 220 180 189 155 166 149 127 124 99 54 42 54 67 105 146 137 104 104 140 177 212 252 279 315 88 59 54 86 110
72 99 95 100 110 111 85 74 90 127 180 93 131 125 123 154 191 208 133 121 105 91 83 106 123 66 16 -3 24 61 80 122 130 132 159 181 261 398 214 119 42 54 63 93
37 61 76 89 96 81 65 95 132 171 107 78 59 73 87 92 82 86 106 105 106 111 93 90 95 131 143 76 -3 22 38 22 55 74 54 130 166 171 179 119 87 116 72 78
14 27 48 47 76 67 24 86 78 71 60 50 54 55 57 74 89 98 104 95 104 109 105 82 61 72 93 153 150 56 29 23 11 30 102 12 125 120 192 234 197 164 161 86
18 25 13 26 15 28 31 44 39 34 37 30 28 22 12 23 34 39 48 50 49 62 65 59 68 72 65 70 124 178 134 60 48 47 25 79 20 119 124 138 127 155 161 114
42 62 31 23 18 39 21 20 31 34 33 27 27 23 23 22 23 37 45 44 55 44 50 45 25 30 58 73 66 46 146 178 131 67 71 50 65 37 46 57 76 96 74 130
78 69 93 59 32 36 53 34 47 36 32 28 23 14 8 5 12 18 34 43 45 59 48 25 27 24 25 27 46 62 46 94 150 158 78 70 79 44 40 30 88 18 15 51

GFSCGP_con_3kmhel_078.txt.gz
Helicity
35 57 28 15 16 39 -36 -5 21 91 60 -9 108 66 -68 52 74 108 83 76 102 47 17 -45 43 97 115 126 54 24 84 85 50 -15 -25 -28 -1 4 12 21 47 57 12 15
52 51 34 -2 -5 39 67 38 7 111 74 231 131 43 37 12 61 79 115 136 54 80 93 -8 65 100 47 169 103 53 76 63 16 -25 -38 18 -0 -24 28 36 6 36 14 5
37 25 35 2 18 32 29 32 36 121 63 32 -0 73 -35 22 71 49 49 77 60 5 66 78 -6 206 91 121 126 101 72 60 -33 -23 -15 15 106 69 20 -1 -7 45 16 9
42 8 -5 43 20 18 24 35 53 27 -23 46 -10 40 123 130 131 171 44 75 14 -28 -1 -26 105 76 72 100 78 129 92 49 -47 19 -46 -37 -11 30 5 -9 20 68 26 3
40 35 26 26 18 14 18 4 59 24 26 2 12 33 104 213 231 191 59 57 41 35 53 -18 131 96 115 44 104 170 74 29 -6 -29 35 -15 56 27 40 57 46 14 12 13
23 10 24 27 39 49 32 79 29 47 27 47 14 13 188 307 191 -4 43 32 38 8 111 46 51 122 60 18 127 142 61 31 24 -50 31 18 52 48 -12 29 2 -8 11 11
16 9 21 29 39 35 27 32 92 132 101 47 -1 5 101 193 230 125 -3 129 138 -66 20 104 90 159 -1 123 94 156 70 35 28 3 -21 9 5 52 47 6 -9 -7 21 11
46 87 38 28 28 14 21 19 59 75 95 17 13 46 133 -63 -254 -97 22 18 27 139 62 191 70 113 81 39 56 186 104 47 23 30 1 -26 13 39 37 -2 -4 44 15 -27
89 15 40 18 11 10 14 44 28 -6 -19 -15 137 182 203 185 235 265 261 410 285 327 408 172 -68 139 65 29 16 189 125 73 52 28 32 15 18 2 41 -13 -12 53 7 12
97 145 41 19 15 65 138 66 52 29 49 57 123 225 211 183 193 250 354 398 402 471 354 254 276 331 148 -41 -3 188 185 92 61 49 52 37 19 -23 21 53 27 61 56 43
108 61 130 57 106 99 87 78 130 62 13 24 163 400 207 301 218 281 325 264 271 356 499 312 244 247 203 301 230 177 155 139 61 54 63 41 34 22 -4 34 36 17 57 24
45 48 29 11 38 56 67 33 73 72 24 42 168 300 76 239 168 168 243 165 183 238 320 478 260 255 327 456 316 170 250 271 61 56 63 53 62 38 45 25 21 29 23 55
153 112 70 42 43 74 89 100 78 53 25 52 82 165 222 253 145 203 204 165 168 159 213 324 426 387 318 453 260 425 232 298 319 198 67 64 69 67 46 68 38 39 46 20
112 49 19 155 226 91 48 129 87 86 86 33 48 189 187 102 150 161 164 152 168 159 124 153 306 390 404 234 286 220 286 276 181 398 241 202 89 87 64 78 75 53 58 54
129 174 71 10 57 134 79 32 41 97 144 46 156 -28 59 89 130 148 139 158 172 180 147 154 206 289 337 293 147 170 250 338 231 133 264 233 241 109 141 105 79 64 79 71
110 120 122 216 69 129 269 69 107 45 97 27 -20 72 223 97 71 95 122 159 187 196 138 136 145 178 208 210 183 148 42 143 256 209 260 300 195 96 108 79 79 82 69 71
38 45 51 146 54 79 313 210 104 156 88 68 168 190 239 155 177 160 144 148 174 172 177 113 115 131 135 134 162 141 54 23 78 74 56 180 269 241 145 162 122 93 73 68
62 42 49 22 57 172 131 45 78 130 53 114 8 139 119 178 138 152 119 127 145 168 173 181 159 130 115 98 107 132 130 144 157 128 107 159 176 228 293 301 226 218 124 91
57 64 75 64 50 36 91 85 72 54 94 112 88 105 167 158 157 141 156 135 166 179 180 181 161 143 122 112 82 71 94 88 99 140 180 206 219 217 215 202 241 211 181 152
67 61 163 112 70 73 127 136 192 147 186 158 85 158 179 121 36 29 128 194 183 164 143 137 121 124 120 120 122 121 103 100 78 82 113 135 137 167 184 192 191 169 189 160
62 66 70 104 93 69 46 131 91 73 124 227 224 198 227 188 340 372 283 174 150 151 140 129 117 124 139 123 124 108 105 110 92 82 73 73 75 130 148 155 145 111 118 156
77 72 90 69 76 104 109 114 130 208 208 152 236 354 331 261 240 267 242 161 142 123 111 114 118 138 141 139 130 136 137 134 111 98 81 75 64 61 67 82 85 120 151 109
72 105 71 129 158 138 168 202 119 117 153 181 183 154 123 103 149 179 130 127 93 76 86 107 143 146 146 161 167 166 135 115 110 85 83 87 74 62 68 65 62 60 89 112
38 40 91 85 102 65 47 96 121 156 133 161 142 122 96 124 151 127 148 149 157 162 139 139 119 127 132 135 140 148 146 139 124 114 97 65 67 82 92 86 68 72 70 72
33 54 42 41 57 98 80 62 60 78 103 84 104 99 90 134 101 103 86 80 120 83 84 75 72 78 85 97 95 102 106 108 129 120 107 103 89 79 97 129 134 124 101 89
16 36 80 82 52 52 27 32 71 62 56 60 76 87 89 77 93 76 70 98 47 76 63 77 78 63 62 63 67 72 75 72 77 92 100 96 80 84 85 86 87 164 170 152

GFSCGP_con_3kmhel_081.txt.gz
Helicity
111 113 72 75 93 41 21 33 20 51 151 279 284 47 109 -47 21 97 58 88 150 80 142 104 166 212 158 162 101 136 78 53 -3 -17 -15 -30 -18 -22 -2 11 27 4 2 8
112 69 28 34 71 76 59 16 5 149 102 135 101 80 -45 106 38 131 158 188 150 187 67 138 112 211 164 173 89 186 143 104 17 -18 -39 -10 -28 2 -1 5 22 21 9 21
57 71 1 45 70 96 87 25 35 186 222 273 91 34 40 -79 -18 154 172 195 205 203 95 119 135 136 174 165 103 176 132 85 10 -16 29 59 60 76 16 15 18 19 9 8
68 16 13 39 70 49 66 83 43 236 197 119 104 6 17 51 83 94 144 167 181 229 125 114 150 207 235 175 124 133 117 57 -17 44 43 5 -5 27 24 -14 -17 5 6 5
78 73 55 28 77 41 103 38 29 146 78 60 78 78 48 160 95 88 65 83 126 134 143 102 225 280 244 218 141 121 148 62 -25 -21 92 -4 -6 61 38 40 7 9 -3 5
77 6 69 42 39 54 58 54 14 77 36 126 29 121 156 201 153 133 185 67 83 91 31 93 124 195 218 187 163 142 200 85 -19 -61 17 38 51 22 45 74 24 4 -26 -7
67 59 21 38 60 59 45 55 123 119 120 80 -17 46 101 215 245 259 184 205 9 19 96 67 151 137 209 122 144 138 205 104 10 -38 -12 28 50 -5 6 27 28 -22 -25 -34
151 149 52 51 58 81 74 87 155 173 127 104 27 60 87 98 255 96 11 69 7 20 114 71 155 235 224 156 241 180 157 106 61 32 -0 -30 44 24 44 -24 22 -7 -3 -3
28 72 42 75 87 64 115 175 18 4 37 75 86 216 386 172 259 327 278 223 207 126 278 130 195 274 113 210 233 184 139 96 76 57 28 -5 -23 39 4 -35 -6 -17 9 58
69 80 76 124 39 44 80 61 98 63 -59 17 76 175 120 187 279 216 287 310 335 407 442 308 157 175 242 309 196 212 153 126 77 70 32 18 1 44 13 58 -7 -7 42 60
172 91 184 93 85 41 84 77 76 26 29 22 98 170 295 377 302 214 279 285 311 378 455 443 322 101 342 263 297 269 211 95 53 69 50 42 54 28 21 41 49 68 52 57
133 119 192 153 225 99 108 66 35 45 96 14 98 152 177 170 214 129 203 254 239 248 329 362 434 346 274 260 206 282 240 283 166 119 51 54 53 55 29 22 -30 66 67 27
175 168 176 196 198 102 58 50 90 109 89 47 41 73 178 207 170 97 109 160 180 160 220 308 366 428 408 367 357 89 268 258 183 146 171 75 54 57 33 34 32 12 108 53
113 128 150 214 209 227 191 215 99 102 180 29 2 132 154 185 216 200 138 149 162 177 178 223 318 292 309 318 236 188 174 244 69 100 88 151 133 106 58 42 51 41 40 85
165 165 116 92 98 126 159 250 130 138 75 -18 -61 97 153 136 124 149 192 152 169 146 122 138 203 250 224 276 171 75 99 103 205 224 103 135 161 162 97 135 48 67 65 70
140 191 31 168 154 166 194 225 198 120 -0 10 32 74 166 135 86 100 121 105 120 120 112 107 111 140 202 221 216 147 134 177 154 251 139 56 259 87 44 73 112 71 47 39
156 178 181 98 95 155 198 155 234 63 69 126 99 110 124 24 22 90 132 130 113 87 104 127 137 150 135 173 141 104 85 104 94 90 138 219 136 190 129 228 -47 122 114 45
214 139 133 188 210 106 47 13 85 73 102 82 101 66 32 98 92 125 130 120 129 170 133 79 80 80 90 96 91 64 55 42 45 68 125 90 83 72 132 108 71 90 161 164
65 53 98 81 153 145 238 88 59 68 64 63 194 240 319 389 341 208 127 116 107 133 147 142 137 108 162 191 123 129 114 79 81 121 165 197 146 90 146 137 125 102 91 116
99 105 57 99 135 171 58 125 163 187 207 76 185 240 247 230 177 117 115 157 200 174 181 181 186 159 157 144 156 166 183 135 136 119 110 121 145 169 207 186 158 111 61 88
62 115 63 85 113 96 96 106 107 168 169 246 276 255 248 304 270 318 343 308 230 129 138 147 164 144 117 129 144 166 130 119 88 79 81 80 84 99 106 110 110 114 103 59
90 60 75 85 106 131 248 200 206 165 167 263 370 385 436 414 425 397 376 297 204 166 151 124 98 89 83 99 132 153 134 93 68 67 54 57 57 64 62 72 75 86 98 119
97 109 77 102 101 110 157 106 112 143 162 204 263 285 331 335 313 286 247 211 152 125 166 195 162 163 127 108 95 128 127 96 85 82 94 79 71 74 75 75 87 97 92 72
35 54 101 110 95 33 86 118 107 127 143 166 159 259 248 215 215 226 207 183 202 198 154 128 133 153 153 136 119 119 122 88 88 95 99 110 119 128 97 90 89 87 101 114
45 72 47 64 62 129 133 88 131 147 192 183 187 175 153 210 186 183 196 208 186 117 88 74 100 126 116 98 105 84 69 51 54 70 81 86 95 100 104 108 92 86 81 98
64 61 80 107 142 118 90 93 113 139 106 128 158 176 183 228 193 187 192 171 110 90 87 79 54 48 78 83 74 53 44 47 54 62 58 56 55 76 71 66 77 80 89 115

GFSCGP_con_3kmhel_084.txt.gz
Helicity
190 136 121 137 82 59 76 63 38 81 159 197 84 52 -32 -53 96 1 -20 -15 -16 112 106 173 160 152 99 86 75 98 84 11 89 67 10 -29 -3 21 21 -4 -16 -10 12 -6
215 65 33 109 97 66 100 68 93 87 91 147 103 70 -22 45 8 -31 2 21 95 205 158 243 224 154 139 118 103 128 107 18 2 23 -4 -20 25 30 26 7 -6 -12 5 -12
107 62 58 82 102 92 87 139 110 79 172 162 71 49 47 -22 32 -10 -93 72 140 299 268 180 229 200 177 198 189 145 116 38 4 42 55 79 60 64 12 1 -5 -4 3 -23
52 57 147 77 63 79 88 135 89 82 136 123 90 12 68 114 40 22 -20 131 212 257 305 229 217 178 157 158 176 167 134 79 43 60 16 2 -16 3 17 -7 -3 -1 -8 -2
72 97 149 144 72 122 63 111 69 66 149 166 120 71 19 80 18 94 120 193 248 202 295 235 227 210 159 160 173 169 147 108 74 81 27 -1 32 45 25 4 -16 -9 -21 -12
73 66 73 99 81 88 122 54 58 161 119 145 36 69 55 89 119 150 164 181 221 171 194 202 200 195 199 157 180 169 120 103 98 102 91 26 -2 36 33 35 -7 -20 -24 -15
133 93 70 42 113 73 64 85 171 173 148 83 81 62 65 91 185 209 118 -16 180 194 277 198 243 252 198 196 206 173 131 122 114 119 99 58 24 50 15 -6 -1 -19 -20 -19
208 238 98 82 80 54 65 68 133 199 143 53 41 70 89 143 158 183 122 121 -16 105 176 173 240 272 266 251 214 204 167 130 123 101 96 71 55 42 17 3 29 -7 -18 -19
199 200 112 90 65 68 94 144 45 93 113 63 61 113 212 234 410 380 242 234 191 242 185 244 261 311 241 221 194 224 181 121 105 84 90 72 49 37 13 7 33 -21 -23 -2
85 173 61 96 85 95 41 78 114 130 177 170 118 203 100 175 316 341 323 241 275 357 325 319 311 319 271 248 255 197 112 126 91 79 95 77 64 42 7 48 18 6 -5 14
147 94 183 73 125 59 75 116 100 70 89 120 142 169 109 88 145 160 147 162 197 219 239 337 362 222 324 272 355 362 132 136 109 90 74 50 48 51 12 9 7 -11 0 13
152 89 165 160 186 100 83 71 40 125 100 67 86 143 133 139 135 99 107 129 155 179 199 224 255 328 322 174 336 360 195 210 182 114 86 57 35 52 48 17 -2 29 48 29
146 112 153 241 174 316 210 193 112 129 93 49 73 79 72 110 114 77 82 123 123 136 175 194 207 270 390 351 344 381 312 220 255 196 159 90 78 56 31 25 14 41 41 26
62 93 45 214 259 223 239 216 125 83 120 68 43 27 58 120 118 143 105 105 118 139 163 201 217 214 269 256 275 209 202 102 110 32 50 136 97 112 80 47 30 47 35 42
95 125 102 166 254 229 214 220 233 168 138 123 -3 15 83 173 116 100 100 106 122 139 153 193 214 180 188 201 213 257 150 116 80 92 79 32 114 72 125 119 95 52 58 11
168 132 119 101 135 164 224 233 241 137 100 208 217 210 135 119 111 102 104 106 161 175 171 141 159 185 139 130 113 131 149 119 99 105 155 138 15 25 43 94 51 43 27 58
132 108 139 116 78 51 135 176 197 216 194 165 163 96 132 94 94 68 89 116 129 155 153 121 113 137 159 139 108 85 29 66 107 139 156 83 107 116 114 33 41 42 13 30
111 90 81 86 158 35 133 48 53 70 189 156 163 129 65 34 40 91 103 93 86 85 95 98 118 154 198 224 226 162 153 165 209 208 154 154 80 90 124 65 76 52 55 14
23 62 111 64 56 131 180 240 11 125 114 -20 49 111 166 171 155 148 111 126 95 95 130 139 137 126 161 184 174 210 212 186 176 198 239 230 182 148 106 92 -31 24 30 33
89 61 82 87 90 90 112 117 114 321 101 108 124 148 207 225 195 121 167 182 172 158 128 142 137 153 172 166 156 177 156 132 127 116 111 131 176 196 157 88 51 51 44 27
61 97 90 105 86 101 127 142 93 130 63 241 204 235 243 189 108 207 238 213 196 162 153 144 137 124 117 107 123 139 125 124 87 82 76 77 79 89 107 138 130 127 155 124
37 50 64 82 89 103 159 153 97 97 149 235 309 355 341 320 419 372 300 255 220 203 212 174 150 125 107 103 114 147 142 109 101 91 96 111 118 108 104 104 120 117 127 143
40 54 54 53 50 39 88 102 112 98 142 234 299 313 363 409 407 383 359 280 241 211 189 163 123 134 121 96 96 123 108 99 105 115 126 139 138 153 141 124 115 112 115 85
43 78 97 116 91 72 49 93 88 76 75 47 52 131 225 266 290 313 347 329 299 250 209 165 149 123 120 115 102 78 81 66 74 103 132 132 135 147 149 136 127 124 118 103
54 81 73 74 73 112 73 86 88 122 87 78 55 69 92 143 190 260 310 302 222 193 170 136 126 115 103 90 86 73 66 74 87 79 84 102 103 133 148 142 139 123 95 99
100 119 157 109 95 108 98 126 109 139 116 116 132 169 142 172 193 258 236 202 179 171 144 121 86 89 77 78 62 55 44 51 64 74 69 69 76 66 65 87 126 97 90 123

GFSCGP_con_3kmhel_087.txt.gz
Helicity
162 173 152 97 93 120 139 176 182 85 16 122 11 40 68 -23 12 -47 -11 40 56 161 100 146 143 122 78 72 69 94 127 78 80 82 59 43 8 3 17 15 5 8 -7 -6
232 107 99 89 99 92 81 137 135 108 125 72 3 38 58 -29 -18 -2 -31 3 121 75 116 124 121 110 120 82 80 86 103 94 65 66 29 44 19 13 8 3 9 -5 5 -4
157 104 52 77 119 98 95 104 112 69 66 58 79 26 -28 3 3 24 17 -9 118 169 183 131 169 139 106 108 85 74 77 84 64 67 52 59 42 25 12 13 6 2 -6 3
90 68 121 79 92 81 76 89 95 102 124 100 31 61 52 155 -4 -40 -47 -33 95 165 199 202 187 145 121 84 39 51 74 77 47 78 52 -2 1 9 6 -3 3 2 -10 -2
104 86 113 119 93 108 55 108 86 123 136 126 99 86 25 169 36 -18 -7 17 119 229 226 280 271 191 96 74 81 69 88 96 64 54 58 26 22 9 34 -3 -3 -14 -12 -6
70 95 102 110 123 143 99 103 123 120 204 182 125 98 55 75 48 6 6 129 158 202 262 285 225 240 144 91 86 105 107 92 76 78 62 49 10 17 25 25 -1 -9 -18 -11
122 105 101 104 166 135 135 156 203 237 196 121 83 113 64 78 35 147 120 127 174 264 291 328 327 334 132 140 105 123 130 103 94 123 112 83 24 -1 6 17 3 -10 -10 -28
174 198 93 91 158 127 108 170 195 216 187 138 69 80 42 74 145 168 204 228 176 249 198 224 260 270 209 102 118 155 136 107 112 138 122 90 63 53 20 23 24 -12 -2 -25
150 248 156 84 77 117 127 192 94 152 169 145 127 132 37 67 276 335 278 264 263 252 239 186 247 176 205 121 115 139 150 125 133 133 112 81 81 61 25 15 34 32 2 -8
118 199 154 147 82 117 87 69 207 206 218 189 189 121 81 80 165 248 248 237 240 211 221 289 283 249 241 251 173 146 174 135 109 118 80 75 79 60 43 51 26 12 12 -10
97 113 224 155 170 157 161 160 150 114 160 176 150 132 84 46 85 112 161 171 207 219 194 344 388 346 268 310 264 146 191 196 88 124 91 57 52 51 48 40 37 20 17 1
108 74 182 183 138 82 92 156 118 158 212 170 145 121 98 117 87 89 98 109 119 152 166 154 266 364 275 232 246 194 204 288 114 160 129 91 53 40 35 39 24 31 21 32
66 94 150 202 168 261 172 263 205 117 148 168 183 163 69 100 95 92 81 63 56 90 108 127 155 198 251 284 166 217 254 332 251 222 136 125 112 101 66 45 37 24 25 35
69 81 62 140 232 190 220 277 228 167 188 163 163 144 45 53 87 103 114 103 81 92 113 122 139 162 182 233 287 271 216 197 233 115 111 123 98 76 74 71 85 69 48 31
92 96 77 77 161 236 296 256 267 168 140 176 135 82 -5 80 106 109 125 120 86 104 115 135 143 177 196 184 189 166 176 124 104 74 38 93 53 54 50 6 51 122 67 28
158 103 99 148 116 200 332 436 363 225 176 185 197 165 126 113 160 163 158 124 113 148 143 135 159 186 172 131 127 139 161 124 81 70 69 80 79 34 71 61 35 43 44 53
89 107 129 102 140 99 167 358 320 224 160 133 140 89 110 127 120 96 108 109 97 110 121 153 174 187 188 185 150 156 161 139 129 110 105 126 112 69 128 54 62 45 47 44
95 123 131 110 110 2 41 128 97 83 217 237 205 158 113 91 89 85 58 65 96 125 118 141 163 202 190 168 191 214 224 242 216 223 220 197 126 52 31 61 133 178 75 33
91 102 111 88 122 116 64 70 56 43 175 111 120 125 150 146 175 140 82 99 106 139 116 136 154 163 177 171 151 174 196 182 201 235 230 203 159 115 102 90 84 74 124 127
71 86 83 95 92 85 111 116 145 80 67 54 76 62 94 139 140 37 41 102 127 128 112 120 124 128 133 133 132 143 147 143 150 130 111 124 171 144 115 78 72 42 8 -41
75 86 78 91 103 109 84 121 139 101 67 106 77 116 135 89 65 126 149 157 111 95 103 114 134 124 92 92 102 109 98 104 84 83 76 78 86 90 126 130 23 73 40 55
22 44 45 71 89 80 95 127 120 95 82 115 161 138 183 199 202 219 192 190 166 152 139 129 146 122 100 90 92 99 102 66 61 61 68 82 101 90 87 96 124 121 87 82
31 40 28 40 33 39 46 39 69 72 65 96 233 265 322 256 236 218 222 233 197 166 175 166 147 150 135 87 42 63 70 82 76 82 105 121 123 124 126 124 130 117 125 123
15 48 65 83 58 49 50 61 42 29 46 64 204 259 245 212 248 303 314 297 275 220 195 166 159 139 110 86 78 39 40 72 89 93 109 114 139 166 169 159 154 150 138 122
38 72 61 53 57 78 50 54 57 67 58 56 87 147 185 238 260 269 276 248 218 210 193 139 99 84 65 61 64 61 74 81 91 118 133 144 154 163 170 176 173 169 143 130
109 94 102 70 46 92 58 83 76 96 70 45 34 52 106 154 186 224 227 209 204 180 161 132 96 82 58 69 75 71 77 90 93 105 116 127 136 151 157 156 166 148 149 155

GFSCGP_con_3kmhel_090.txt.gz
Helicity
218 207 154 103 112 93 76 92 137 93 36 74 -18 23 10 76 42 35 27 19 6 36 67 42 55 54 39 35 55 50 23 -2 19 21 31 2 2 0 12 14 11 -3 7 9
243 126 118 92 115 108 119 127 132 148 31 109 102 25 11 49 40 34 62 68 46 4 56 90 68 79 70 73 79 76 62 42 25 27 12 -5 -3 9 20 2 3 10 3 13
171 91 122 124 126 119 108 122 102 67 97 125 63 87 15 6 3 26 46 43 58 64 98 105 107 104 67 80 102 88 61 55 38 41 65 82 55 28 6 10 7 2 6 9
128 109 106 131 122 113 98 93 97 48 45 42 58 38 89 65 -49 -39 -9 21 88 116 70 145 103 69 107 90 50 57 61 52 41 52 37 41 39 22 4 0 4 5 5 6
148 86 112 114 93 84 77 75 115 110 132 93 67 57 33 121 59 29 -11 5 12 157 158 139 131 87 61 81 58 39 65 36 49 39 24 24 43 28 22 12 3 8 8 8
111 105 89 83 85 78 107 114 160 144 144 129 78 97 66 55 121 5 -30 -12 28 126 147 108 118 54 120 86 4 26 54 36 52 46 16 16 11 28 22 17 -2 10 10 2
126 92 132 110 141 161 135 181 218 188 162 107 90 126 57 33 6 -46 3 -10 9 72 191 209 228 276 54 103 79 52 57 37 60 57 42 21 -5 21 17 17 22 31 25 15
124 146 98 104 128 150 146 141 207 189 149 136 135 121 88 48 68 76 105 161 183 196 212 202 226 333 173 23 18 35 56 55 57 83 57 51 36 39 37 26 27 8 18 32
120 190 144 90 107 141 180 175 142 183 192 151 190 160 81 56 127 180 237 270 271 242 228 242 250 240 308 91 46 17 49 55 65 88 90 72 53 27 33 30 30 27 14 17
113 207 163 158 125 155 124 120 255 265 201 192 209 139 72 55 80 162 212 210 244 245 283 260 208 187 270 144 57 27 -3 72 56 71 90 84 54 29 35 40 23 27 25 16
80 143 208 167 187 155 175 206 222 202 214 168 152 137 90 52 92 128 188 183 195 214 212 207 242 216 215 208 96 95 117 146 168 48 62 79 59 52 46 41 48 29 31 25
79 76 194 208 224 199 177 174 167 203 219 228 177 163 121 95 71 82 94 95 106 139 167 153 152 249 191 155 134 123 182 148 207 99 86 91 70 62 62 48 56 50 40 30
31 122 180 255 240 249 237 257 149 144 183 153 176 176 102 110 126 120 85 89 88 100 111 134 179 155 178 200 112 229 180 171 193 197 114 133 112 104 99 80 52 43 27 24
64 77 96 135 254 260 298 325 247 172 169 166 171 153 78 84 95 82 74 81 95 100 101 103 118 123 130 139 220 237 181 207 213 241 198 158 121 104 66 86 91 95 73 44
74 92 131 156 152 205 276 367 292 200 180 137 122 97 99 92 95 86 79 86 94 84 92 113 101 117 111 159 210 243 253 199 144 120 126 106 80 93 84 49 68 66 50 56
126 85 114 143 167 103 181 274 266 198 180 175 171 124 120 179 174 132 114 127 111 111 78 77 112 135 156 169 198 220 251 235 172 117 115 96 94 145 138 101 63 73 93 83
75 104 130 103 122 100 140 106 132 235 189 155 202 179 117 190 145 121 133 134 134 126 111 117 140 167 189 204 212 213 226 218 194 125 103 74 38 30 119 86 116 112 113 106
50 81 98 86 127 107 94 117 69 61 175 176 183 140 171 138 128 139 126 118 94 86 86 123 192 215 226 240 251 258 262 263 265 211 206 170 156 166 117 55 86 87 111 113
88 68 109 81 91 100 123 111 109 132 109 49 45 99 152 155 182 156 99 108 128 138 154 174 152 138 177 176 162 191 241 239 220 212 203 197 166 111 63 49 40 69 92 58
83 89 78 108 120 57 67 92 74 15 42 50 32 23 85 90 162 59 54 114 130 132 105 115 116 117 150 133 125 147 160 156 173 152 123 161 154 148 128 96 76 58 90 77
72 88 91 99 92 109 68 108 84 99 77 39 26 53 55 57 60 113 110 129 131 120 118 108 107 95 68 66 87 98 96 110 98 95 90 82 76 75 119 131 126 113 113 96
32 47 51 87 96 62 79 91 109 59 74 52 68 68 97 93 103 185 146 129 116 115 104 105 112 86 65 61 79 85 82 53 54 62 73 81 79 70 80 94 120 126 124 77
27 26 31 32 18 26 41 49 75 34 36 51 96 149 154 125 138 189 166 148 113 110 114 103 101 94 79 64 46 45 29 31 43 59 71 90 96 104 99 103 112 84 99 123
-21 30 46 57 31 28 40 40 43 41 55 38 76 169 211 186 149 179 173 144 147 130 120 98 97 85 69 60 56 35 41 53 57 69 95 109 123 144 153 139 131 112 112 100
45 68 51 36 10 28 18 26 41 44 43 37 73 108 183 201 183 160 180 143 174 136 116 94 88 60 33 42 45 41 49 55 64 74 95 120 134 151 161 157 165 162 151 147
72 89 102 39 17 71 30 55 61 59 41 35 60 82 93 146 180 173 169 190 182 146 138 125 93 80 56 65 68 54 53 66 76 98 105 112 120 139 158 174 186 179 188 198

GFSCGP_con_3kmhel_093.txt.gz
Helicity
178 152 97 94 125 84 57 53 52 90 35 29 37 28 52 -13 -33 -32 -30 -50 -42 -13 19 12 21 22 39 48 48 37 24 9 -4 -14 -6 3 -2 -5 -0 4 11 11 6 -5
160 81 96 110 142 107 74 62 55 72 40 106 163 60 57 19 -18 -40 -16 -27 -4 -22 -32 -6 10 29 39 62 55 47 33 15 7 -1 6 2 7 7 1 6 10 16 17 6
88 84 119 112 125 116 98 71 61 63 123 176 205 71 25 7 35 -11 5 -3 -13 2 -6 -7 15 31 27 37 60 48 37 6 11 11 -9 4 15 13 7 1 17 21 11 9
93 96 96 113 91 100 96 77 85 60 38 51 2 42 52 -27 45 -45 -46 -13 -20 -14 -10 19 42 32 38 39 43 58 33 23 18 20 8 4 7 7 8 17 -3 10 10 7
137 118 107 84 89 106 121 85 97 73 91 61 10 39 154 50 33 113 41 -36 -23 -20 -13 17 57 48 40 37 50 48 29 31 24 37 16 5 12 9 6 8 16 1 8 6
135 138 102 99 63 70 102 135 132 131 111 102 13 5 -8 31 108 78 60 25 -30 -62 -31 -19 39 -1 -5 5 11 25 40 24 13 28 15 4 4 9 13 18 18 6 4 4
136 125 143 119 100 103 121 126 184 123 126 140 89 44 33 23 24 48 12 52 12 -13 -21 -15 28 4 -2 9 20 31 30 35 26 26 12 -16 -7 4 4 10 -0 7 13 8
127 117 116 115 113 121 114 111 198 145 135 94 98 83 73 23 50 1 -50 -10 49 45 22 18 38 108 161 98 21 2 -3 10 25 12 18 -10 4 14 23 17 22 12 8 2
76 129 110 80 113 92 145 148 135 165 159 67 120 106 60 38 57 81 55 77 45 76 73 55 37 63 222 171 -11 -66 -22 -24 2 6 15 3 12 28 26 29 27 24 15 11
91 130 82 120 94 130 105 106 147 185 133 95 104 160 103 49 55 103 96 114 114 81 93 135 110 111 200 283 181 65 34 -24 -25 17 36 24 14 37 42 37 38 37 33 25
51 156 125 123 144 105 151 142 184 158 200 85 66 94 139 82 42 90 113 124 117 115 113 122 108 123 175 280 318 67 38 -31 -38 46 56 68 28 41 54 42 41 44 34 26
62 95 186 158 187 150 163 153 149 139 193 217 138 78 121 117 72 50 82 90 99 107 108 118 124 102 91 117 218 182 75 3 34 73 102 59 40 38 56 56 46 45 31 37
52 101 162 155 158 179 208 204 167 161 170 157 117 100 70 84 88 78 57 78 89 89 91 105 100 89 77 81 112 159 131 64 110 155 181 145 92 48 53 65 59 44 48 34
64 80 125 130 169 189 237 230 178 164 147 141 160 110 56 42 68 65 62 70 81 103 109 102 111 131 116 71 96 48 71 92 112 149 183 177 158 80 73 83 92 71 60 47
148 148 117 150 138 163 195 193 198 167 151 130 142 129 94 49 49 53 55 69 71 91 101 89 98 112 110 134 158 108 95 112 131 126 170 144 195 176 150 108 111 116 103 85
126 147 189 162 168 176 120 123 161 191 183 151 154 130 118 97 106 83 68 53 52 61 80 96 126 142 143 167 188 197 221 190 150 179 124 121 117 176 249 144 117 123 124 126
80 96 96 215 154 123 127 156 103 112 164 160 137 136 74 133 142 123 94 82 82 76 80 105 113 140 163 184 201 227 263 275 293 216 163 116 128 128 83 80 119 139 128 119
57 115 105 95 101 119 118 109 124 103 96 108 119 99 51 92 111 102 95 92 115 144 149 133 123 136 157 194 225 261 249 281 279 218 166 125 98 77 69 95 151 153 84 68
87 68 68 67 75 127 77 99 105 110 109 100 67 35 37 102 131 118 97 106 112 110 122 131 141 144 195 224 200 250 281 261 256 225 180 150 130 120 128 123 126 131 76 45
60 71 75 58 59 42 83 66 64 35 93 63 90 55 49 49 78 108 66 71 86 83 100 125 136 138 158 151 159 182 180 183 187 186 161 152 129 121 102 96 87 75 73 97
81 97 98 94 79 95 91 87 55 78 129 67 60 40 50 103 167 90 73 73 87 97 92 96 84 102 107 110 101 100 106 112 94 94 106 121 128 124 144 127 107 94 65 70
30 41 61 62 73 58 83 82 105 112 93 96 40 56 79 142 111 88 106 114 104 91 86 65 70 71 63 54 51 73 85 72 81 91 106 108 108 97 82 89 92 112 109 125
20 29 43 32 49 55 69 112 104 80 80 111 91 58 52 97 63 58 86 99 78 67 60 50 56 65 62 55 45 43 40 38 45 54 60 57 66 73 80 88 98 110 137 127
-12 15 37 36 37 34 41 33 33 48 80 80 67 42 72 110 63 73 109 92 76 67 62 65 70 73 76 68 55 47 39 37 42 59 69 73 74 84 93 87 93 106 127 128
41 51 32 8 12 38 15 29 57 57 53 52 61 56 59 91 97 70 60 96 94 86 71 56 58 55 45 31 26 14 10 16 37 54 63 71 82 97 107 132 142 129 154 164
67 68 62 17 30 42 52 48 39 46 58 66 70 72 58 51 81 68 64 107 128 94 74 96 77 50 32 18 18 20 31 24 27 38 49 67 74 92 116 121 123 177 185 186

GFSCGP_con_3kmhel_096.txt.gz
Helicity
53 103 55 36 46 70 8 104 27 20 60 90 -24 38 51 45 -60 22 -8 -27 -10 -13 -13 -13 -5 -16 -9 4 7 15 4 -7 11 14 16 5 10 4 9 8 -2 3 3 2
82 76 47 84 101 72 24 -26 37 115 53 69 42 25 57 -12 36 8 -21 -13 -13 -15 -3 -15 -12 8 16 14 24 20 10 -6 10 1 4 17 5 4 -0 -3 -5 -1 1 3
44 52 83 88 84 84 55 24 16 34 97 118 67 47 57 62 58 28 -45 -16 -16 3 -0 -3 -0 20 7 26 41 35 11 -4 -0 4 -1 12 15 6 3 -0 -3 -12 -6 -4
63 84 69 79 70 95 42 93 71 34 -1 56 39 33 9 84 61 8 -42 16 -27 3 -12 -4 -1 5 27 17 29 27 7 -6 -10 -4 3 10 8 22 23 12 -0 -13 -3 -4
79 59 33 64 62 94 103 86 56 21 35 28 -27 -9 -38 39 132 30 -38 -9 -10 -0 -5 -13 4 11 12 -5 11 12 1 -11 -6 -11 18 -15 17 33 24 10 -0 13 8 2
76 43 48 44 62 67 128 95 81 53 19 8 -3 -26 9 112 120 20 -1 2 -16 -18 -16 -11 7 6 -11 -19 -8 9 16 -4 1 -5 3 18 29 11 20 17 7 4 6 9
88 62 62 69 77 61 120 116 119 83 71 54 20 -4 -3 -26 3 60 9 14 -9 -32 -35 -40 -54 -12 -33 -6 2 26 24 13 5 -4 -9 20 22 31 24 18 26 9 17 12
83 74 73 83 65 80 64 94 106 72 60 52 78 67 42 56 44 -16 -3 -1 -21 -36 -44 -59 5 -17 85 -2 44 66 15 -1 5 -4 -6 -2 5 5 23 19 14 26 22 6
75 92 14 36 63 73 76 100 62 130 65 46 52 77 31 17 18 23 2 7 -6 -9 -46 -36 51 45 75 148 134 112 71 22 -23 -20 -8 -7 10 30 40 21 22 22 27 22
44 113 27 31 42 46 67 42 73 100 95 54 50 36 52 42 29 46 33 11 14 12 2 18 39 74 96 171 186 135 73 53 28 11 25 13 13 20 39 36 24 46 43 20
30 95 51 40 78 46 110 88 66 42 44 42 31 -5 110 78 52 52 78 140 146 77 60 58 84 93 78 201 301 252 134 101 22 46 23 44 32 32 31 52 53 39 50 32
26 57 25 27 96 112 20 36 36 81 43 73 69 89 125 121 70 48 51 84 91 101 126 86 70 108 155 145 233 299 327 48 55 30 -25 34 43 44 36 39 47 46 29 28
33 91 86 81 66 70 68 66 54 24 36 29 48 58 69 82 83 80 54 80 86 80 65 57 36 39 -6 30 104 200 207 37 49 59 55 45 76 50 45 38 48 53 40 34
91 72 95 40 31 37 103 92 73 40 45 47 42 48 41 26 41 47 61 77 93 108 92 97 115 99 49 13 29 80 145 150 97 103 96 63 95 97 123 49 53 56 52 45
127 118 63 79 92 91 46 39 45 37 36 57 54 58 75 35 21 25 40 52 62 66 65 80 94 105 111 130 56 80 79 34 44 40 3 62 64 47 71 100 67 86 80 82
105 130 168 123 101 64 73 88 98 100 104 82 79 63 94 36 57 45 41 50 51 62 73 88 105 104 126 143 156 133 52 27 36 40 62 106 122 157 186 173 85 93 107 111
78 67 154 125 139 112 76 152 114 120 120 138 46 143 79 89 76 71 77 58 58 52 63 70 75 102 135 153 172 214 230 211 200 179 142 152 144 114 139 164 261 180 110 77
18 1 13 78 174 162 124 112 153 157 136 139 106 91 55 42 73 106 129 121 110 100 106 105 115 140 161 181 237 203 234 273 234 211 192 159 139 111 74 56 38 95 97 115
63 32 43 51 41 87 35 109 117 121 83 120 112 84 62 58 75 103 130 122 106 99 94 111 128 150 159 165 195 249 241 234 288 269 191 156 118 110 76 62 62 64 74 103
66 86 36 44 78 54 130 85 95 87 79 91 99 98 75 50 30 84 79 86 104 121 140 136 134 151 187 202 184 216 279 263 253 238 232 173 128 123 97 98 109 99 105 116
65 78 64 33 54 81 92 75 50 101 141 128 115 106 89 123 186 121 115 121 127 140 141 139 154 175 173 145 142 178 172 168 180 160 193 168 148 127 114 103 121 113 115 102
76 56 61 97 83 61 73 51 125 145 128 130 92 86 82 105 99 51 104 117 105 106 96 136 146 137 139 137 91 92 107 95 93 109 132 137 132 107 95 104 124 133 126 122
33 78 87 108 122 103 77 127 107 124 111 128 113 67 51 84 85 62 76 81 102 110 102 92 104 103 82 48 51 90 109 83 76 68 66 69 83 95 95 95 91 79 88 91
-0 22 34 34 33 36 50 55 66 90 102 109 109 79 46 35 38 68 70 73 79 78 86 89 86 81 80 70 69 63 46 42 39 42 40 36 38 65 80 74 77 75 77 80
17 18 -9 -12 12 45 37 46 53 55 59 74 86 89 80 73 54 54 65 72 82 81 78 72 68 66 66 65 64 52 32 16 22 29 39 43 45 51 68 129 153 129 152 185
45 21 16 -0 56 34 74 64 51 48 49 60 68 82 98 74 72 57 65 81 85 98 86 78 76 76 72 52 40 30 26 20 18 17 20 41 49 55 78 68 108 212 180 185

GFSCGP_con_3kmhel_099.txt.gz
Helicity
17 45 51 2 -2 35 69 54 86 111 175 217 113 64 86 80 77 107 4 -1 20 17 51 11 8 32 17 9 -0 -11 -20 -9 7 16 23 -6 15 4 13 49 -2 10 -4 6
55 51 30 42 18 20 -21 40 30 52 54 96 86 60 118 61 33 101 67 1 21 30 78 23 17 24 22 12 7 -12 -23 -9 6 22 21 21 10 3 6 41 -7 13 4 -1
42 20 34 23 52 49 -11 2 -14 24 55 46 40 79 57 99 -4 58 87 48 60 6 62 26 11 26 36 30 16 4 -18 -19 8 9 2 31 39 16 -11 20 15 4 -1 10
40 29 3 63 64 44 26 22 -99 83 7 31 20 27 4 54 103 -33 93 61 71 25 22 57 39 4 23 56 15 27 -5 -0 -6 20 18 12 16 12 18 21 1 45 -3 -1
32 39 34 38 39 18 19 36 12 75 18 -25 -98 -11 35 96 85 46 108 77 12 -15 31 90 38 5 21 57 36 22 5 2 17 -6 60 -5 16 21 41 18 27 41 25 3
35 38 23 26 12 25 46 22 19 52 19 -1 -74 -130 -31 -5 -23 70 35 18 5 74 26 61 14 41 -1 67 56 44 27 11 8 10 21 37 37 41 23 36 23 4 51 27
64 16 26 34 13 53 56 31 22 47 79 50 57 -34 15 86 43 -28 14 -16 12 32 -2 -10 45 97 26 67 56 81 37 17 17 11 11 17 24 38 43 27 18 7 59 9
57 36 16 40 32 38 54 32 42 40 38 6 -29 -29 -3 36 55 50 78 4 2 45 -15 -11 84 73 -5 27 55 58 55 25 21 20 18 21 18 -8 32 26 48 46 41 -13
9 34 42 28 41 34 22 91 31 58 47 42 77 91 131 27 14 -6 6 42 18 -13 89 -3 -12 149 110 98 45 102 104 55 37 31 30 26 32 43 79 47 46 47 -8 55
60 37 41 30 30 40 55 22 68 52 25 88 62 61 59 39 1 -0 10 -0 50 7 -29 6 139 130 191 170 178 148 80 110 91 32 32 26 14 22 41 29 38 28 23 46
44 69 71 25 38 28 52 57 46 27 40 22 17 15 73 28 57 19 27 22 24 15 7 24 118 120 211 162 188 243 178 111 130 78 85 58 37 36 23 35 35 35 35 37
38 43 36 24 15 21 15 32 16 56 25 42 33 27 57 59 84 103 98 145 174 227 118 130 156 167 187 147 221 277 348 321 155 155 124 74 55 43 54 61 40 42 47 44
64 46 58 34 37 35 53 34 20 21 35 33 41 124 86 42 73 97 88 112 187 178 266 321 235 205 114 42 103 118 152 270 200 62 96 51 49 73 76 86 67 46 34 43
101 48 47 50 86 18 25 18 6 22 25 20 20 92 25 31 84 70 73 67 117 122 131 156 163 154 99 64 63 79 64 53 100 81 119 132 90 110 119 118 84 57 52 33
70 95 51 32 68 17 30 4 61 57 42 49 67 86 115 81 53 30 33 49 64 70 89 122 144 160 184 139 43 26 29 18 46 45 26 67 109 70 92 115 116 101 72 58
91 85 95 37 54 64 56 26 -8 11 28 24 55 64 19 76 62 33 19 5 24 48 67 80 131 131 163 156 151 80 72 42 37 29 1 -17 20 14 15 32 78 102 88 95
177 130 63 35 63 4 35 44 47 33 51 69 70 163 26 37 20 34 47 49 52 50 57 73 95 117 163 186 188 226 174 71 59 46 60 64 102 76 86 93 110 252 131 71
48 34 303 140 261 114 125 151 91 96 139 124 57 93 96 88 68 49 24 44 76 74 61 55 83 108 134 178 233 227 248 206 167 168 136 127 145 122 89 72 85 108 139 102
21 64 109 82 87 133 138 166 136 94 57 144 140 83 67 74 94 91 99 86 74 95 106 102 99 112 135 173 203 248 270 317 360 310 224 197 149 103 81 69 -7 -20 37 69
34 34 5 74 -3 49 131 117 120 103 85 92 108 119 87 70 15 90 76 96 117 101 141 128 115 139 159 167 175 237 254 245 269 307 316 232 191 162 148 113 79 60 75 66
26 50 63 27 42 -10 31 47 71 85 153 117 101 93 96 135 195 152 114 143 152 173 92 92 130 162 182 194 202 237 207 197 166 166 145 168 222 172 138 126 116 132 141 99
39 37 55 36 54 47 56 5 94 89 84 104 98 101 119 131 89 92 100 113 124 127 109 117 124 149 156 162 164 178 199 161 135 140 210 174 178 140 137 132 130 147 119 129
65 64 103 85 87 91 93 115 84 109 99 118 112 81 91 67 70 68 71 93 94 85 101 85 118 146 157 170 123 122 119 93 107 104 152 182 132 168 127 118 90 73 89 104
2 50 61 89 66 94 91 85 73 122 124 105 116 97 67 63 42 47 51 54 78 90 86 102 112 125 122 93 116 132 111 98 85 76 53 58 45 67 79 66 60 62 75 67
28 38 9 32 76 54 42 43 55 65 58 81 95 109 105 89 66 58 62 64 65 71 79 95 107 128 129 103 100 70 45 33 30 25 23 28 30 33 53 147 182 180 152 154
20 -14 -14 6 69 24 56 59 58 58 37 62 64 70 99 90 97 98 92 86 94 96 98 103 99 106 111 99 91 81 59 41 33 23 14 17 20 33 22 53 73 185 168 164

GFSCGP_con_3kmhel_102.txt.gz
Helicity
12 52 52 33 6 -6 115 50 74 141 330 148 227 244 262 157 122 109 47 63 33 30 75 13 64 109 111 41 -27 21 33 27 11 -17 7 0 18 -7 -2 -8 12 3 16 -5
40 54 45 1 26 91 20 -184 -4 -34 -33 210 188 173 183 116 65 108 191 57 30 76 84 71 61 74 83 34 38 51 15 23 -9 -4 24 31 10 7 9 3 13 17 -1 -14
58 9 5 19 16 5 5 27 -8 -93 -74 135 161 178 123 151 -30 105 175 214 186 95 181 104 26 42 116 73 43 31 20 -12 -9 6 20 25 18 38 49 18 6 3 8 -4
28 32 2 -8 27 81 87 96 7 -81 43 92 13 83 91 60 -2 69 -3 106 75 85 98 136 36 31 139 119 44 57 19 -19 -20 -19 -15 3 -16 -13 0 4 28 26 13 2
26 18 51 7 0 50 25 2 10 -97 50 32 -26 49 -11 50 -40 -47 -70 50 49 9 34 80 25 8 161 125 76 81 43 9 -22 3 42 -13 -27 -9 56 58 21 12 18 2
51 -7 20 7 30 20 200 60 110 -20 62 -56 -66 -118 -39 129 68 -55 -67 -49 168 145 171 56 23 127 39 132 122 94 40 21 9 18 10 19 46 55 25 25 -23 17 8 2
10 49 45 34 47 3 89 7 -13 26 20 -29 -19 -34 -2 52 85 140 19 84 132 130 125 5 102 42 153 107 104 148 92 40 24 14 17 21 13 35 30 16 7 17 18 -51
24 47 8 16 23 13 54 -28 32 27 93 35 19 69 14 44 -12 -129 18 64 66 60 81 16 70 100 136 317 148 189 62 49 26 22 23 25 41 35 27 1 32 15 -38 -3
11 -28 7 -24 20 21 45 1 11 19 12 4 -22 -65 48 30 -22 -94 -12 132 152 -11 -8 24 47 14 318 176 146 114 40 38 35 27 44 52 58 49 68 54 61 63 52 67
60 52 41 24 26 46 50 8 37 116 52 15 45 106 -4 33 -5 -48 -2 113 5 -27 -83 14 69 81 251 106 103 4 64 68 25 55 71 65 39 36 53 40 40 77 46 47
29 21 87 48 39 16 35 36 28 31 4 84 60 -14 57 136 60 4 6 47 154 89 95 30 72 101 193 -12 105 204 207 203 129 131 138 47 47 37 38 37 30 44 54 30
109 43 40 60 10 7 29 10 6 36 53 31 26 53 221 127 -21 -34 43 40 142 52 141 65 217 -76 148 134 276 365 305 298 229 211 204 151 149 54 41 69 82 64 43 21
134 122 109 10 30 5 19 21 12 15 28 55 63 81 -21 101 -2 107 102 165 239 267 253 54 135 244 206 216 149 264 314 279 241 202 99 172 177 101 90 87 101 49 27 50
56 161 132 61 98 101 5 7 34 20 16 22 7 118 34 -22 73 120 121 126 191 295 370 445 287 273 242 218 107 133 177 114 128 137 69 53 77 113 102 140 110 103 115 78
26 94 80 54 34 72 110 -2 18 9 10 6 61 68 38 54 70 86 65 127 152 185 248 295 285 341 285 130 98 91 71 52 81 104 87 18 22 77 55 52 114 134 88 107
33 77 90 166 39 77 42 57 8 -13 15 16 126 84 173 299 258 42 45 41 65 92 120 174 176 201 270 328 143 68 56 21 35 51 57 37 79 57 47 35 24 33 68 152
121 111 121 231 151 52 -1 158 167 45 41 42 181 94 85 104 39 8 2 -8 40 85 77 91 129 160 199 186 246 291 154 105 98 94 73 46 14 52 69 64 48 68 85 106
87 100 60 100 133 155 162 182 142 205 62 66 62 -9 32 -17 -50 69 13 81 60 80 73 60 94 110 147 163 205 236 323 329 284 238 169 138 111 94 89 96 89 98 113 134
22 37 29 63 310 276 239 148 103 70 202 176 72 55 2 -136 42 44 69 61 25 53 69 105 99 94 130 160 181 219 286 326 309 251 231 187 134 119 128 103 88 59 38 80
52 56 34 67 50 37 140 262 346 6 181 324 120 89 54 18 6 132 125 113 108 160 146 111 114 115 129 136 157 225 251 240 272 318 301 289 254 232 201 168 173 134 65 40
35 -100 8 35 42 63 28 41 274 269 108 30 75 55 201 209 196 223 242 189 148 95 70 87 106 128 126 123 141 197 203 221 192 218 221 227 192 209 181 155 150 132 120 117
31 50 33 17 11 2 11 26 35 69 64 111 114 112 74 84 85 123 140 113 58 60 59 61 83 96 97 110 123 153 178 162 158 144 136 144 169 158 164 178 168 148 158 177
31 61 111 76 10 24 0 61 55 80 81 106 149 113 72 61 73 93 69 68 68 42 47 48 52 60 69 69 88 109 108 124 119 134 120 115 162 156 147 161 150 127 109 125
18 34 72 62 -31 1 69 73 83 154 146 121 156 88 50 79 89 77 71 46 56 72 46 55 44 54 71 82 89 100 84 92 105 95 90 97 105 137 164 134 161 154 128 107
57 61 23 44 75 81 37 51 80 98 90 95 117 160 123 76 74 75 84 91 92 74 44 56 57 59 66 79 90 105 109 93 94 92 77 55 55 62 90 110 127 104 115 118
-8 -14 3 52 77 65 85 64 64 63 36 73 82 86 163 182 138 112 110 141 129 93 92 88 64 86 106 110 104 92 69 51 45 45 37 29 35 29 37 66 68 137 102 88

GFSCGP_con_3kmhel_105.txt.gz
Helicity
64 71 85 48 6 5 135 124 39 -4 76 173 230 246 275 456 246 159 31 159 104 142 132 172 291 247 161 104 33 51 -7 -16 -31 -8 25 16 -7 25 8 -4 5 15 10 0
83 86 60 61 55 62 87 24 38 -122 -188 38 172 208 308 238 210 214 312 261 67 194 162 217 261 215 136 114 76 44 22 -13 -38 -26 31 33 42 36 -3 -8 9 14 2 10
52 57 27 52 47 53 -71 -5 -32 -74 -186 3 32 110 219 172 135 216 274 222 261 324 163 204 222 152 108 122 118 75 31 3 -9 52 35 55 58 36 39 46 28 31 7 -14
46 95 24 5 55 94 59 6 42 -103 -124 -207 59 110 159 22 -68 145 148 119 230 196 104 230 209 214 179 118 99 109 24 -9 -15 -12 -32 -15 -1 -10 10 10 24 14 38 5
62 99 89 48 -5 216 68 69 -7 -32 28 -78 53 84 104 92 -30 -4 41 109 141 229 183 141 143 259 156 176 113 90 62 13 -19 -23 -14 -23 -28 -13 -2 -10 -5 -5 19 35
46 9 16 20 32 183 103 126 75 -22 6 -2 -38 20 25 -40 52 -38 2 90 152 212 201 132 88 190 178 188 155 105 74 7 0 -3 8 2 -13 73 34 -15 14 32 -3 16
110 89 28 15 49 136 85 70 17 -15 -4 -49 -3 -8 104 34 -8 -21 13 -13 118 165 169 81 30 153 231 222 195 154 88 33 45 38 43 6 50 45 24 9 29 1 22 19
35 94 55 41 87 24 32 74 26 -68 -72 -34 0 5 30 105 224 73 33 -41 35 143 123 100 -45 195 198 202 191 144 108 88 76 41 24 26 24 28 29 36 35 29 43 11
41 25 33 31 20 42 45 68 30 45 1 -28 6 37 38 20 40 16 37 28 38 140 116 135 75 205 247 310 194 183 101 100 77 33 33 24 33 73 67 62 45 33 33 -11
70 68 57 63 11 42 17 60 51 141 33 -20 -49 30 26 -26 -17 -39 -105 -103 9 110 53 116 119 198 308 196 161 180 87 53 76 40 33 61 62 65 55 66 52 17 -4 3
84 18 111 42 85 65 57 46 51 74 99 44 7 -38 -33 11 -65 -68 -135 -136 -43 -60 -37 91 165 178 206 26 25 163 104 9 29 45 83 65 68 45 46 62 73 33 31 2
80 64 84 123 67 49 47 56 11 47 45 46 9 54 24 80 75 76 33 19 -10 -36 58 148 183 192 231 136 64 56 23 -1 42 132 188 136 45 55 26 87 81 58 22 46
103 133 114 176 106 46 21 68 47 9 14 63 31 29 -27 -52 77 112 103 218 59 6 98 186 155 230 193 -26 -43 48 74 48 149 242 241 165 97 60 101 78 65 55 75 34
12 61 89 177 41 170 175 28 33 31 102 102 44 101 21 -87 112 170 243 290 314 93 126 233 133 149 43 73 25 208 139 192 278 288 251 186 134 131 150 108 54 74 101 98
43 35 63 91 25 46 83 111 33 41 44 -14 14 105 111 62 121 118 106 174 267 209 245 188 183 -5 38 64 -6 166 196 208 211 177 140 96 94 113 85 69 49 50 61 90
88 110 86 78 99 93 41 46 26 44 47 61 271 225 113 194 237 143 64 42 124 258 301 255 231 190 220 156 105 69 147 103 63 63 94 83 77 62 56 72 43 41 38 62
107 70 116 52 168 89 95 104 126 14 131 91 240 80 45 203 167 71 97 -5 77 153 208 249 234 323 370 349 260 195 104 54 5 31 82 102 88 57 57 58 50 47 43 80
64 97 65 32 168 125 236 130 222 106 288 470 257 84 85 56 46 31 3 72 67 46 64 100 137 227 289 270 272 228 248 235 196 170 190 163 148 133 114 85 63 83 100 146
46 65 47 12 127 170 174 185 248 300 165 255 306 204 66 112 234 356 132 77 57 78 91 104 109 127 151 206 219 268 314 293 328 324 285 231 171 144 130 128 91 84 99 125
99 57 57 41 58 86 141 241 263 272 228 140 170 132 272 126 423 188 154 172 164 116 100 99 95 99 112 131 156 195 227 230 270 274 272 245 228 172 158 143 152 134 149 117
30 38 40 18 17 45 36 156 137 241 201 83 -96 36 58 364 227 216 162 128 88 83 77 86 95 101 100 106 127 161 160 162 149 188 230 250 228 196 158 158 159 155 186 116
18 5 15 40 44 47 65 137 58 69 79 45 -64 -30 -35 -162 53 182 123 45 49 54 52 74 80 73 67 75 85 106 118 93 108 125 171 200 183 169 140 145 154 156 180 172
23 38 24 -21 5 -103 -31 27 36 62 144 145 155 -155 -38 70 140 119 56 27 -2 25 27 48 67 71 67 73 80 104 91 87 99 115 135 146 149 148 164 174 159 149 145 156
39 34 53 56 -18 -4 29 67 143 158 133 127 173 230 64 91 87 50 -11 14 35 37 45 16 27 37 44 44 55 58 60 69 69 73 90 93 100 121 163 152 148 157 160 156
23 31 20 51 -19 61 71 86 100 141 173 149 142 201 238 88 95 70 78 95 66 61 64 49 46 52 50 58 46 42 44 47 51 54 55 69 75 77 107 128 106 74 84 93
33 32 19 61 63 96 88 104 95 51 40 93 92 141 242 285 150 153 135 102 66 61 64 61 60 56 39 40 48 54 42 33 52 50 46 40 42 37 50 57 71 119 60 50

GFSCGP_con_3kmhel_108.txt.gz
Helicity
153 137 85 47 8 21 36 54 76 44 -9 42 89 175 162 194 -5 17 -49 83 128 154 216 212 133 149 62 43 47 3 -18 2 -4 89 59 14 -6 -4 -14 -15 -6 -16 -3 -16
141 72 29 61 64 83 146 63 35 -41 -110 -52 12 39 216 197 175 130 134 138 197 147 206 232 193 157 103 77 39 61 -13 -19 -26 40 45 32 13 3 -14 -8 -7 -9 -8 -10
77 58 81 112 111 91 18 -11 -62 -81 -98 -107 -116 121 241 190 204 141 274 296 290 232 230 273 209 216 127 148 101 89 19 -18 -13 34 42 79 66 47 33 16 14 27 11 3
50 121 169 143 108 113 82 -6 -67 19 8 -24 30 10 104 108 110 231 269 318 327 287 176 223 178 196 179 132 104 76 38 16 7 -5 -10 -5 6 10 6 -1 7 0 6 9
90 128 86 96 51 148 81 73 41 23 -5 -41 8 60 98 148 123 102 211 211 249 364 198 193 157 181 130 116 89 61 66 33 13 -8 -26 -21 -12 -6 -4 -4 6 4 -3 45
111 86 49 32 41 163 252 206 91 -15 15 3 -27 11 31 99 41 -34 74 202 238 292 238 168 144 154 133 109 89 86 63 60 30 30 -27 -15 1 -1 -13 -12 0 -9 -2 14
91 69 20 133 218 229 148 111 41 0 -14 -6 24 10 -54 97 85 -81 42 120 209 239 326 245 151 117 116 105 94 95 73 31 44 55 26 8 -2 10 3 -3 -10 2 6 4
124 162 29 42 64 20 -7 23 9 -32 10 -17 -32 23 1 11 11 60 25 76 197 241 289 261 186 160 121 153 113 92 90 47 46 69 57 29 18 -7 -9 -2 -5 -7 1 13
95 100 92 68 106 128 38 13 1 58 46 -1 -23 64 -47 -21 34 35 129 95 143 244 279 192 224 229 219 224 137 108 114 74 56 69 66 50 25 21 5 11 24 -14 3 -2
-10 174 82 95 35 41 90 48 79 58 17 -10 -38 -77 -19 24 7 34 92 160 138 147 181 173 211 218 253 309 316 165 104 102 59 79 60 48 58 45 47 37 21 15 -2 4
78 68 89 24 71 10 85 115 79 55 29 31 -12 -80 11 43 56 135 119 91 160 161 106 189 189 268 245 260 261 221 112 80 80 56 54 40 60 66 63 36 28 33 28 23
112 43 11 47 90 55 38 66 48 55 32 42 15 15 -101 51 18 121 98 52 -43 81 185 172 187 234 267 195 190 123 73 31 30 60 89 67 59 77 78 48 30 25 19 34
122 101 45 143 93 153 115 144 69 0 6 30 53 11 -62 -83 15 -29 23 -12 -2 118 199 177 245 209 128 169 88 28 14 -2 3 90 156 62 -17 53 48 35 81 69 27 11
37 79 53 127 171 119 66 180 150 11 12 7 32 16 73 71 43 19 -24 42 0 17 137 130 195 137 151 183 80 174 12 43 112 186 129 71 53 49 61 70 81 78 51 56
39 83 63 85 91 53 35 68 175 105 32 59 38 36 181 121 122 140 150 62 36 83 93 86 186 133 152 165 152 107 10 59 188 246 177 127 98 115 135 152 127 87 67 77
69 87 44 92 104 77 61 144 90 120 184 122 114 54 101 138 185 157 168 112 102 56 72 92 195 162 148 97 89 80 2 57 189 221 192 162 136 110 82 60 31 54 50 68
50 48 86 82 156 9 119 138 65 39 139 90 79 67 130 143 89 124 150 208 248 229 184 171 167 178 231 66 87 5 -30 71 111 141 125 123 106 70 52 67 69 55 53 93
38 33 35 64 127 157 47 113 92 66 192 244 144 166 199 178 160 136 120 155 247 274 228 219 186 213 231 203 156 124 61 69 77 86 94 115 126 126 124 91 70 80 79 104
50 48 35 29 96 125 167 158 160 128 155 224 201 259 192 164 237 218 168 110 118 135 161 165 207 231 247 209 207 214 257 240 173 142 153 148 189 179 141 104 96 81 79 109
90 74 68 57 93 75 83 184 162 110 119 81 158 151 258 269 338 222 149 61 -7 15 33 45 67 119 179 214 218 231 302 251 245 260 265 252 216 179 144 122 121 113 91 106
39 78 48 66 94 121 84 103 215 171 131 -22 29 64 135 247 217 144 131 34 -12 0 36 53 62 67 67 86 130 198 212 218 207 217 252 235 198 172 145 132 134 136 149 154
8 41 51 65 86 132 -2 2 162 111 45 -90 -113 -73 -62 35 97 144 52 1 -32 -14 13 32 57 74 78 82 96 114 130 135 137 153 168 196 195 176 135 123 134 159 153 147
5 -9 15 20 -2 21 59 41 95 76 -33 -47 -60 -38 54 12 -79 -126 -14 -2 -24 7 42 55 61 74 76 80 75 96 82 90 98 115 134 138 151 162 179 157 152 157 147 125
-31 10 29 14 -20 28 15 75 66 91 32 -14 -32 -41 -60 -85 -62 -1 36 32 29 77 74 65 84 85 76 70 59 50 46 59 80 93 102 120 124 129 139 139 145 144 140 155
9 16 40 4 13 51 47 38 77 116 131 134 98 35 -77 6 29 35 22 -20 -19 -8 26 31 49 48 38 39 44 38 37 45 51 57 60 73 78 82 83 98 104 105 103 93
26 36 51 56 20 -4 31 40 52 60 62 74 123 205 146 86 67 58 22 12 16 -10 -19 21 25 47 48 47 43 30 25 37 50 62 65 61 63 64 67 73 84 115 85 90

GFSCGP_con_3kmhel_111.txt.gz
Helicity
113 145 109 19 70 65 48 46 42 29 10 102 240 160 75 187 76 10 74 188 149 154 98 94 43 15 31 4 98 102 107 28 30 31 52 35 -1 -13 -2 4 15 -4 8 20
149 43 49 57 73 73 74 74 31 4 -70 -34 -94 40 91 191 85 108 79 164 134 147 96 103 58 20 25 -3 40 82 106 35 8 -3 43 26 9 -3 2 -3 -4 -1 12 3
75 43 69 96 119 104 105 59 -20 3 -40 -46 -47 -68 6 144 146 104 169 132 183 215 152 104 92 69 56 36 60 81 59 40 5 16 79 87 58 50 4 2 -6 8 1 -9
43 58 131 149 155 125 84 36 5 24 -15 2 14 -38 34 94 127 94 139 185 183 205 173 155 103 111 77 57 54 35 21 38 22 36 40 22 26 35 15 13 7 5 19 -9
76 105 137 142 116 141 59 109 52 -11 -7 -15 -1 -22 -38 34 139 72 88 215 262 255 216 171 121 132 70 57 67 64 33 57 61 38 30 1 -2 2 15 18 -2 2 12 14
86 82 86 62 55 92 215 162 89 -4 -64 31 2 12 14 27 -70 178 127 206 218 227 160 167 139 118 72 60 63 55 53 21 31 22 17 -5 -11 -5 -8 -0 -4 -5 6 18
95 79 41 87 152 223 243 146 105 89 57 15 -0 31 45 -7 22 105 208 266 202 250 197 179 187 124 113 93 57 56 50 17 1 37 31 6 10 -7 -2 -2 -7 -3 7 19
66 126 35 40 49 30 95 51 51 28 -0 12 -20 6 -12 26 54 113 364 238 224 168 187 182 183 159 92 109 63 68 62 39 23 4 -2 21 3 -20 -16 -10 -20 -13 -15 -16
49 117 73 55 57 59 43 29 14 38 75 24 -21 -7 4 -15 25 47 33 42 195 229 142 162 179 157 122 107 91 72 78 34 56 33 20 20 16 11 -4 -5 -21 -22 -17 -3
16 57 38 64 69 96 22 71 58 73 44 -6 -27 -82 -45 18 -17 3 33 196 163 78 149 221 165 139 120 137 108 114 77 82 66 63 44 34 43 37 29 19 -11 24 19 21
1 1 64 43 69 56 93 91 91 51 27 -4 2 -1 -112 -61 85 97 61 130 223 253 373 232 128 125 165 231 184 165 121 111 98 80 72 54 47 51 41 41 43 40 34 32
-24 22 28 87 45 40 58 36 66 62 46 32 32 31 5 28 4 92 93 65 120 174 290 318 218 181 215 201 185 205 199 160 119 122 89 64 61 75 44 30 29 43 45 43
-2 50 69 174 134 181 185 214 130 101 39 28 64 69 12 41 56 12 69 41 77 202 267 315 190 100 184 226 246 261 200 164 121 145 132 119 102 111 15 42 45 46 42 41
49 21 59 78 138 91 197 244 153 108 69 33 27 56 20 67 109 71 57 41 66 110 133 184 87 142 168 226 251 182 149 211 192 161 167 124 92 67 -22 3 46 48 65 66
61 33 74 85 127 -27 117 147 189 140 152 46 28 20 34 67 116 80 82 93 128 81 62 139 128 123 122 130 131 132 112 145 144 129 118 83 58 79 -50 -48 35 67 84 67
84 80 62 136 82 62 124 160 71 107 198 91 72 67 45 90 107 116 74 87 108 99 112 87 52 102 189 167 119 162 110 129 115 98 101 141 89 8 -18 13 78 87 76 70
72 51 122 93 126 172 193 113 86 51 99 124 122 88 84 136 170 170 108 144 178 128 170 156 135 110 156 141 90 115 139 125 122 131 134 155 80 81 96 65 70 60 35 58
35 58 67 97 137 70 60 62 62 42 15 66 58 90 110 105 160 217 126 47 71 123 150 161 172 191 215 157 152 98 101 58 52 50 83 75 100 120 120 96 78 79 69 80
-36 55 47 39 98 96 132 39 84 -11 38 15 31 58 91 162 243 330 199 142 105 73 79 108 119 161 178 199 121 68 58 107 42 32 42 5 107 126 128 107 84 82 92 107
102 102 65 85 56 55 63 78 68 35 97 10 31 92 87 138 170 209 211 143 79 54 60 57 105 141 155 142 119 171 130 140 22 56 -1 84 118 125 132 108 95 96 99 107
38 50 42 65 83 126 55 81 83 98 66 26 12 27 95 124 68 91 157 127 90 78 37 41 93 113 146 130 120 153 227 270 244 216 211 245 227 193 158 152 114 92 126 151
-0 20 25 58 83 133 55 71 83 53 77 31 -4 -5 11 43 56 41 60 82 -8 29 14 26 59 94 102 103 108 144 223 184 173 189 214 243 208 163 158 131 123 96 116 145
-31 22 -23 14 16 46 66 82 109 62 54 -9 -8 -77 -38 -17 30 51 48 -62 -28 -91 8 12 37 64 89 100 101 112 115 117 131 152 161 174 198 201 171 168 139 145 121 114
-14 -11 9 10 6 22 65 109 83 34 -11 -21 -14 -33 -30 10 10 74 13 -12 -67 -98 -23 30 61 63 81 85 82 68 77 96 117 122 130 124 130 151 167 131 139 131 135 124
29 65 21 10 27 28 14 -0 3 24 17 3 -8 2 4 16 20 3 -43 -8 3 -19 -60 -12 32 59 66 67 68 69 79 83 91 88 94 106 116 125 130 137 135 121 122 117
25 57 65 41 49 11 -40 -16 12 41 19 9 25 29 14 3 20 2 -42 -80 -51 -30 -38 -53 -32 17 31 48 46 38 36 52 63 75 78 84 85 84 86 87 92 107 102 106

GFSCGP_con_3kmhel_114.txt.gz
Helicity
148 148 59 67 31 66 57 59 41 -10 -71 27 44 57 194 151 107 96 101 57 61 26 56 61 41 16 10 8 12 -9 12 -23 7 3 4 -7 -2 -2 7 18 -3 10 17 9
181 87 60 38 46 66 57 67 48 24 14 3 -37 41 87 179 103 94 74 51 76 4 49 63 65 40 27 37 50 12 28 15 2 -15 16 20 -7 -11 -0 8 10 -4 7 17
107 71 65 65 62 75 69 81 37 36 29 25 19 -56 -169 86 90 71 1 47 107 104 72 73 90 64 22 51 62 37 53 21 -8 -17 16 92 71 30 9 14 13 1 -4 3
38 16 64 100 94 86 84 56 85 56 63 4 2 -32 -101 34 -13 -14 -33 43 94 105 87 117 110 71 45 36 47 28 50 20 -16 2 5 27 11 6 7 9 19 10 5 -6
47 81 110 111 78 109 71 143 119 79 76 45 11 45 40 110 66 136 -57 42 32 93 118 92 115 116 14 24 66 31 41 34 -7 -3 6 24 3 17 31 17 15 16 10 -0
31 27 81 68 83 78 123 178 174 98 59 46 -38 -26 21 60 -126 20 39 37 56 65 88 93 90 75 -1 8 50 40 32 -3 -25 -19 -1 25 30 12 12 17 17 20 15 15
20 56 75 91 151 180 150 234 124 74 72 32 8 -11 44 28 -40 76 -29 111 51 85 63 82 114 59 -16 41 57 54 45 9 -2 -6 -15 -9 1 11 13 15 3 9 11 19
10 37 74 59 57 64 150 142 71 53 60 59 37 -24 6 -6 85 42 139 180 134 128 147 117 129 97 40 17 74 68 62 23 8 16 8 -3 -4 -11 -18 -14 -4 -0 9 4
20 50 49 65 48 79 80 73 39 37 60 41 7 -7 -12 80 134 166 279 303 157 152 193 110 118 67 73 68 44 91 88 26 23 -4 -3 16 36 28 -22 -3 23 25 39 34
-8 40 46 55 79 83 43 72 91 78 37 32 65 11 -28 -30 -14 90 158 271 247 179 158 159 80 43 85 72 55 72 83 92 52 38 31 25 18 33 37 36 25 30 38 31
15 32 57 49 42 52 112 106 78 20 28 36 73 26 -21 -47 39 -62 -55 74 69 120 256 205 75 61 67 81 90 80 91 91 71 50 67 67 49 41 39 39 44 48 40 38
26 3 23 35 78 52 64 72 82 39 35 32 33 60 22 -10 -4 89 -36 13 19 149 206 246 113 96 142 94 72 84 100 87 106 86 69 68 82 70 62 59 71 61 43 42
42 36 21 81 111 55 138 140 110 77 75 38 45 75 -24 1 -2 84 118 131 112 139 180 269 123 165 114 56 98 122 134 135 146 135 117 95 93 103 91 87 84 65 66 44
56 80 52 68 114 123 119 188 138 76 73 57 9 27 20 19 27 9 76 105 96 121 194 267 264 210 178 129 127 149 150 183 174 180 165 125 127 120 116 94 63 74 51 54
85 62 71 45 101 149 59 219 209 97 44 51 97 11 -6 18 45 39 41 83 111 107 152 187 206 194 147 111 127 193 201 186 156 145 171 194 176 123 105 65 17 49 39 38
82 53 94 109 74 85 88 140 210 136 83 63 99 51 15 33 83 120 89 67 42 20 -20 -25 50 103 101 105 181 218 156 149 107 129 227 235 160 81 55 77 71 6 47 47
92 47 71 44 143 92 73 106 83 97 86 69 73 85 62 97 147 140 89 56 77 86 29 -28 -79 30 125 108 122 111 112 131 107 124 134 139 124 108 36 19 21 20 81 76
89 44 36 35 91 79 59 62 5 56 34 31 39 65 88 132 203 226 170 134 130 119 101 107 7 10 64 78 154 150 123 133 146 132 126 105 132 139 41 -1 52 60 83 76
66 64 22 23 84 97 76 50 23 24 70 -33 -6 30 62 167 264 283 201 177 153 141 131 105 85 110 160 214 208 154 107 99 119 90 95 117 66 39 44 67 91 123 103 83
81 72 44 40 1 27 46 61 108 23 69 -24 -56 -27 13 108 162 125 124 98 79 83 103 165 154 147 166 159 171 219 130 112 92 131 135 80 4 19 105 129 135 110 98 93
57 59 51 66 51 51 45 74 95 153 19 -22 -66 -27 25 53 14 -16 18 63 57 53 68 78 131 133 144 141 150 248 289 232 151 134 147 99 72 141 171 134 102 86 111 108
17 25 22 31 43 59 50 71 61 64 46 -5 -16 -11 38 101 90 74 69 46 42 39 66 52 48 71 110 120 126 168 234 185 160 173 142 172 65 195 135 105 103 64 114 151
-5 20 27 33 -0 8 40 27 39 16 29 11 38 45 38 90 71 58 30 1 31 58 14 17 27 41 69 84 95 141 161 141 132 164 186 173 222 99 130 96 128 139 126 130
2 27 37 11 7 20 45 49 43 47 38 15 14 30 66 91 111 23 -11 -17 6 -22 -23 -25 -12 34 53 70 76 64 76 104 129 149 133 132 140 140 132 175 137 126 168 134
7 18 15 34 23 27 2 13 14 16 26 22 30 5 11 39 25 -14 -21 -28 -82 -47 27 58 42 43 27 20 36 36 54 69 90 96 95 95 103 116 121 129 126 151 154 148
25 44 35 46 26 -4 -54 -57 -19 -4 28 45 53 28 33 11 -2 -9 -11 -39 -43 -59 -42 5 32 45 35 51 63 50 41 50 52 71 79 76 79 81 80 77 96 122 109 103

GFSCGP_con_3kmhel_120.txt.gz
Helicity
43 29 19 23 12 65 71 51 60 46 40 20 1 -11 82 71 20 -35 -3 -14 -1 2 8 1 1 1 6 1 -5 -7 -4 -12 -2 10 10 7 -1 4 8 12 11 21 30 32
33 -7 41 74 36 18 25 27 58 58 45 28 27 -3 12 -1 3 -31 -23 -0 -23 -7 18 1 -3 15 22 20 -2 -4 -9 -2 -5 1 22 14 5 11 2 9 8 17 27 20
13 57 85 36 28 15 10 7 51 63 41 25 20 7 45 27 23 -25 -49 19 -38 -22 -1 13 -6 18 27 31 20 -2 -4 6 6 15 7 16 9 7 15 2 8 6 7 5
30 69 22 25 16 5 9 34 47 53 36 49 25 64 13 68 59 35 17 25 -29 -25 -20 -1 3 5 35 29 26 7 -3 -7 -1 -6 8 7 18 17 8 -0 10 13 4 1
68 41 38 41 23 13 8 32 35 49 33 44 18 15 18 81 48 50 29 27 40 8 -29 -25 -8 8 20 25 30 23 -7 -4 -12 -22 23 5 23 19 20 10 -0 5 7 11
45 42 38 17 48 12 53 29 44 60 56 27 2 1 4 39 -5 60 68 -53 37 8 1 -24 -31 -9 -2 18 21 26 27 -6 -0 5 -15 29 21 11 26 23 22 20 2 4
33 21 25 24 28 36 19 23 43 44 51 26 62 2 -31 -2 -26 -41 52 -46 29 9 27 -7 -41 -20 -2 25 29 31 17 -7 -5 9 20 9 18 16 12 13 16 13 18 11
2 48 46 39 -24 20 14 -25 -21 42 19 28 41 6 9 25 3 2 36 -2 41 38 -14 2 -15 2 -5 19 38 27 31 -7 -19 -17 -3 2 14 23 16 8 20 12 14 8
20 19 65 34 18 -24 66 5 -8 24 30 58 3 1 18 -2 -27 -5 44 89 38 47 -32 1 24 22 6 5 39 30 24 6 -13 -16 8 5 18 21 9 25 16 -20 -9 3
44 23 53 57 36 24 -13 65 26 31 51 31 2 15 48 63 21 -60 11 53 34 36 54 70 71 51 15 16 43 35 20 20 10 5 23 22 31 27 11 9 3 16 17 19
20 24 62 40 35 -8 60 18 30 43 25 38 20 59 88 30 44 -37 -72 38 35 28 105 116 90 78 50 40 52 45 34 20 22 15 30 40 38 38 33 23 16 17 20 20
62 26 23 -14 75 62 62 38 32 40 30 22 43 -26 34 -1 67 -33 -43 41 42 105 82 124 95 90 76 53 63 60 48 39 15 28 32 33 34 36 34 32 30 34 42 38
68 24 44 17 82 54 42 58 76 77 62 -29 51 44 14 22 -37 -4 -55 -4 -0 89 35 122 169 102 72 118 80 64 60 37 29 17 17 27 27 33 32 41 50 51 51 51
62 17 13 -23 57 89 40 106 82 79 46 30 -8 32 16 74 42 3 14 -3 -16 19 39 77 144 95 86 87 124 64 65 48 52 37 24 16 15 25 34 44 51 58 65 62
36 25 -0 16 32 46 36 78 99 97 100 87 44 36 46 31 25 9 5 11 -12 -2 30 23 30 163 125 154 167 56 70 66 77 56 33 25 34 52 60 54 57 57 62 70
33 29 41 23 21 28 53 47 45 38 49 25 64 33 41 30 40 19 36 22 -1 -11 -0 -1 77 67 110 108 172 90 51 32 60 74 63 41 43 66 80 74 72 75 87 90
38 10 36 9 45 30 53 52 33 65 58 94 133 118 38 40 45 65 80 47 40 17 -14 5 27 73 93 108 168 155 109 36 70 98 94 78 70 62 86 111 117 131 136 123
21 34 23 3 56 41 25 104 74 42 52 93 137 85 73 58 51 79 125 90 92 115 86 35 -16 34 144 141 142 133 78 28 36 91 101 73 103 155 126 206 215 231 188 123
25 -12 -1 36 28 13 15 3 28 42 21 121 137 99 82 33 25 118 138 99 75 86 110 64 58 86 33 58 120 120 146 91 49 82 60 76 80 95 166 177 212 147 141 116
21 12 -12 -1 35 10 27 47 52 43 25 25 -1 10 8 14 29 81 163 78 52 81 71 92 121 105 86 134 42 51 35 52 51 95 35 47 67 94 96 124 94 174 161 168
36 21 27 24 -17 6 73 15 21 36 77 84 59 17 -3 107 150 137 138 105 89 74 63 72 87 117 122 101 80 97 77 42 101 161 125 96 78 44 76 126 150 177 231 216
13 23 13 4 30 -3 53 19 19 79 36 40 68 65 145 76 105 90 99 93 83 79 75 78 94 125 152 126 149 258 321 296 265 229 171 105 88 56 58 90 131 102 65 47
7 27 7 14 35 41 11 23 50 47 51 43 50 55 67 87 90 61 56 60 57 53 57 59 77 112 134 153 163 186 171 164 162 165 160 202 186 128 115 122 64 -0 16 -4
25 22 8 10 33 2 19 2 36 30 47 58 14 7 43 59 36 41 14 12 37 66 98 93 73 70 77 92 129 157 142 139 143 147 125 118 144 131 126 113 105 106 51 58
66 35 22 7 15 8 17 29 41 38 36 41 34 32 46 61 53 44 39 46 73 83 73 59 90 94 62 55 71 67 60 57 79 85 86 79 79 94 115 114 103 57 61 99
10 28 16 41 30 27 20 27 41 43 42 29 49 57 69 60 50 44 46 50 62 72 65 57 62 57 55 52 53 48 34 35 42 52 50 46 41 56 62 83 96 102 44 44

GFSCGP_con_3kmhel_123.txt.gz
Helicity
1 1 -2 -12 -16 30 50 68 35 108 38 19 18 41 87 82 33 -18 -56 -26 22 -2 34 48 13 41 14 8 -4 -7 -16 7 -18 -13 7 -2 12 16 18 12 -7 15 13 18
23 -12 -12 0 41 38 -3 8 14 78 45 19 29 1 37 132 91 -36 40 -33 -1 -2 32 50 6 43 23 15 6 3 -5 -5 -15 -7 29 35 3 24 1 12 -1 21 21 17
-2 23 41 77 14 -12 -10 -18 16 54 53 14 7 -13 49 69 68 6 22 -57 -7 25 28 48 11 32 42 30 12 16 4 0 -13 40 1 34 59 30 16 -2 4 14 20 11
8 77 72 13 -12 -2 -17 40 15 45 25 14 25 46 42 82 62 91 39 -15 -24 -53 10 53 32 6 35 65 8 30 8 5 -18 3 -18 12 29 12 21 -3 25 4 14 17
-1 53 12 -3 -7 1 -18 68 22 22 -6 7 27 22 -6 98 98 83 83 -3 -8 -44 -100 57 50 21 41 64 31 15 1 -13 5 -6 28 -25 17 7 -12 28 13 27 12 23
47 20 3 -17 31 19 5 36 -4 4 8 12 -19 43 -20 88 43 13 47 37 -39 39 -29 -1 56 54 25 63 49 29 23 -10 4 38 -12 -9 15 40 66 14 -5 -5 -5 -7
12 19 9 -1 22 13 -3 -8 10 21 43 14 112 20 14 16 56 10 77 80 52 70 27 -18 27 68 95 24 80 38 38 4 9 23 -16 15 19 20 16 16 9 26 23 -31
-11 47 37 41 -25 0 14 -36 -52 11 -8 131 56 45 71 140 39 37 35 83 60 91 58 -9 27 69 142 54 86 39 76 25 15 24 33 37 26 29 12 19 23 16 9 35
26 14 52 10 12 -23 -4 36 -46 5 3 3 143 21 109 169 74 21 7 91 85 12 -51 40 51 25 114 125 79 44 73 41 21 18 24 41 28 34 36 62 34 19 18 19
31 6 42 15 -2 14 -44 47 11 18 -21 10 10 2 106 176 146 38 7 57 57 10 16 62 52 62 106 98 71 38 52 44 37 20 26 33 40 32 35 47 21 32 27 29
-3 -5 48 26 18 -27 41 38 15 39 9 17 -22 102 107 30 96 38 85 12 59 52 93 62 212 40 126 124 65 49 48 50 37 36 46 36 18 19 35 19 33 19 30 29
41 -5 -3 7 41 4 48 31 38 8 74 96 47 89 135 59 33 124 -20 30 37 75 50 83 93 47 158 145 53 66 53 52 38 52 69 61 57 49 44 36 25 47 17 33
27 0 3 -3 -6 81 41 3 11 28 48 47 83 78 235 97 5 68 47 47 -13 -40 54 95 217 213 180 143 69 96 70 66 54 47 55 52 51 51 44 39 35 37 34 41
54 -11 12 24 56 38 78 9 90 104 40 20 41 39 61 62 83 38 3 1 41 -94 48 175 213 204 215 114 100 124 93 83 76 57 39 46 45 41 38 38 42 37 49 44
11 -7 -6 -3 7 28 15 105 1 207 148 40 51 91 26 103 -5 29 8 10 29 -18 22 87 130 162 192 97 179 199 156 115 86 75 52 44 42 34 36 47 39 51 47 47
-2 7 25 32 16 15 35 55 140 -20 38 32 88 38 139 20 94 108 87 -22 -37 -23 -43 -40 24 93 92 138 112 131 242 191 173 126 96 72 63 69 57 47 49 54 54 61
18 5 9 -4 5 46 11 21 81 56 21 78 114 127 -9 82 45 134 164 76 -3 21 24 34 56 161 172 135 153 138 227 253 136 120 92 116 89 57 59 54 74 78 83 101
9 23 19 7 12 36 72 33 73 182 85 60 9 43 57 70 52 113 117 160 145 167 184 152 100 34 99 240 194 206 240 246 171 107 97 108 117 87 97 97 72 101 131 144
-1 29 -20 -10 9 39 41 76 86 95 39 15 -6 38 26 44 44 91 122 131 147 76 126 109 35 45 76 107 147 200 227 264 282 192 161 139 127 109 94 115 99 135 148 164
-11 44 5 -25 21 66 46 84 76 168 35 45 57 58 31 28 41 56 88 81 117 103 113 65 42 70 12 -29 54 90 90 88 148 202 136 112 133 112 63 67 72 81 126 182
35 20 20 36 33 34 48 20 36 7 44 212 64 43 87 98 76 59 64 70 96 119 102 81 84 69 122 86 -7 -46 -17 -45 61 63 90 105 118 71 84 54 136 183 138 162
18 11 11 5 1 19 102 35 30 64 18 0 59 54 44 64 61 45 62 74 91 89 50 67 62 60 126 174 147 207 200 169 114 115 54 82 91 75 55 22 30 42 101 118
32 40 48 1 39 46 46 39 50 47 30 34 37 30 45 50 37 47 58 74 85 87 71 50 40 92 119 132 136 237 194 196 222 235 207 173 145 113 138 97 107 63 50 33
57 33 10 24 90 25 45 47 46 33 39 53 23 16 44 81 84 66 63 67 51 59 77 57 63 75 81 96 102 126 111 109 137 160 139 128 158 158 103 81 85 47 52 32
101 13 19 22 39 39 39 37 45 40 43 17 15 48 66 66 49 53 18 16 -2 47 40 48 65 74 76 49 42 41 32 30 50 56 54 50 69 82 99 114 83 60 62 29
24 14 -10 53 60 63 14 36 50 48 22 49 57 55 51 57 68 74 77 73 68 50 46 45 47 56 57 66 63 57 38 31 27 30 32 23 23 27 33 39 75 76 57 58

GFSCGP_con_3kmhel_126.txt.gz
Helicity
9 -2 -13 -26 -14 64 38 35 38 84 36 65 22 48 115 79 55 138 -64 -86 -14 79 103 50 24 66 82 59 15 1 92 55 3 -23 -5 26 9 8 49 15 17 3 4 29
18 -26 -11 -16 8 5 40 30 12 82 109 56 2 47 117 232 130 184 39 -83 16 17 136 77 21 89 110 69 15 -8 20 42 -3 -48 -14 -5 42 29 31 -14 26 9 17 25
-30 -39 -4 8 19 65 28 -15 3 82 90 29 -9 -35 8 143 160 104 44 9 -101 -7 186 12 91 76 158 131 55 9 20 3 -24 -40 54 48 27 73 -14 1 9 30 22 10
0 -1 52 62 44 -3 3 20 29 44 62 17 114 26 14 131 189 103 184 146 -98 -43 32 64 100 97 156 179 93 32 46 -18 -46 -10 -6 -38 15 10 -8 15 29 35 2 16
-3 15 51 36 3 -1 18 57 58 36 23 -10 91 29 -6 141 163 166 103 147 -24 -80 -48 108 44 112 146 217 116 108 56 13 -29 -18 16 -26 -10 29 51 14 33 30 11 16
76 34 35 -17 -14 9 29 29 24 -12 7 55 60 54 -11 75 172 214 52 97 125 -43 60 124 48 103 170 195 144 141 81 54 37 -17 4 2 -12 24 11 36 45 21 31 -3
8 -9 3 22 18 37 6 -14 11 4 19 14 42 20 60 163 110 94 48 134 160 50 -67 14 14 111 200 204 120 169 111 96 27 26 -31 -4 19 -1 26 38 -19 -15 8 47
-14 9 69 26 -14 -15 19 -22 -44 -52 44 24 15 124 65 81 99 4 -9 -58 91 105 -49 -39 140 146 73 186 246 182 150 109 63 1 -10 38 29 26 9 36 -7 20 19 20
52 34 34 23 32 -23 -37 34 -8 -6 18 0 49 136 200 126 70 109 45 103 158 32 98 -29 37 102 274 85 295 233 187 116 78 64 45 65 63 42 61 65 42 52 40 24
40 34 32 27 24 -5 -37 59 54 25 27 29 10 232 266 174 142 35 31 85 174 111 109 158 128 120 153 223 269 196 243 128 84 41 62 65 54 52 56 76 50 52 53 32
31 21 22 53 24 -9 47 13 46 38 74 66 52 77 68 89 60 106 181 318 5 48 115 134 -3 128 171 290 232 266 255 123 74 14 51 51 47 38 53 58 43 41 40 43
12 11 8 -2 21 17 -3 26 15 36 2 34 67 40 11 42 82 73 135 177 142 35 97 79 193 188 116 124 226 251 265 157 89 57 55 61 77 85 78 38 48 56 47 54
42 0 28 1 -17 37 20 21 22 54 45 37 68 62 61 36 34 73 18 12 195 10 -49 54 42 77 19 87 262 189 255 162 114 81 59 91 89 84 76 73 40 95 72 50
44 13 52 58 -17 36 27 29 42 39 61 78 48 73 23 29 47 52 76 96 -23 53 -22 79 195 113 126 145 239 191 223 188 149 96 78 94 84 85 92 90 93 62 70 53
30 26 7 -12 17 20 14 21 27 82 55 44 -6 68 93 254 189 174 71 76 47 36 33 -11 139 198 210 145 77 253 192 187 174 129 90 58 85 81 69 88 93 86 68 59
-2 -2 -3 9 1 -6 22 35 32 99 75 49 33 72 263 194 139 243 180 77 7 14 5 5 33 165 141 277 176 158 292 409 237 158 122 116 100 94 99 96 88 82 71 65
32 -8 5 10 13 31 16 24 90 89 73 35 138 56 18 26 -28 44 29 102 209 144 92 118 -5 117 103 92 144 -93 86 100 246 348 203 173 125 108 102 79 75 73 71 77
27 5 30 23 24 24 51 135 147 84 95 98 26 63 74 198 169 95 78 153 140 121 -5 34 238 78 75 81 113 93 179 99 168 192 255 181 149 111 98 83 76 80 98 90
-20 36 33 26 -6 -2 58 110 86 43 7 66 158 78 211 285 116 32 69 140 190 168 38 28 47 135 87 32 94 129 163 212 228 210 203 199 183 215 182 142 116 94 101 115
4 24 38 26 19 1 48 167 42 45 9 13 126 49 24 142 71 86 44 31 62 39 -30 12 90 61 109 72 38 59 186 270 304 314 269 264 283 350 296 189 136 120 147 187
38 27 20 38 45 15 78 19 91 16 77 47 46 128 84 100 107 107 106 74 33 35 22 -52 192 38 4 48 5 -25 11 38 158 249 253 339 322 182 301 152 88 108 132 242
0 63 29 18 43 53 117 47 46 100 92 -18 70 124 130 119 69 62 54 66 62 65 31 60 97 85 37 54 76 95 22 -53 1 48 79 74 105 80 93 105 70 56 48 70
-1 40 64 85 45 66 56 30 43 69 39 54 61 70 44 29 39 45 54 68 74 78 56 20 43 121 107 171 152 150 136 225 169 101 106 109 161 95 59 89 31 46 -13 5
51 65 53 57 36 31 120 83 56 58 105 21 42 -28 98 54 52 47 54 57 57 36 33 0 50 78 110 89 81 99 131 123 163 167 141 117 86 88 77 82 46 18 15 -1
86 78 48 21 25 142 163 61 46 48 47 60 130 103 53 58 45 36 19 31 38 42 9 27 67 40 43 61 72 60 61 86 89 70 49 81 85 84 93 80 56 24 27 32
16 18 40 78 85 70 89 -7 46 48 127 105 -30 57 43 44 43 29 12 10 22 24 38 87 50 47 45 47 44 15 0 -7 9 38 24 30 23 38 44 42 40 54 41 30

GFSCGP_con_3kmhel_129.txt.gz
Helicity
43 46 29 -3 102 68 88 84 112 57 49 55 -6 63 24 108 61 55 -181 9 -64 -1 160 184 161 284 221 195 127 50 14 -24 -20 -20 52 49 15 33 51 9 9 13 28 14
56 41 -38 81 92 58 25 34 53 31 24 27 92 74 156 152 189 124 43 -48 22 23 -44 75 234 344 322 214 125 49 8 -24 -11 -39 -35 44 39 23 24 40 25 31 21 25
12 15 -1 12 44 1 50 90 -6 221 66 54 28 -1 139 223 158 234 130 -58 -55 -8 1 27 297 292 351 206 108 155 86 -10 -16 -45 -39 18 50 86 63 38 27 7 43 36
21 26 27 -18 22 45 79 -27 29 73 87 23 120 39 39 189 328 227 158 80 -96 -2 14 -24 212 332 341 223 129 189 152 2 -13 -2 -25 -9 -18 -13 48 43 6 31 22 13
-12 9 37 74 71 91 10 13 54 105 123 104 70 76 8 209 320 293 174 161 22 -98 -27 -14 46 343 339 275 195 146 185 62 -7 16 -19 -23 -20 -21 20 30 14 22 27 21
18 41 67 59 55 46 30 42 67 73 66 4 124 193 76 243 301 263 191 145 72 54 -28 -38 -38 320 317 281 218 173 121 80 14 22 -12 -41 -29 -12 50 74 44 42 28 37
4 -12 26 36 7 22 83 91 65 41 29 35 2 32 137 117 85 348 275 165 13 16 62 88 94 210 346 284 271 216 149 39 74 25 -15 -44 -18 -37 12 29 10 25 30 22
-1 23 102 34 -6 54 42 21 22 108 85 22 -65 70 119 80 93 110 181 129 44 4 62 140 76 105 283 266 284 198 177 56 66 65 -3 -37 -45 30 44 1 -8 -1 7 8
60 80 100 79 -2 38 2 -7 20 28 22 53 19 217 284 166 154 68 60 98 48 237 187 105 52 96 250 233 292 224 255 150 65 79 44 2 8 9 -22 -28 -32 33 29 35
66 46 16 49 27 33 19 -12 55 54 68 100 47 202 146 163 154 92 128 131 33 126 96 112 124 185 229 249 294 320 285 265 99 87 84 76 81 69 38 87 59 38 58 60
78 58 31 138 53 -16 25 46 57 38 84 122 87 48 -2 13 68 59 63 110 234 247 64 85 252 220 187 272 362 343 299 257 143 131 104 102 79 63 73 100 74 66 64 60
93 84 94 36 43 15 54 45 68 107 82 94 34 16 8 17 93 78 44 92 129 105 184 131 114 333 233 284 431 347 309 300 233 165 129 124 75 35 41 87 76 58 47 49
94 81 122 104 51 25 17 31 57 67 59 69 7 34 45 59 36 78 23 3 8 21 40 138 154 159 270 131 338 326 281 241 259 199 171 124 95 65 38 60 61 69 59 52
98 82 127 119 100 75 72 114 47 60 95 76 78 41 109 48 105 107 36 36 68 67 35 79 73 69 142 176 295 338 285 179 262 184 164 149 118 87 75 86 87 87 91 77
51 83 95 25 30 55 68 73 36 82 41 80 50 53 30 65 109 105 115 135 42 91 193 152 63 58 94 152 168 332 349 135 199 202 143 146 141 135 112 100 103 112 88 66
-15 59 78 69 73 57 42 30 36 42 44 227 179 58 86 135 155 149 84 161 213 242 139 97 129 77 26 66 162 193 253 223 3 336 131 197 153 141 126 105 107 101 91 72
33 30 84 60 30 22 67 57 136 146 120 88 96 53 81 140 99 122 79 130 140 124 97 80 55 169 150 46 37 178 253 260 124 83 82 224 191 132 108 94 100 86 77 85
73 79 74 14 37 53 33 77 80 102 90 113 103 90 99 73 112 92 91 88 119 128 52 72 43 57 21 94 106 122 107 186 83 49 220 275 218 153 140 143 108 88 85 74
50 75 88 82 64 18 -10 85 78 -18 14 35 51 158 183 147 133 62 34 138 166 112 84 88 79 34 193 3 77 75 103 76 92 114 118 482 221 196 195 150 147 146 129 150
61 84 99 91 73 41 -3 1 26 -15 15 71 62 110 116 146 151 109 51 45 68 40 59 93 67 21 37 7 40 39 70 144 160 205 183 172 276 285 278 264 229 201 183 188
91 59 90 88 76 77 117 112 45 67 56 77 54 35 88 178 128 126 186 183 127 73 24 27 -39 -26 -56 34 -2 23 67 143 217 278 348 376 385 369 294 349 326 293 226 186
98 95 98 60 37 90 134 60 50 59 149 126 141 88 204 243 145 58 112 112 94 18 4 13 -29 -65 -12 -39 76 40 14 17 54 99 200 213 245 168 150 225 158 159 85 101
91 107 138 89 81 57 35 102 50 125 114 65 66 38 143 201 144 42 90 79 75 36 66 42 12 -33 52 61 -5 129 38 48 42 20 80 65 75 126 20 16 88 45 -12 87
146 165 102 75 60 32 -12 105 116 231 192 92 51 30 -42 -14 12 -16 26 40 27 33 28 17 51 73 72 57 -2 119 47 117 128 115 90 34 -38 -42 -28 13 -12 4 39 2
78 157 129 39 59 114 111 191 245 183 150 238 46 31 1 -15 1 9 22 17 9 14 19 -1 10 54 119 81 94 41 75 97 106 117 120 72 45 51 78 56 39 18 12 9
66 52 96 17 42 48 74 189 180 33 26 51 22 -32 23 45 39 30 33 45 49 43 26 33 28 27 35 32 45 18 32 33 48 41 19 10 1 11 17 25 41 62 41 50

GFSCGP_con_3kmhel_132.txt.gz
Helicity
73 71 -7 -101 -60 -45 -40 -33 124 15 65 54 37 -14 13 -15 -54 3 42 35 87 -53 86 212 244 257 239 111 90 53 31 36 56 63 -12 0 6 21 36 27 21 19 39 38
97 28 -9 -22 -5 0 -3 48 80 48 52 26 33 42 39 55 9 19 112 60 66 38 99 209 267 245 286 216 139 70 8 33 -13 62 31 7 -17 -15 30 38 30 23 28 41
65 61 21 27 97 65 63 73 97 53 39 17 110 -1 136 97 49 13 -35 -7 -13 86 126 222 306 292 254 286 196 136 43 50 -16 -28 2 115 73 77 40 55 29 23 29 35
92 84 69 98 116 38 23 30 -11 79 98 -5 122 25 27 204 232 140 -7 77 162 99 150 259 241 294 332 298 237 158 86 89 13 -17 -19 -7 -12 0 18 16 16 15 26 34
92 59 37 58 22 30 4 63 10 79 41 86 84 59 52 52 186 214 143 18 151 168 171 288 294 249 311 264 248 166 128 107 44 40 6 4 -9 -14 4 0 14 27 31 33
85 56 22 15 56 62 26 70 81 83 80 44 -20 65 -10 36 147 182 143 89 66 122 162 78 242 217 279 232 242 185 159 101 79 53 -2 -21 -35 -25 -16 -24 -6 -15 5 25
44 14 25 38 51 93 82 86 93 35 52 17 37 52 125 23 22 159 204 153 54 136 178 138 227 210 182 248 254 226 185 103 128 99 59 -9 -32 -42 0 5 -6 -18 -17 13
37 66 -19 17 -39 30 79 97 67 48 81 66 18 29 63 104 79 71 92 118 90 102 165 207 174 180 293 262 284 252 208 185 118 122 84 24 -1 -27 -32 -9 -14 0 -15 -17
44 68 9 74 5 81 68 28 0 52 63 101 26 48 133 182 128 79 39 75 52 133 142 134 98 239 328 265 302 254 203 191 153 110 88 53 22 34 -26 -28 -20 29 10 7
-6 53 -34 -20 18 14 65 32 81 90 88 83 79 75 53 82 52 11 -14 27 60 46 126 123 165 225 259 310 310 262 239 205 153 132 77 90 77 42 14 -18 -33 -34 26 27
74 53 68 41 3 -10 22 70 66 51 51 69 110 101 26 83 41 41 13 16 47 71 105 213 174 212 228 249 277 287 304 218 192 147 150 91 125 106 75 79 56 34 84 54
143 101 28 101 79 31 40 22 85 96 49 106 88 91 94 97 39 42 19 -7 51 76 81 107 145 223 278 283 251 281 305 225 206 184 164 150 120 175 154 101 78 98 87 78
113 72 88 128 106 93 110 123 89 71 112 86 141 81 124 75 98 89 136 134 113 89 84 70 80 91 200 236 366 365 208 270 226 217 199 169 170 168 169 158 101 84 67 60
118 117 24 51 110 105 126 182 135 110 127 117 104 93 72 90 105 133 123 100 133 124 142 123 57 53 63 117 237 194 277 262 264 253 225 195 166 164 177 166 122 97 81 70
53 44 93 92 60 153 161 129 154 105 67 160 79 90 65 81 92 103 173 155 171 160 156 131 97 50 43 62 107 145 238 354 322 327 280 230 121 104 139 143 136 119 117 88
64 16 73 96 128 117 141 114 122 61 53 93 101 125 63 67 113 94 129 129 98 164 194 143 122 87 106 114 102 157 310 275 318 345 440 294 192 79 89 102 118 131 116 85
39 48 84 108 153 158 175 113 121 86 110 79 88 30 22 25 47 104 85 76 96 112 163 175 119 92 62 58 87 172 226 248 218 247 252 159 92 16 22 115 131 129 133 124
92 76 53 46 83 115 64 78 69 78 71 74 51 34 53 105 187 163 160 103 94 121 185 184 113 118 99 125 109 26 79 173 208 207 210 212 81 3 18 113 150 156 164 143
103 93 79 79 67 72 55 62 71 39 38 21 -14 3 96 115 125 125 99 94 82 79 111 108 90 102 94 161 155 -25 13 86 187 184 169 223 220 -50 54 148 188 200 198 232
158 133 131 106 92 63 2 45 39 38 51 75 46 -12 51 101 97 74 98 99 78 64 21 72 66 67 87 74 63 20 114 127 114 148 164 110 191 45 211 267 301 331 282 295
172 194 135 93 66 79 44 26 63 78 17 50 64 34 76 137 137 94 149 129 95 72 45 63 41 32 2 9 22 -45 -2 96 153 98 63 134 174 202 211 242 247 268 274 317
140 134 108 111 89 75 88 95 67 69 143 111 77 98 106 128 174 153 159 153 109 126 60 48 29 16 9 -2 0 2 19 17 24 386 425 459 361 314 236 297 265 249 267 319
181 123 82 81 80 60 58 99 79 162 165 127 138 163 176 238 194 121 83 46 45 65 57 37 17 -11 43 60 53 37 -6 35 34 37 80 177 231 352 568 506 412 308 298 279
171 88 110 130 101 146 120 194 130 117 116 79 83 86 123 203 57 22 23 56 66 98 87 63 57 32 54 113 27 -2 -5 41 -10 10 -19 -19 4 147 98 69 111 46 30 48
136 139 101 108 227 261 178 108 61 91 120 87 61 14 31 -19 -12 -126 0 40 37 69 50 41 47 45 45 95 66 33 3 -6 30 -27 -70 -87 -22 -68 -27 46 9 -10 6 -13
61 77 111 46 59 93 47 7 43 108 70 64 58 37 -23 -13 -36 -47 -28 10 21 30 20 24 63 81 76 80 104 78 45 52 75 30 28 21 28 20 3 36 89 113 75 62